Wetterdaten: Freitag, 07.07.2017
Datum Zeit Temp. A. Pool Temp. Feuchte A. Luftdruck Regen Wind Richtung Richtung Sonnenschein ET UV Solar Taupunkt Windchill Windben Empfang
07.07.2017 00:00 21,3 C 25,6 C 63 % 1015,1 hPa 0,0 l/m 1,7 km/h (1 Bft) O-NO 67 0 min 0,000 mm 0,0 UV-I 0 W/m 14,0 C 21,3 C 6,4 km/h (2 Bft) 95,74 %
07.07.2017 00:02 21,3 C 25,6 C 63 % 1015,1 hPa 0,0 l/m 6,4 km/h (2 Bft) O-NO 65 0 min 0,000 mm 0,0 UV-I 0 W/m 14,0 C 21,3 C 8,0 km/h (2 Bft) 97,87 %
07.07.2017 00:04 21,2 C 25,6 C 64 % 1015,0 hPa 0,0 l/m 2,6 km/h (1 Bft) O-NO 65 0 min 0,000 mm 0,0 UV-I 0 W/m 14,1 C 21,2 C 6,4 km/h (2 Bft) 94,74 %
07.07.2017 00:06 21,2 C 25,6 C 64 % 1015,0 hPa 0,0 l/m 0,1 km/h (0 Bft) O-NO 65 0 min 0,000 mm 0,0 UV-I 0 W/m 14,1 C 21,2 C 1,6 km/h (1 Bft) 95,74 %
07.07.2017 00:08 21,1 C 25,6 C 64 % 1015,0 hPa 0,0 l/m 3,6 km/h (1 Bft) O-NO 65 0 min 0,000 mm 0,0 UV-I 0 W/m 14,0 C 21,1 C 4,8 km/h (1 Bft) 94,00 %
07.07.2017 00:10 20,9 C 25,6 C 65 % 1015,0 hPa 0,0 l/m 3,5 km/h (1 Bft) O-NO 65 0 min 0,000 mm 0,0 UV-I 0 W/m 14,1 C 20,9 C 4,8 km/h (1 Bft) 95,74 %
07.07.2017 00:12 20,8 C 25,6 C 65 % 1014,9 hPa 0,0 l/m 3,5 km/h (1 Bft) O 84 0 min 0,000 mm 0,0 UV-I 0 W/m 14,0 C 20,8 C 6,4 km/h (2 Bft) 93,62 %
07.07.2017 00:14 20,7 C 25,6 C 66 % 1014,9 hPa 0,0 l/m 4,8 km/h (1 Bft) O 84 0 min 0,000 mm 0,0 UV-I 0 W/m 14,1 C 20,7 C 6,4 km/h (2 Bft) 97,87 %
07.07.2017 00:16 20,5 C 25,6 C 66 % 1014,9 hPa 0,0 l/m 2,4 km/h (1 Bft) O 84 0 min 0,000 mm 0,0 UV-I 0 W/m 13,9 C 20,5 C 3,2 km/h (1 Bft) 94,00 %
07.07.2017 00:18 20,4 C 25,6 C 67 % 1014,9 hPa 0,0 l/m 1,4 km/h (1 Bft) O 84 0 min 0,000 mm 0,0 UV-I 0 W/m 14,1 C 20,4 C 3,2 km/h (1 Bft) 97,73 %
07.07.2017 00:20 20,4 C 25,6 C 69 % 1014,9 hPa 0,0 l/m 0,7 km/h (0 Bft) O 84 0 min 0,000 mm 0,0 UV-I 0 W/m 14,5 C 20,4 C 3,2 km/h (1 Bft) 95,74 %
07.07.2017 00:22 20,2 C 25,6 C 69 % 1014,9 hPa 0,0 l/m 0,0 km/h (0 Bft) O 84 0 min 0,000 mm 0,0 UV-I 0 W/m 14,3 C 20,2 C 0,0 km/h (0 Bft) 95,74 %
07.07.2017 00:24 20,1 C 25,6 C 70 % 1014,9 hPa 0,0 l/m 0,9 km/h (0 Bft) O 84 0 min 0,000 mm 0,0 UV-I 0 W/m 14,5 C 20,1 C 3,2 km/h (1 Bft) 95,74 %
07.07.2017 00:26 20,1 C 25,6 C 70 % 1014,9 hPa 0,0 l/m 3,1 km/h (1 Bft) O 84 0 min 0,000 mm 0,0 UV-I 0 W/m 14,5 C 20,1 C 3,2 km/h (1 Bft) 94,00 %
07.07.2017 00:28 20,0 C 25,6 C 70 % 1014,9 hPa 0,0 l/m 1,1 km/h (1 Bft) O 84 0 min 0,000 mm 0,0 UV-I 0 W/m 14,4 C 20,0 C 3,2 km/h (1 Bft) 94,44 %
07.07.2017 00:30 19,9 C 25,6 C 71 % 1014,9 hPa 0,0 l/m 1,6 km/h (1 Bft) O 84 0 min 0,000 mm 0,0 UV-I 0 W/m 14,5 C 19,9 C 3,2 km/h (1 Bft) 98,11 %
07.07.2017 00:32 19,9 C 25,6 C 70 % 1014,9 hPa 0,0 l/m 0,0 km/h (0 Bft) O 84 0 min 0,000 mm 0,0 UV-I 0 W/m 14,3 C 19,9 C 0,0 km/h (0 Bft) 98,00 %
07.07.2017 00:34 19,9 C 25,6 C 70 % 1014,9 hPa 0,0 l/m 0,0 km/h (0 Bft) O 84 0 min 0,000 mm 0,0 UV-I 0 W/m 14,3 C 19,9 C 0,0 km/h (0 Bft) 93,62 %
07.07.2017 00:36 20,0 C 25,6 C 70 % 1014,8 hPa 0,0 l/m 0,0 km/h (0 Bft) O 84 0 min 0,000 mm 0,0 UV-I 0 W/m 14,4 C 20,0 C 0,0 km/h (0 Bft) 100,00 %
07.07.2017 00:38 19,9 C 25,6 C 71 % 1014,8 hPa 0,0 l/m 0,0 km/h (0 Bft) O 84 0 min 0,000 mm 0,0 UV-I 0 W/m 14,5 C 19,9 C 0,0 km/h (0 Bft) 97,37 %
07.07.2017 00:40 19,9 C 25,6 C 71 % 1014,8 hPa 0,0 l/m 0,0 km/h (0 Bft) O 84 0 min 0,000 mm 0,0 UV-I 0 W/m 14,5 C 19,9 C 0,0 km/h (0 Bft) 98,00 %
07.07.2017 00:42 19,8 C 25,6 C 71 % 1014,8 hPa 0,0 l/m 1,9 km/h (1 Bft) O 84 0 min 0,000 mm 0,0 UV-I 0 W/m 14,4 C 19,8 C 3,2 km/h (1 Bft) 98,11 %
07.07.2017 00:44 19,7 C 25,6 C 71 % 1014,8 hPa 0,0 l/m 0,4 km/h (0 Bft) O 84 0 min 0,000 mm 0,0 UV-I 0 W/m 14,3 C 19,7 C 1,6 km/h (1 Bft) 100,00 %
07.07.2017 00:46 19,7 C 25,6 C 71 % 1014,8 hPa 0,0 l/m 0,0 km/h (0 Bft) O 84 0 min 0,000 mm 0,0 UV-I 0 W/m 14,3 C 19,7 C 0,0 km/h (0 Bft) 100,00 %
07.07.2017 00:48 19,6 C 25,6 C 71 % 1014,8 hPa 0,0 l/m 0,0 km/h (0 Bft) O 84 0 min 0,000 mm 0,0 UV-I 0 W/m 14,2 C 19,6 C 0,0 km/h (0 Bft) 97,87 %
07.07.2017 00:50 19,6 C 25,6 C 72 % 1014,8 hPa 0,0 l/m 0,0 km/h (0 Bft) O 84 0 min 0,000 mm 0,0 UV-I 0 W/m 14,4 C 19,6 C 1,6 km/h (1 Bft) 100,00 %
07.07.2017 00:52 19,5 C 25,6 C 72 % 1014,8 hPa 0,0 l/m 1,3 km/h (1 Bft) O 84 0 min 0,000 mm 0,0 UV-I 0 W/m 14,3 C 19,5 C 1,6 km/h (1 Bft) 95,74 %
07.07.2017 00:54 19,5 C 25,0 C 73 % 1014,8 hPa 0,0 l/m 2,0 km/h (1 Bft) O 84 0 min 0,000 mm 0,0 UV-I 0 W/m 14,5 C 19,5 C 3,2 km/h (1 Bft) 100,00 %
07.07.2017 00:56 19,5 C 25,0 C 73 % 1014,9 hPa 0,0 l/m 2,6 km/h (1 Bft) O 84 0 min 0,000 mm 0,0 UV-I 0 W/m 14,5 C 19,5 C 3,2 km/h (1 Bft) 95,45 %
07.07.2017 00:58 19,4 C 25,0 C 73 % 1015,0 hPa 0,0 l/m 1,1 km/h (1 Bft) O 84 0 min 0,000 mm 0,0 UV-I 0 W/m 14,4 C 19,4 C 1,6 km/h (1 Bft) 100,00 %
07.07.2017 01:00 19,3 C 25,0 C 73 % 1015,1 hPa 0,0 l/m 0,0 km/h (0 Bft) O 84 0 min 0,025 mm 0,0 UV-I 0 W/m 14,3 C 19,3 C 0,0 km/h (0 Bft) 98,00 %
07.07.2017 01:02 19,2 C 25,6 C 73 % 1015,1 hPa 0,0 l/m 0,2 km/h (0 Bft) O 84 0 min 0,000 mm 0,0 UV-I 0 W/m 14,2 C 19,2 C 1,6 km/h (1 Bft) 98,00 %
07.07.2017 01:04 19,2 C 25,0 C 73 % 1015,0 hPa 0,0 l/m 0,7 km/h (0 Bft) O 84 0 min 0,000 mm 0,0 UV-I 0 W/m 14,2 C 19,2 C 1,6 km/h (1 Bft) 95,74 %
07.07.2017 01:06 19,1 C 25,0 C 73 % 1015,1 hPa 0,0 l/m 0,0 km/h (0 Bft) O 84 0 min 0,000 mm 0,0 UV-I 0 W/m 14,1 C 19,1 C 0,0 km/h (0 Bft) 97,87 %
07.07.2017 01:08 19,0 C 25,0 C 74 % 1015,0 hPa 0,0 l/m 0,6 km/h (0 Bft) O 84 0 min 0,000 mm 0,0 UV-I 0 W/m 14,3 C 19,0 C 3,2 km/h (1 Bft) 100,00 %
07.07.2017 01:10 18,9 C 25,0 C 74 % 1015,0 hPa 0,0 l/m 2,9 km/h (1 Bft) O 84 0 min 0,000 mm 0,0 UV-I 0 W/m 14,2 C 18,9 C 4,8 km/h (1 Bft) 98,00 %
07.07.2017 01:12 18,9 C 25,0 C 74 % 1015,0 hPa 0,0 l/m 1,7 km/h (1 Bft) O 84 0 min 0,000 mm 0,0 UV-I 0 W/m 14,2 C 18,9 C 4,8 km/h (1 Bft) 98,00 %
07.07.2017 01:14 18,9 C 25,0 C 74 % 1015,0 hPa 0,0 l/m 0,6 km/h (0 Bft) O 84 0 min 0,000 mm 0,0 UV-I 0 W/m 14,2 C 18,9 C 1,6 km/h (1 Bft) 97,87 %
07.07.2017 01:16 18,9 C 25,0 C 74 % 1015,0 hPa 0,0 l/m 1,1 km/h (1 Bft) O 84 0 min 0,000 mm 0,0 UV-I 0 W/m 14,2 C 18,9 C 3,2 km/h (1 Bft) 100,00 %
07.07.2017 01:18 18,8 C 25,0 C 74 % 1014,9 hPa 0,0 l/m 0,4 km/h (0 Bft) O 84 0 min 0,000 mm 0,0 UV-I 0 W/m 14,1 C 18,8 C 1,6 km/h (1 Bft) 95,74 %
07.07.2017 01:20 18,8 C 25,0 C 74 % 1014,9 hPa 0,0 l/m 0,0 km/h (0 Bft) O 84 0 min 0,000 mm 0,0 UV-I 0 W/m 14,1 C 18,8 C 0,0 km/h (0 Bft) 100,00 %
07.07.2017 01:22 18,8 C 25,0 C 73 % 1014,9 hPa 0,0 l/m 1,5 km/h (1 Bft) O 84 0 min 0,000 mm 0,0 UV-I 0 W/m 13,9 C 18,8 C 3,2 km/h (1 Bft) 98,00 %
07.07.2017 01:24 18,9 C 25,0 C 73 % 1014,9 hPa 0,0 l/m 1,7 km/h (1 Bft) O 84 0 min 0,000 mm 0,0 UV-I 0 W/m 13,9 C 18,9 C 3,2 km/h (1 Bft) 100,00 %
07.07.2017 01:26 19,1 C 25,0 C 72 % 1014,8 hPa 0,0 l/m 2,7 km/h (1 Bft) O 84 0 min 0,000 mm 0,0 UV-I 0 W/m 13,9 C 19,1 C 3,2 km/h (1 Bft) 93,62 %
07.07.2017 01:28 19,2 C 25,0 C 72 % 1014,8 hPa 0,0 l/m 2,6 km/h (1 Bft) O 84 0 min 0,000 mm 0,0 UV-I 0 W/m 14,0 C 19,2 C 3,2 km/h (1 Bft) 98,11 %
07.07.2017 01:30 19,3 C 25,0 C 71 % 1014,8 hPa 0,0 l/m 0,3 km/h (0 Bft) O 84 0 min 0,000 mm 0,0 UV-I 0 W/m 13,9 C 19,3 C 1,6 km/h (1 Bft) 100,00 %
07.07.2017 01:32 19,3 C 25,0 C 72 % 1014,9 hPa 0,0 l/m 0,0 km/h (0 Bft) O 84 0 min 0,000 mm 0,0 UV-I 0 W/m 14,1 C 19,3 C 0,0 km/h (0 Bft) 97,87 %
07.07.2017 01:34 19,2 C 25,0 C 72 % 1014,8 hPa 0,0 l/m 0,8 km/h (0 Bft) O 84 0 min 0,000 mm 0,0 UV-I 0 W/m 14,0 C 19,2 C 3,2 km/h (1 Bft) 100,00 %
07.07.2017 01:36 19,1 C 25,0 C 73 % 1014,8 hPa 0,0 l/m 0,7 km/h (0 Bft) O 84 0 min 0,000 mm 0,0 UV-I 0 W/m 14,1 C 19,1 C 3,2 km/h (1 Bft) 96,00 %
07.07.2017 01:38 18,9 C 25,0 C 73 % 1014,8 hPa 0,0 l/m 1,2 km/h (1 Bft) O 84 0 min 0,000 mm 0,0 UV-I 0 W/m 13,9 C 18,9 C 3,2 km/h (1 Bft) 96,00 %
07.07.2017 01:40 18,8 C 25,0 C 74 % 1014,9 hPa 0,0 l/m 0,0 km/h (0 Bft) O 84 0 min 0,000 mm 0,0 UV-I 0 W/m 14,1 C 18,8 C 1,6 km/h (1 Bft) 97,22 %
07.07.2017 01:42 18,7 C 25,0 C 74 % 1014,9 hPa 0,0 l/m 0,3 km/h (0 Bft) O 84 0 min 0,000 mm 0,0 UV-I 0 W/m 14,0 C 18,7 C 1,6 km/h (1 Bft) 98,18 %
07.07.2017 01:44 18,5 C 25,0 C 75 % 1014,9 hPa 0,0 l/m 0,0 km/h (0 Bft) O 84 0 min 0,000 mm 0,0 UV-I 0 W/m 14,0 C 18,5 C 1,6 km/h (1 Bft) 97,87 %
07.07.2017 01:46 18,4 C 25,0 C 75 % 1014,8 hPa 0,0 l/m 0,4 km/h (0 Bft) O 84 0 min 0,000 mm 0,0 UV-I 0 W/m 13,9 C 18,4 C 1,6 km/h (1 Bft) 96,00 %
07.07.2017 01:48 18,4 C 25,0 C 76 % 1014,8 hPa 0,0 l/m 1,3 km/h (1 Bft) O 84 0 min 0,000 mm 0,0 UV-I 0 W/m 14,1 C 18,4 C 3,2 km/h (1 Bft) 100,00 %
07.07.2017 01:50 18,3 C 25,0 C 76 % 1014,8 hPa 0,0 l/m 0,8 km/h (0 Bft) O 84 0 min 0,000 mm 0,0 UV-I 0 W/m 14,0 C 18,3 C 3,2 km/h (1 Bft) 95,18 %
07.07.2017 01:52 18,3 C 25,0 C 76 % 1014,8 hPa 0,0 l/m 0,3 km/h (0 Bft) O 84 0 min 0,000 mm 0,0 UV-I 0 W/m 14,0 C 18,3 C 1,6 km/h (1 Bft) 93,18 %
07.07.2017 01:54 18,3 C 25,0 C 77 % 1014,8 hPa 0,0 l/m 0,3 km/h (0 Bft) O 84 0 min 0,000 mm 0,0 UV-I 0 W/m 14,2 C 18,3 C 1,6 km/h (1 Bft) 95,74 %
07.07.2017 01:56 18,2 C 25,0 C 76 % 1014,8 hPa 0,0 l/m 0,0 km/h (0 Bft) O 84 0 min 0,000 mm 0,0 UV-I 0 W/m 13,9 C 18,2 C 0,0 km/h (0 Bft) 95,12 %
07.07.2017 01:58 18,2 C 25,0 C 76 % 1014,8 hPa 0,0 l/m 0,0 km/h (0 Bft) O 84 0 min 0,000 mm 0,0 UV-I 0 W/m 13,9 C 18,2 C 0,0 km/h (0 Bft) 94,00 %
07.07.2017 02:00 18,2 C 25,0 C 77 % 1014,7 hPa 0,0 l/m 0,0 km/h (0 Bft) O 84 0 min 0,000 mm 0,0 UV-I 0 W/m 14,1 C 18,2 C 0,0 km/h (0 Bft) 93,62 %
07.07.2017 02:02 18,2 C 25,0 C 77 % 1014,8 hPa 0,0 l/m 0,0 km/h (0 Bft) O 84 0 min 0,000 mm 0,0 UV-I 0 W/m 14,1 C 18,2 C 0,0 km/h (0 Bft) 94,00 %
07.07.2017 02:04 18,2 C 25,0 C 76 % 1014,8 hPa 0,0 l/m 0,0 km/h (0 Bft) O 84 0 min 0,000 mm 0,0 UV-I 0 W/m 13,9 C 18,2 C 0,0 km/h (0 Bft) 93,62 %
07.07.2017 02:06 18,2 C 25,0 C 76 % 1014,8 hPa 0,0 l/m 0,0 km/h (0 Bft) O 84 0 min 0,000 mm 0,0 UV-I 0 W/m 13,9 C 18,2 C 0,0 km/h (0 Bft) 92,68 %
07.07.2017 02:08 18,1 C 25,0 C 76 % 1014,8 hPa 0,0 l/m 0,8 km/h (0 Bft) O 84 0 min 0,000 mm 0,0 UV-I 0 W/m 13,8 C 18,1 C 1,6 km/h (1 Bft) 92,68 %
07.07.2017 02:10 18,1 C 25,0 C 76 % 1014,9 hPa 0,0 l/m 1,4 km/h (1 Bft) O 84 0 min 0,000 mm 0,0 UV-I 0 W/m 13,8 C 18,1 C 3,2 km/h (1 Bft) 92,00 %
07.07.2017 02:12 18,0 C 25,0 C 77 % 1014,9 hPa 0,0 l/m 3,3 km/h (1 Bft) O 88 0 min 0,000 mm 0,0 UV-I 0 W/m 13,9 C 18,0 C 4,8 km/h (1 Bft) 95,74 %
07.07.2017 02:14 17,9 C 25,0 C 77 % 1014,9 hPa 0,0 l/m 5,1 km/h (1 Bft) SO 132 0 min 0,000 mm 0,0 UV-I 0 W/m 13,8 C 17,9 C 6,4 km/h (2 Bft) 93,33 %
07.07.2017 02:16 17,9 C 25,0 C 77 % 1014,9 hPa 0,0 l/m 2,2 km/h (1 Bft) SO 132 0 min 0,000 mm 0,0 UV-I 0 W/m 13,8 C 17,9 C 4,8 km/h (1 Bft) 92,19 %
07.07.2017 02:18 17,9 C 25,0 C 77 % 1014,8 hPa 0,0 l/m 0,8 km/h (0 Bft) SO 132 0 min 0,000 mm 0,0 UV-I 0 W/m 13,8 C 17,9 C 3,2 km/h (1 Bft) 95,74 %
07.07.2017 02:20 17,8 C 25,0 C 77 % 1014,8 hPa 0,0 l/m 1,6 km/h (1 Bft) SO 132 0 min 0,000 mm 0,0 UV-I 0 W/m 13,7 C 17,8 C 3,2 km/h (1 Bft) 93,75 %
07.07.2017 02:22 17,8 C 25,0 C 77 % 1014,8 hPa 0,0 l/m 0,3 km/h (0 Bft) SO 132 0 min 0,000 mm 0,0 UV-I 0 W/m 13,7 C 17,8 C 1,6 km/h (1 Bft) 95,74 %
07.07.2017 02:24 17,7 C 25,0 C 77 % 1014,8 hPa 0,0 l/m 0,3 km/h (0 Bft) SO 132 0 min 0,000 mm 0,0 UV-I 0 W/m 13,6 C 17,7 C 1,6 km/h (1 Bft) 92,31 %
07.07.2017 02:26 17,6 C 25,0 C 77 % 1014,8 hPa 0,0 l/m 0,5 km/h (0 Bft) SO 132 0 min 0,000 mm 0,0 UV-I 0 W/m 13,5 C 17,6 C 1,6 km/h (1 Bft) 95,83 %
07.07.2017 02:28 17,6 C 25,0 C 77 % 1014,7 hPa 0,0 l/m 0,8 km/h (0 Bft) SO 132 0 min 0,000 mm 0,0 UV-I 0 W/m 13,5 C 17,6 C 3,2 km/h (1 Bft) 95,12 %
07.07.2017 02:30 17,6 C 25,0 C 77 % 1014,8 hPa 0,0 l/m 1,3 km/h (1 Bft) SO 132 0 min 0,000 mm 0,0 UV-I 0 W/m 13,5 C 17,6 C 3,2 km/h (1 Bft) 96,00 %
07.07.2017 02:32 17,6 C 25,0 C 78 % 1014,8 hPa 0,0 l/m 1,3 km/h (1 Bft) SO 132 0 min 0,000 mm 0,0 UV-I 0 W/m 13,7 C 17,6 C 3,2 km/h (1 Bft) 93,62 %
07.07.2017 02:34 17,6 C 25,0 C 78 % 1014,8 hPa 0,0 l/m 0,0 km/h (0 Bft) SO 132 0 min 0,000 mm 0,0 UV-I 0 W/m 13,7 C 17,6 C 0,0 km/h (0 Bft) 98,00 %
07.07.2017 02:36 17,7 C 25,0 C 77 % 1014,8 hPa 0,0 l/m 0,0 km/h (0 Bft) SO 132 0 min 0,000 mm 0,0 UV-I 0 W/m 13,6 C 17,7 C 1,6 km/h (1 Bft) 97,37 %
07.07.2017 02:38 17,8 C 25,0 C 77 % 1014,7 hPa 0,0 l/m 0,0 km/h (0 Bft) SO 132 0 min 0,000 mm 0,0 UV-I 0 W/m 13,7 C 17,8 C 0,0 km/h (0 Bft) 98,00 %
07.07.2017 02:40 17,8 C 25,0 C 77 % 1014,8 hPa 0,0 l/m 0,8 km/h (0 Bft) SO 132 0 min 0,000 mm 0,0 UV-I 0 W/m 13,7 C 17,8 C 3,2 km/h (1 Bft) 96,23 %
07.07.2017 02:42 17,7 C 25,0 C 77 % 1014,8 hPa 0,0 l/m 1,3 km/h (1 Bft) SO 132 0 min 0,000 mm 0,0 UV-I 0 W/m 13,6 C 17,7 C 3,2 km/h (1 Bft) 96,15 %
07.07.2017 02:44 17,6 C 25,0 C 78 % 1014,8 hPa 0,0 l/m 0,4 km/h (0 Bft) SO 132 0 min 0,000 mm 0,0 UV-I 0 W/m 13,7 C 17,6 C 1,6 km/h (1 Bft) 96,92 %
07.07.2017 02:46 17,6 C 25,0 C 78 % 1014,8 hPa 0,0 l/m 0,3 km/h (0 Bft) SO 132 0 min 0,000 mm 0,0 UV-I 0 W/m 13,7 C 17,6 C 1,6 km/h (1 Bft) 98,00 %
07.07.2017 02:48 17,6 C 25,0 C 78 % 1014,7 hPa 0,0 l/m 0,2 km/h (0 Bft) SO 132 0 min 0,000 mm 0,0 UV-I 0 W/m 13,7 C 17,6 C 1,6 km/h (1 Bft) 94,74 %
07.07.2017 02:50 17,6 C 25,0 C 78 % 1014,8 hPa 0,0 l/m 0,0 km/h (0 Bft) SO 132 0 min 0,000 mm 0,0 UV-I 0 W/m 13,7 C 17,6 C 0,0 km/h (0 Bft) 98,11 %
07.07.2017 02:52 17,6 C 25,0 C 78 % 1014,8 hPa 0,0 l/m 0,0 km/h (0 Bft) SO 132 0 min 0,000 mm 0,0 UV-I 0 W/m 13,7 C 17,6 C 0,0 km/h (0 Bft) 100,00 %
07.07.2017 02:54 17,6 C 25,0 C 78 % 1014,7 hPa 0,0 l/m 0,0 km/h (0 Bft) SO 132 0 min 0,000 mm 0,0 UV-I 0 W/m 13,7 C 17,6 C 0,0 km/h (0 Bft) 100,00 %
07.07.2017 02:56 17,5 C 25,0 C 79 % 1014,7 hPa 0,0 l/m 0,0 km/h (0 Bft) SO 132 0 min 0,000 mm 0,0 UV-I 0 W/m 13,8 C 17,5 C 0,0 km/h (0 Bft) 100,00 %
07.07.2017 02:58 17,5 C 25,0 C 79 % 1014,7 hPa 0,0 l/m 0,0 km/h (0 Bft) SO 132 0 min 0,000 mm 0,0 UV-I 0 W/m 13,8 C 17,5 C 0,0 km/h (0 Bft) 100,00 %
07.07.2017 03:00 17,5 C 25,0 C 79 % 1014,6 hPa 0,0 l/m 0,0 km/h (0 Bft) SO 132 0 min 0,000 mm 0,0 UV-I 0 W/m 13,8 C 17,5 C 0,0 km/h (0 Bft) 100,00 %
07.07.2017 03:02 17,4 C 25,0 C 79 % 1014,6 hPa 0,0 l/m 0,0 km/h (0 Bft) SO 132 0 min 0,000 mm 0,0 UV-I 0 W/m 13,7 C 17,4 C 0,0 km/h (0 Bft) 98,00 %
07.07.2017 03:04 17,3 C 25,0 C 79 % 1014,7 hPa 0,0 l/m 0,0 km/h (0 Bft) SO 132 0 min 0,000 mm 0,0 UV-I 0 W/m 13,6 C 17,3 C 0,0 km/h (0 Bft) 97,87 %
07.07.2017 03:06 17,2 C 25,0 C 80 % 1014,7 hPa 0,0 l/m 0,0 km/h (0 Bft) SO 132 0 min 0,000 mm 0,0 UV-I 0 W/m 13,7 C 17,2 C 0,0 km/h (0 Bft) 97,87 %
07.07.2017 03:08 17,2 C 25,0 C 80 % 1014,6 hPa 0,0 l/m 0,0 km/h (0 Bft) SO 132 0 min 0,000 mm 0,0 UV-I 0 W/m 13,7 C 17,2 C 0,0 km/h (0 Bft) 96,23 %
07.07.2017 03:10 17,2 C 25,0 C 80 % 1014,6 hPa 0,0 l/m 0,0 km/h (0 Bft) SO 132 0 min 0,000 mm 0,0 UV-I 0 W/m 13,7 C 17,2 C 0,0 km/h (0 Bft) 100,00 %
07.07.2017 03:12 17,3 C 25,0 C 80 % 1014,6 hPa 0,0 l/m 0,0 km/h (0 Bft) SO 132 0 min 0,000 mm 0,0 UV-I 0 W/m 13,8 C 17,3 C 0,0 km/h (0 Bft) 97,87 %
07.07.2017 03:14 17,3 C 25,0 C 80 % 1014,6 hPa 0,0 l/m 0,5 km/h (0 Bft) SO 132 0 min 0,000 mm 0,0 UV-I 0 W/m 13,8 C 17,3 C 3,2 km/h (1 Bft) 98,00 %
07.07.2017 03:16 17,3 C 25,0 C 79 % 1014,6 hPa 0,0 l/m 1,8 km/h (1 Bft) SO 132 0 min 0,000 mm 0,0 UV-I 0 W/m 13,6 C 17,3 C 3,2 km/h (1 Bft) 100,00 %
07.07.2017 03:18 17,3 C 25,0 C 80 % 1014,6 hPa 0,0 l/m 0,4 km/h (0 Bft) SO 132 0 min 0,000 mm 0,0 UV-I 0 W/m 13,8 C 17,3 C 3,2 km/h (1 Bft) 98,00 %
07.07.2017 03:20 17,3 C 25,0 C 79 % 1014,6 hPa 0,0 l/m 2,0 km/h (1 Bft) SO 132 0 min 0,000 mm 0,0 UV-I 0 W/m 13,6 C 17,3 C 3,2 km/h (1 Bft) 98,11 %
07.07.2017 03:22 17,3 C 25,0 C 80 % 1014,5 hPa 0,0 l/m 0,5 km/h (0 Bft) SO 132 0 min 0,000 mm 0,0 UV-I 0 W/m 13,8 C 17,3 C 1,6 km/h (1 Bft) 100,00 %
07.07.2017 03:24 17,2 C 25,0 C 80 % 1014,5 hPa 0,0 l/m 2,5 km/h (1 Bft) SO 132 0 min 0,000 mm 0,0 UV-I 0 W/m 13,7 C 17,2 C 4,8 km/h (1 Bft) 96,77 %
07.07.2017 03:26 17,1 C 25,0 C 80 % 1014,4 hPa 0,0 l/m 2,8 km/h (1 Bft) SO 132 0 min 0,000 mm 0,0 UV-I 0 W/m 13,6 C 17,1 C 4,8 km/h (1 Bft) 100,00 %
07.07.2017 03:28 17,0 C 25,0 C 80 % 1014,4 hPa 0,0 l/m 2,7 km/h (1 Bft) SO 132 0 min 0,000 mm 0,0 UV-I 0 W/m 13,5 C 17,0 C 3,2 km/h (1 Bft) 98,00 %
07.07.2017 03:30 17,0 C 25,0 C 80 % 1014,4 hPa 0,0 l/m 2,8 km/h (1 Bft) SO 132 0 min 0,000 mm 0,0 UV-I 0 W/m 13,5 C 17,0 C 3,2 km/h (1 Bft) 97,37 %
07.07.2017 03:32 17,0 C 25,0 C 80 % 1014,4 hPa 0,0 l/m 0,5 km/h (0 Bft) SO 132 0 min 0,000 mm 0,0 UV-I 0 W/m 13,5 C 17,0 C 1,6 km/h (1 Bft) 100,00 %
07.07.2017 03:34 16,9 C 25,0 C 81 % 1014,4 hPa 0,0 l/m 1,6 km/h (1 Bft) SO 132 0 min 0,000 mm 0,0 UV-I 0 W/m 13,6 C 16,9 C 3,2 km/h (1 Bft) 96,23 %
07.07.2017 03:36 17,0 C 25,0 C 81 % 1014,4 hPa 0,0 l/m 2,6 km/h (1 Bft) SO 132 0 min 0,000 mm 0,0 UV-I 0 W/m 13,7 C 17,0 C 4,8 km/h (1 Bft) 100,00 %
07.07.2017 03:38 17,1 C 25,0 C 80 % 1014,5 hPa 0,0 l/m 2,5 km/h (1 Bft) SO 132 0 min 0,000 mm 0,0 UV-I 0 W/m 13,6 C 17,1 C 3,2 km/h (1 Bft) 100,00 %
07.07.2017 03:40 17,1 C 25,0 C 80 % 1014,5 hPa 0,0 l/m 3,9 km/h (1 Bft) SO 132 0 min 0,000 mm 0,0 UV-I 0 W/m 13,6 C 17,1 C 4,8 km/h (1 Bft) 98,00 %
07.07.2017 03:42 17,1 C 25,0 C 80 % 1014,5 hPa 0,0 l/m 2,6 km/h (1 Bft) SO 132 0 min 0,000 mm 0,0 UV-I 0 W/m 13,6 C 17,1 C 4,8 km/h (1 Bft) 97,96 %
07.07.2017 03:44 17,1 C 25,0 C 80 % 1014,5 hPa 0,0 l/m 3,0 km/h (1 Bft) SO 132 0 min 0,000 mm 0,0 UV-I 0 W/m 13,6 C 17,1 C 4,8 km/h (1 Bft) 100,00 %
07.07.2017 03:46 17,0 C 25,0 C 80 % 1014,4 hPa 0,0 l/m 1,9 km/h (1 Bft) SO 132 0 min 0,000 mm 0,0 UV-I 0 W/m 13,5 C 17,0 C 3,2 km/h (1 Bft) 98,11 %
07.07.2017 03:48 17,0 C 25,0 C 80 % 1014,4 hPa 0,0 l/m 0,7 km/h (0 Bft) SO 132 0 min 0,000 mm 0,0 UV-I 0 W/m 13,5 C 17,0 C 1,6 km/h (1 Bft) 97,37 %
07.07.2017 03:50 16,9 C 25,0 C 80 % 1014,4 hPa 0,0 l/m 0,1 km/h (0 Bft) SO 132 0 min 0,000 mm 0,0 UV-I 0 W/m 13,4 C 16,9 C 1,6 km/h (1 Bft) 100,00 %
07.07.2017 03:52 16,8 C 25,0 C 81 % 1014,4 hPa 0,0 l/m 0,6 km/h (0 Bft) SO 132 0 min 0,000 mm 0,0 UV-I 0 W/m 13,5 C 16,8 C 1,6 km/h (1 Bft) 98,00 %
07.07.2017 03:54 16,8 C 25,0 C 81 % 1014,4 hPa 0,0 l/m 0,4 km/h (0 Bft) SO 132 0 min 0,000 mm 0,0 UV-I 0 W/m 13,5 C 16,8 C 1,6 km/h (1 Bft) 100,00 %
07.07.2017 03:56 16,8 C 25,0 C 81 % 1014,3 hPa 0,0 l/m 2,2 km/h (1 Bft) SO 132 0 min 0,000 mm 0,0 UV-I 0 W/m 13,5 C 16,8 C 3,2 km/h (1 Bft) 98,11 %
07.07.2017 03:58 16,9 C 25,0 C 81 % 1014,3 hPa 0,0 l/m 0,6 km/h (0 Bft) SO 132 0 min 0,000 mm 0,0 UV-I 0 W/m 13,6 C 16,9 C 1,6 km/h (1 Bft) 94,00 %
07.07.2017 04:00 16,9 C 25,0 C 81 % 1014,3 hPa 0,0 l/m 0,8 km/h (0 Bft) SO 132 0 min 0,000 mm 0,0 UV-I 0 W/m 13,6 C 16,9 C 1,6 km/h (1 Bft) 97,87 %
07.07.2017 04:02 17,0 C 25,0 C 80 % 1014,3 hPa 0,0 l/m 0,1 km/h (0 Bft) SO 132 0 min 0,000 mm 0,0 UV-I 0 W/m 13,5 C 17,0 C 1,6 km/h (1 Bft) 95,35 %
07.07.2017 04:04 17,0 C 25,0 C 80 % 1014,3 hPa 0,0 l/m 0,0 km/h (0 Bft) SO 132 0 min 0,000 mm 0,0 UV-I 0 W/m 13,5 C 17,0 C 0,0 km/h (0 Bft) 97,14 %
07.07.2017 04:06 17,0 C 25,0 C 80 % 1014,3 hPa 0,0 l/m 0,0 km/h (0 Bft) SO 132 0 min 0,000 mm 0,0 UV-I 0 W/m 13,5 C 17,0 C 0,0 km/h (0 Bft) 93,62 %
07.07.2017 04:08 17,0 C 25,0 C 80 % 1014,2 hPa 0,0 l/m 0,0 km/h (0 Bft) SO 132 0 min 0,000 mm 0,0 UV-I 0 W/m 13,5 C 17,0 C 0,0 km/h (0 Bft) 98,11 %
07.07.2017 04:10 17,0 C 25,0 C 80 % 1014,2 hPa 0,0 l/m 0,0 km/h (0 Bft) SO 132 0 min 0,000 mm 0,0 UV-I 0 W/m 13,5 C 17,0 C 0,0 km/h (0 Bft) 96,00 %
07.07.2017 04:12 16,9 C 25,0 C 80 % 1014,2 hPa 0,0 l/m 0,0 km/h (0 Bft) SO 132 0 min 0,000 mm 0,0 UV-I 0 W/m 13,4 C 16,9 C 1,6 km/h (1 Bft) 97,37 %
07.07.2017 04:14 16,9 C 25,0 C 80 % 1014,2 hPa 0,0 l/m 2,1 km/h (1 Bft) SO 132 0 min 0,000 mm 0,0 UV-I 0 W/m 13,4 C 16,9 C 3,2 km/h (1 Bft) 93,33 %
07.07.2017 04:16 16,8 C 25,0 C 80 % 1014,1 hPa 0,0 l/m 3,1 km/h (1 Bft) SO 132 0 min 0,000 mm 0,0 UV-I 0 W/m 13,3 C 16,8 C 3,2 km/h (1 Bft) 97,56 %
07.07.2017 04:18 16,7 C 25,0 C 80 % 1014,1 hPa 0,0 l/m 2,5 km/h (1 Bft) SO 132 0 min 0,000 mm 0,0 UV-I 0 W/m 13,2 C 16,7 C 3,2 km/h (1 Bft) 98,00 %
07.07.2017 04:20 16,7 C 25,0 C 81 % 1014,1 hPa 0,0 l/m 1,8 km/h (1 Bft) SO 132 0 min 0,000 mm 0,0 UV-I 0 W/m 13,4 C 16,7 C 3,2 km/h (1 Bft) 100,00 %
07.07.2017 04:22 16,7 C 25,0 C 81 % 1014,1 hPa 0,0 l/m 0,4 km/h (0 Bft) SO 132 0 min 0,000 mm 0,0 UV-I 0 W/m 13,4 C 16,7 C 1,6 km/h (1 Bft) 95,38 %
07.07.2017 04:24 16,7 C 25,0 C 81 % 1014,1 hPa 0,0 l/m 0,1 km/h (0 Bft) SO 132 0 min 0,000 mm 0,0 UV-I 0 W/m 13,4 C 16,7 C 1,6 km/h (1 Bft) 98,00 %
07.07.2017 04:26 16,8 C 25,0 C 81 % 1014,2 hPa 0,0 l/m 1,8 km/h (1 Bft) SO 132 0 min 0,000 mm 0,0 UV-I 0 W/m 13,5 C 16,8 C 3,2 km/h (1 Bft) 96,00 %
07.07.2017 04:28 16,8 C 25,0 C 80 % 1014,2 hPa 0,0 l/m 1,2 km/h (1 Bft) SO 132 0 min 0,000 mm 0,0 UV-I 0 W/m 13,3 C 16,8 C 3,2 km/h (1 Bft) 97,56 %
07.07.2017 04:30 16,7 C 25,0 C 80 % 1014,1 hPa 0,0 l/m 0,0 km/h (0 Bft) SO 132 0 min 0,000 mm 0,0 UV-I 0 W/m 13,2 C 16,7 C 0,0 km/h (0 Bft) 95,74 %
07.07.2017 04:32 16,7 C 25,0 C 80 % 1014,1 hPa 0,0 l/m 0,0 km/h (0 Bft) SO 132 0 min 0,000 mm 0,0 UV-I 0 W/m 13,2 C 16,7 C 0,0 km/h (0 Bft) 98,00 %
07.07.2017 04:34 16,6 C 25,0 C 81 % 1014,2 hPa 0,0 l/m 0,0 km/h (0 Bft) SO 132 0 min 0,000 mm 0,0 UV-I 0 W/m 13,3 C 16,6 C 0,0 km/h (0 Bft) 100,00 %
07.07.2017 04:36 16,6 C 25,0 C 81 % 1014,2 hPa 0,0 l/m 0,0 km/h (0 Bft) SO 132 0 min 0,000 mm 0,0 UV-I 0 W/m 13,3 C 16,6 C 0,0 km/h (0 Bft) 94,74 %
07.07.2017 04:38 16,5 C 25,0 C 81 % 1014,2 hPa 0,0 l/m 0,0 km/h (0 Bft) SO 132 0 min 0,000 mm 0,0 UV-I 0 W/m 13,2 C 16,5 C 0,0 km/h (0 Bft) 98,11 %
07.07.2017 04:40 16,5 C 25,0 C 82 % 1014,2 hPa 0,0 l/m 0,6 km/h (0 Bft) SO 132 0 min 0,000 mm 0,0 UV-I 0 W/m 13,4 C 16,5 C 1,6 km/h (1 Bft) 100,00 %
07.07.2017 04:42 16,5 C 25,0 C 82 % 1014,2 hPa 0,0 l/m 2,3 km/h (1 Bft) SO 132 0 min 0,000 mm 0,0 UV-I 0 W/m 13,4 C 16,5 C 3,2 km/h (1 Bft) 97,87 %
07.07.2017 04:44 16,4 C 25,0 C 82 % 1014,3 hPa 0,0 l/m 2,1 km/h (1 Bft) SO 132 0 min 0,000 mm 0,0 UV-I 0 W/m 13,3 C 16,4 C 3,2 km/h (1 Bft) 100,00 %
07.07.2017 04:46 16,5 C 25,0 C 82 % 1014,2 hPa 0,0 l/m 2,0 km/h (1 Bft) SO 132 0 min 0,000 mm 0,0 UV-I 0 W/m 13,4 C 16,5 C 3,2 km/h (1 Bft) 97,56 %
07.07.2017 04:48 16,5 C 25,0 C 82 % 1014,2 hPa 0,0 l/m 2,2 km/h (1 Bft) SO 132 0 min 0,000 mm 0,0 UV-I 0 W/m 13,4 C 16,5 C 3,2 km/h (1 Bft) 96,43 %
07.07.2017 04:50 16,5 C 25,0 C 82 % 1014,2 hPa 0,0 l/m 2,5 km/h (1 Bft) SO 132 0 min 0,000 mm 0,0 UV-I 0 W/m 13,4 C 16,5 C 3,2 km/h (1 Bft) 98,00 %
07.07.2017 04:52 16,4 C 25,0 C 82 % 1014,2 hPa 0,0 l/m 3,6 km/h (1 Bft) SO 132 0 min 0,000 mm 0,0 UV-I 0 W/m 13,3 C 16,4 C 4,8 km/h (1 Bft) 97,37 %
07.07.2017 04:54 16,4 C 25,0 C 82 % 1014,2 hPa 0,0 l/m 2,6 km/h (1 Bft) SO 132 0 min 0,000 mm 0,0 UV-I 0 W/m 13,3 C 16,4 C 3,2 km/h (1 Bft) 100,00 %
07.07.2017 04:56 16,4 C 25,0 C 81 % 1014,1 hPa 0,0 l/m 3,5 km/h (1 Bft) SO 132 0 min 0,000 mm 0,0 UV-I 0 W/m 13,1 C 16,4 C 4,8 km/h (1 Bft) 100,00 %
07.07.2017 04:58 16,3 C 25,0 C 81 % 1014,1 hPa 0,0 l/m 2,0 km/h (1 Bft) SO 132 0 min 0,000 mm 0,0 UV-I 0 W/m 13,0 C 16,3 C 3,2 km/h (1 Bft) 97,22 %
07.07.2017 05:00 16,3 C 25,0 C 81 % 1014,2 hPa 0,0 l/m 1,8 km/h (1 Bft) SO 132 0 min 0,000 mm 0,0 UV-I 3 W/m 13,0 C 16,3 C 3,2 km/h (1 Bft) 100,00 %
07.07.2017 05:02 16,2 C 25,0 C 82 % 1014,1 hPa 0,0 l/m 1,1 km/h (1 Bft) SO 132 0 min 0,000 mm 0,0 UV-I 5 W/m 13,1 C 16,2 C 1,6 km/h (1 Bft) 97,87 %
07.07.2017 05:04 16,2 C 25,0 C 82 % 1014,1 hPa 0,0 l/m 1,9 km/h (1 Bft) SO 132 0 min 0,000 mm 0,0 UV-I 5 W/m 13,1 C 16,2 C 3,2 km/h (1 Bft) 100,00 %
07.07.2017 05:06 16,2 C 25,0 C 82 % 1014,1 hPa 0,0 l/m 1,8 km/h (1 Bft) SO 132 0 min 0,000 mm 0,0 UV-I 5 W/m 13,1 C 16,2 C 3,2 km/h (1 Bft) 100,00 %
07.07.2017 05:08 16,2 C 25,0 C 82 % 1014,1 hPa 0,0 l/m 2,9 km/h (1 Bft) SO 132 0 min 0,000 mm 0,0 UV-I 5 W/m 13,1 C 16,2 C 3,2 km/h (1 Bft) 100,00 %
07.07.2017 05:10 16,2 C 25,0 C 82 % 1014,2 hPa 0,0 l/m 2,8 km/h (1 Bft) SO 132 0 min 0,000 mm 0,0 UV-I 6 W/m 13,1 C 16,2 C 4,8 km/h (1 Bft) 100,00 %
07.07.2017 05:12 16,2 C 25,0 C 82 % 1014,2 hPa 0,0 l/m 3,7 km/h (1 Bft) SO 134 0 min 0,000 mm 0,0 UV-I 7 W/m 13,1 C 16,2 C 4,8 km/h (1 Bft) 100,00 %
07.07.2017 05:14 16,2 C 25,0 C 83 % 1014,2 hPa 0,0 l/m 3,2 km/h (1 Bft) SO 136 0 min 0,000 mm 0,0 UV-I 7 W/m 13,3 C 16,2 C 4,8 km/h (1 Bft) 97,56 %
07.07.2017 05:16 16,2 C 25,0 C 83 % 1014,2 hPa 0,0 l/m 3,0 km/h (1 Bft) SO 136 0 min 0,000 mm 0,0 UV-I 8 W/m 13,3 C 16,2 C 4,8 km/h (1 Bft) 100,00 %
07.07.2017 05:18 16,2 C 25,0 C 83 % 1014,2 hPa 0,0 l/m 2,7 km/h (1 Bft) SO 136 0 min 0,000 mm 0,0 UV-I 9 W/m 13,3 C 16,2 C 3,2 km/h (1 Bft) 96,23 %
07.07.2017 05:20 16,2 C 25,0 C 83 % 1014,3 hPa 0,0 l/m 2,4 km/h (1 Bft) SO 136 0 min 0,000 mm 0,0 UV-I 12 W/m 13,3 C 16,2 C 4,8 km/h (1 Bft) 97,37 %
07.07.2017 05:22 16,2 C 25,0 C 83 % 1014,3 hPa 0,0 l/m 1,4 km/h (1 Bft) SO 136 0 min 0,000 mm 0,0 UV-I 14 W/m 13,3 C 16,2 C 3,2 km/h (1 Bft) 96,23 %
07.07.2017 05:24 16,3 C 25,0 C 82 % 1014,3 hPa 0,0 l/m 0,3 km/h (0 Bft) SO 136 0 min 0,000 mm 0,0 UV-I 16 W/m 13,2 C 16,3 C 1,6 km/h (1 Bft) 98,11 %
07.07.2017 05:26 16,2 C 24,4 C 82 % 1014,3 hPa 0,0 l/m 1,7 km/h (1 Bft) SO 136 2 min 0,000 mm 0,0 UV-I 18 W/m 13,1 C 16,2 C 3,2 km/h (1 Bft) 94,29 %
07.07.2017 05:28 16,2 C 25,0 C 82 % 1014,3 hPa 0,0 l/m 2,3 km/h (1 Bft) SO 136 2 min 0,000 mm 0,0 UV-I 20 W/m 13,1 C 16,2 C 3,2 km/h (1 Bft) 98,00 %
07.07.2017 05:30 16,3 C 24,4 C 82 % 1014,3 hPa 0,0 l/m 2,3 km/h (1 Bft) SO 136 2 min 0,000 mm 0,0 UV-I 22 W/m 13,2 C 16,3 C 3,2 km/h (1 Bft) 95,12 %
07.07.2017 05:32 16,4 C 24,4 C 82 % 1014,3 hPa 0,0 l/m 2,2 km/h (1 Bft) SO 136 2 min 0,000 mm 0,0 UV-I 24 W/m 13,3 C 16,4 C 3,2 km/h (1 Bft) 96,23 %
07.07.2017 05:34 16,5 C 24,4 C 82 % 1014,2 hPa 0,0 l/m 0,9 km/h (0 Bft) SO 136 2 min 0,000 mm 0,0 UV-I 27 W/m 13,4 C 16,5 C 1,6 km/h (1 Bft) 94,34 %
07.07.2017 05:36 16,6 C 25,0 C 82 % 1014,2 hPa 0,0 l/m 0,3 km/h (0 Bft) SO 136 2 min 0,000 mm 0,0 UV-I 30 W/m 13,5 C 16,6 C 1,6 km/h (1 Bft) 97,44 %
07.07.2017 05:38 16,7 C 25,0 C 81 % 1014,2 hPa 0,0 l/m 0,9 km/h (0 Bft) SO 136 2 min 0,000 mm 0,0 UV-I 33 W/m 13,4 C 16,7 C 1,6 km/h (1 Bft) 96,15 %
07.07.2017 05:40 16,7 C 24,4 C 81 % 1014,3 hPa 0,0 l/m 2,0 km/h (1 Bft) SO 136 2 min 0,000 mm 0,0 UV-I 34 W/m 13,4 C 16,7 C 3,2 km/h (1 Bft) 94,00 %
07.07.2017 05:42 16,8 C 24,4 C 81 % 1014,2 hPa 0,0 l/m 0,2 km/h (0 Bft) SO 136 2 min 0,000 mm 0,0 UV-I 39 W/m 13,5 C 16,8 C 1,6 km/h (1 Bft) 95,83 %
07.07.2017 05:44 16,9 C 24,4 C 80 % 1014,2 hPa 0,0 l/m 0,8 km/h (0 Bft) SO 136 2 min 0,000 mm 0,0 UV-I 42 W/m 13,4 C 16,9 C 1,6 km/h (1 Bft) 97,37 %
07.07.2017 05:46 17,0 C 24,4 C 80 % 1014,3 hPa 0,0 l/m 0,8 km/h (0 Bft) SO 136 2 min 0,000 mm 0,0 UV-I 44 W/m 13,5 C 17,0 C 1,6 km/h (1 Bft) 94,00 %
07.07.2017 05:48 17,1 C 24,4 C 79 % 1014,3 hPa 0,0 l/m 0,0 km/h (0 Bft) SO 136 2 min 0,000 mm 0,0 UV-I 45 W/m 13,4 C 17,1 C 0,0 km/h (0 Bft) 98,00 %
07.07.2017 05:50 17,2 C 24,4 C 79 % 1014,3 hPa 0,0 l/m 0,0 km/h (0 Bft) SO 136 2 min 0,000 mm 0,0 UV-I 48 W/m 13,5 C 17,2 C 0,0 km/h (0 Bft) 95,74 %
07.07.2017 05:52 17,3 C 24,4 C 79 % 1014,4 hPa 0,0 l/m 0,6 km/h (0 Bft) SO 136 2 min 0,000 mm 0,0 UV-I 50 W/m 13,6 C 17,3 C 1,6 km/h (1 Bft) 97,87 %
07.07.2017 05:54 17,2 C 24,4 C 79 % 1014,4 hPa 0,0 l/m 0,9 km/h (0 Bft) SO 136 2 min 0,000 mm 0,0 UV-I 52 W/m 13,5 C 17,2 C 1,6 km/h (1 Bft) 96,00 %
07.07.2017 05:56 17,1 C 24,4 C 79 % 1014,4 hPa 0,0 l/m 2,2 km/h (1 Bft) SO 136 2 min 0,000 mm 0,0 UV-I 55 W/m 13,4 C 17,1 C 3,2 km/h (1 Bft) 94,29 %
07.07.2017 05:58 16,9 C 24,4 C 79 % 1014,3 hPa 0,0 l/m 0,1 km/h (0 Bft) SO 136 2 min 0,000 mm 0,0 UV-I 58 W/m 13,2 C 16,9 C 1,6 km/h (1 Bft) 98,00 %
07.07.2017 06:00 16,9 C 24,4 C 80 % 1014,4 hPa 0,0 l/m 0,0 km/h (0 Bft) SO 136 2 min 0,026 mm 0,0 UV-I 61 W/m 13,4 C 16,9 C 0,0 km/h (0 Bft) 94,34 %
07.07.2017 06:02 16,8 C 24,4 C 80 % 1014,3 hPa 0,0 l/m 0,2 km/h (0 Bft) SO 136 2 min 0,000 mm 0,0 UV-I 62 W/m 13,3 C 16,8 C 1,6 km/h (1 Bft) 93,62 %
07.07.2017 06:04 16,9 C 24,4 C 80 % 1014,3 hPa 0,0 l/m 1,5 km/h (1 Bft) SO 136 2 min 0,000 mm 0,0 UV-I 64 W/m 13,4 C 16,9 C 3,2 km/h (1 Bft) 94,74 %
07.07.2017 06:06 16,8 C 24,4 C 80 % 1014,3 hPa 0,0 l/m 0,0 km/h (0 Bft) SO 136 2 min 0,000 mm 0,0 UV-I 68 W/m 13,3 C 16,8 C 0,0 km/h (0 Bft) 94,00 %
07.07.2017 06:08 16,9 C 24,4 C 80 % 1014,4 hPa 0,0 l/m 0,0 km/h (0 Bft) SO 136 2 min 0,000 mm 0,0 UV-I 69 W/m 13,4 C 16,9 C 0,0 km/h (0 Bft) 95,74 %
07.07.2017 06:10 16,9 C 24,4 C 81 % 1014,4 hPa 0,0 l/m 0,0 km/h (0 Bft) SO 136 0 min 0,000 mm 0,0 UV-I 69 W/m 13,6 C 16,9 C 1,6 km/h (1 Bft) 96,00 %
07.07.2017 06:12 17,1 C 24,4 C 80 % 1014,4 hPa 0,0 l/m 0,0 km/h (0 Bft) SO 136 0 min 0,000 mm 0,0 UV-I 55 W/m 13,6 C 17,1 C 0,0 km/h (0 Bft) 92,68 %
07.07.2017 06:14 17,1 C 24,4 C 80 % 1014,5 hPa 0,0 l/m 0,0 km/h (0 Bft) SO 136 0 min 0,000 mm 0,0 UV-I 37 W/m 13,6 C 17,1 C 0,0 km/h (0 Bft) 93,75 %
07.07.2017 06:16 17,2 C 24,4 C 80 % 1014,4 hPa 0,0 l/m 0,0 km/h (0 Bft) SO 136 0 min 0,000 mm 0,0 UV-I 40 W/m 13,7 C 17,2 C 0,0 km/h (0 Bft) 94,23 %
07.07.2017 06:18 17,2 C 24,4 C 80 % 1014,3 hPa 0,0 l/m 0,1 km/h (0 Bft) SO 136 0 min 0,000 mm 0,0 UV-I 46 W/m 13,7 C 17,2 C 1,6 km/h (1 Bft) 96,00 %
07.07.2017 06:20 17,1 C 24,4 C 80 % 1014,4 hPa 0,0 l/m 0,3 km/h (0 Bft) SO 136 0 min 0,000 mm 0,0 UV-I 69 W/m 13,6 C 17,1 C 1,6 km/h (1 Bft) 95,56 %
07.07.2017 06:22 17,0 C 24,4 C 81 % 1014,4 hPa 0,0 l/m 0,0 km/h (0 Bft) SO 136 2 min 0,000 mm 0,0 UV-I 92 W/m 13,7 C 17,0 C 0,0 km/h (0 Bft) 97,92 %
07.07.2017 06:24 17,1 C 24,4 C 81 % 1014,4 hPa 0,0 l/m 0,0 km/h (0 Bft) SO 136 2 min 0,000 mm 0,0 UV-I 96 W/m 13,8 C 17,1 C 0,0 km/h (0 Bft) 97,37 %
07.07.2017 06:26 17,1 C 24,4 C 81 % 1014,4 hPa 0,0 l/m 0,4 km/h (0 Bft) SO 136 0 min 0,000 mm 0,0 UV-I 76 W/m 13,8 C 17,1 C 3,2 km/h (1 Bft) 98,21 %
07.07.2017 06:28 17,3 C 24,4 C 80 % 1014,3 hPa 0,0 l/m 0,9 km/h (0 Bft) SO 136 0 min 0,000 mm 0,0 UV-I 65 W/m 13,8 C 17,3 C 3,2 km/h (1 Bft) 97,87 %
07.07.2017 06:30 17,5 C 24,4 C 80 % 1014,3 hPa 0,0 l/m 0,8 km/h (0 Bft) SO 136 0 min 0,000 mm 0,0 UV-I 67 W/m 14,0 C 17,5 C 1,6 km/h (1 Bft) 95,74 %
07.07.2017 06:32 17,7 C 24,4 C 79 % 1014,4 hPa 0,0 l/m 0,0 km/h (0 Bft) SO 136 0 min 0,000 mm 0,0 UV-I 71 W/m 14,0 C 17,7 C 0,0 km/h (0 Bft) 100,00 %
07.07.2017 06:34 17,8 C 24,4 C 78 % 1014,2 hPa 0,0 l/m 0,9 km/h (0 Bft) SO 136 0 min 0,000 mm 0,0 UV-I 79 W/m 13,9 C 17,8 C 3,2 km/h (1 Bft) 94,34 %
07.07.2017 06:36 17,9 C 24,4 C 78 % 1014,3 hPa 0,0 l/m 0,9 km/h (0 Bft) SO 136 0 min 0,000 mm 0,0 UV-I 89 W/m 14,0 C 17,9 C 3,2 km/h (1 Bft) 100,00 %
07.07.2017 06:38 18,0 C 24,4 C 78 % 1014,2 hPa 0,0 l/m 0,0 km/h (0 Bft) SO 136 2 min 0,000 mm 0,0 UV-I 136 W/m 14,1 C 18,0 C 0,0 km/h (0 Bft) 95,74 %
07.07.2017 06:40 18,1 C 24,4 C 78 % 1014,1 hPa 0,0 l/m 0,0 km/h (0 Bft) SO 136 2 min 0,000 mm 0,0 UV-I 161 W/m 14,2 C 18,1 C 1,6 km/h (1 Bft) 100,00 %
07.07.2017 06:42 18,2 C 24,4 C 77 % 1014,1 hPa 0,0 l/m 0,0 km/h (0 Bft) SO 136 2 min 0,000 mm 0,0 UV-I 162 W/m 14,1 C 18,2 C 0,0 km/h (0 Bft) 91,49 %
07.07.2017 06:44 18,4 C 24,4 C 78 % 1014,1 hPa 0,0 l/m 0,0 km/h (0 Bft) SO 136 2 min 0,000 mm 0,0 UV-I 168 W/m 14,5 C 18,4 C 0,0 km/h (0 Bft) 94,00 %
07.07.2017 06:46 18,4 C 24,4 C 79 % 1014,1 hPa 0,0 l/m 0,0 km/h (0 Bft) SO 136 2 min 0,000 mm 0,0 UV-I 170 W/m 14,7 C 18,4 C 0,0 km/h (0 Bft) 100,00 %
07.07.2017 06:48 18,4 C 24,4 C 80 % 1014,1 hPa 0,0 l/m 0,0 km/h (0 Bft) SO 136 2 min 0,000 mm 0,0 UV-I 176 W/m 14,9 C 18,4 C 1,6 km/h (1 Bft) 98,11 %
07.07.2017 06:50 18,6 C 24,4 C 80 % 1014,1 hPa 0,0 l/m 0,0 km/h (0 Bft) SO 136 2 min 0,000 mm 0,0 UV-I 183 W/m 15,1 C 18,6 C 0,0 km/h (0 Bft) 95,74 %
07.07.2017 06:52 18,7 C 24,4 C 80 % 1014,1 hPa 0,0 l/m 0,0 km/h (0 Bft) SO 136 2 min 0,000 mm 0,0 UV-I 188 W/m 15,2 C 18,7 C 0,0 km/h (0 Bft) 98,00 %
07.07.2017 06:54 18,7 C 24,4 C 77 % 1014,1 hPa 0,0 l/m 0,0 km/h (0 Bft) SO 136 2 min 0,000 mm 0,0 UV-I 193 W/m 14,6 C 18,7 C 0,0 km/h (0 Bft) 97,87 %
07.07.2017 06:56 18,8 C 24,4 C 77 % 1014,1 hPa 0,0 l/m 0,1 km/h (0 Bft) SO 136 2 min 0,000 mm 0,0 UV-I 198 W/m 14,7 C 18,8 C 1,6 km/h (1 Bft) 100,00 %
07.07.2017 06:58 19,0 C 24,4 C 77 % 1014,1 hPa 0,0 l/m 0,7 km/h (0 Bft) SO 136 2 min 0,000 mm 0,0 UV-I 194 W/m 14,9 C 19,0 C 3,2 km/h (1 Bft) 92,45 %
07.07.2017 07:00 19,2 C 24,4 C 76 % 1014,1 hPa 0,0 l/m 0,0 km/h (0 Bft) SO 136 2 min 0,076 mm 0,0 UV-I 200 W/m 14,9 C 19,2 C 0,0 km/h (0 Bft) 98,00 %
07.07.2017 07:02 19,4 C 24,4 C 74 % 1014,2 hPa 0,0 l/m 0,0 km/h (0 Bft) SO 136 2 min 0,000 mm 0,0 UV-I 213 W/m 14,6 C 19,4 C 0,0 km/h (0 Bft) 100,00 %
07.07.2017 07:04 19,6 C 24,4 C 74 % 1014,1 hPa 0,0 l/m 0,0 km/h (0 Bft) SO 136 2 min 0,000 mm 0,0 UV-I 186 W/m 14,8 C 19,6 C 0,0 km/h (0 Bft) 98,00 %
07.07.2017 07:06 19,7 C 24,4 C 74 % 1014,2 hPa 0,0 l/m 0,0 km/h (0 Bft) SO 136 2 min 0,000 mm 0,0 UV-I 167 W/m 14,9 C 19,7 C 0,0 km/h (0 Bft) 100,00 %
07.07.2017 07:08 19,7 C 24,4 C 74 % 1014,2 hPa 0,0 l/m 0,3 km/h (0 Bft) SO 136 2 min 0,000 mm 0,0 UV-I 181 W/m 14,9 C 19,7 C 1,6 km/h (1 Bft) 100,00 %
07.07.2017 07:10 19,8 C 24,4 C 73 % 1014,3 hPa 0,0 l/m 0,5 km/h (0 Bft) SO 136 2 min 0,000 mm 0,0 UV-I 206 W/m 14,8 C 19,8 C 1,6 km/h (1 Bft) 98,00 %
07.07.2017 07:12 19,8 C 24,4 C 73 % 1014,3 hPa 0,0 l/m 1,3 km/h (1 Bft) SO 136 2 min 0,000 mm 0,0 UV-I 214 W/m 14,8 C 19,8 C 3,2 km/h (1 Bft) 97,73 %
07.07.2017 07:14 19,8 C 24,4 C 72 % 1014,4 hPa 0,0 l/m 1,0 km/h (0 Bft) SO 136 2 min 0,000 mm 0,0 UV-I 227 W/m 14,6 C 19,8 C 1,6 km/h (1 Bft) 95,74 %
07.07.2017 07:16 20,0 C 24,4 C 73 % 1014,3 hPa 0,0 l/m 0,1 km/h (0 Bft) SO 136 2 min 0,000 mm 0,0 UV-I 230 W/m 15,0 C 20,0 C 1,6 km/h (1 Bft) 98,00 %
07.07.2017 07:18 20,2 C 24,4 C 71 % 1014,4 hPa 0,0 l/m 1,0 km/h (0 Bft) SO 136 2 min 0,000 mm 0,0 UV-I 223 W/m 14,8 C 20,2 C 3,2 km/h (1 Bft) 97,87 %
07.07.2017 07:20 20,3 C 24,4 C 70 % 1014,4 hPa 0,0 l/m 1,6 km/h (1 Bft) SO 136 2 min 0,000 mm 0,4 UV-I 242 W/m 14,6 C 20,3 C 3,2 km/h (1 Bft) 94,34 %
07.07.2017 07:22 20,3 C 24,4 C 67 % 1014,4 hPa 0,0 l/m 1,2 km/h (1 Bft) SO 136 2 min 0,000 mm 0,5 UV-I 260 W/m 14,0 C 20,3 C 1,6 km/h (1 Bft) 97,87 %
07.07.2017 07:24 20,3 C 24,4 C 66 % 1014,4 hPa 0,0 l/m 1,3 km/h (1 Bft) SO 136 2 min 0,000 mm 0,5 UV-I 249 W/m 13,7 C 20,3 C 3,2 km/h (1 Bft) 97,87 %
07.07.2017 07:26 20,4 C 24,4 C 67 % 1014,4 hPa 0,0 l/m 0,0 km/h (0 Bft) SO 136 2 min 0,000 mm 0,5 UV-I 253 W/m 14,1 C 20,4 C 0,0 km/h (0 Bft) 100,00 %
07.07.2017 07:28 20,5 C 24,4 C 67 % 1014,4 hPa 0,0 l/m 0,0 km/h (0 Bft) SO 136 0 min 0,000 mm 0,5 UV-I 176 W/m 14,2 C 20,5 C 0,0 km/h (0 Bft) 100,00 %
07.07.2017 07:30 20,6 C 24,4 C 68 % 1014,4 hPa 0,0 l/m 0,0 km/h (0 Bft) SO 136 2 min 0,000 mm 0,5 UV-I 199 W/m 14,5 C 20,6 C 0,0 km/h (0 Bft) 100,00 %
07.07.2017 07:32 20,8 C 24,4 C 68 % 1014,4 hPa 0,0 l/m 0,1 km/h (0 Bft) SO 136 2 min 0,000 mm 0,5 UV-I 258 W/m 14,7 C 20,8 C 1,6 km/h (1 Bft) 100,00 %
07.07.2017 07:34 20,9 C 24,4 C 67 % 1014,4 hPa 0,0 l/m 0,1 km/h (0 Bft) SO 136 2 min 0,000 mm 0,6 UV-I 236 W/m 14,5 C 20,9 C 1,6 km/h (1 Bft) 98,00 %
07.07.2017 07:36 21,0 C 24,4 C 67 % 1014,4 hPa 0,0 l/m 1,6 km/h (1 Bft) SO 136 0 min 0,000 mm 0,6 UV-I 187 W/m 14,6 C 21,0 C 3,2 km/h (1 Bft) 100,00 %
07.07.2017 07:38 21,1 C 24,4 C 67 % 1014,4 hPa 0,0 l/m 0,3 km/h (0 Bft) SO 136 2 min 0,000 mm 0,6 UV-I 198 W/m 14,7 C 21,1 C 1,6 km/h (1 Bft) 97,62 %
07.07.2017 07:40 21,2 C 24,4 C 67 % 1014,4 hPa 0,0 l/m 2,1 km/h (1 Bft) SO 136 2 min 0,000 mm 0,6 UV-I 239 W/m 14,8 C 21,2 C 3,2 km/h (1 Bft) 98,00 %
07.07.2017 07:42 21,2 C 24,4 C 68 % 1014,3 hPa 0,0 l/m 1,8 km/h (1 Bft) SO 136 2 min 0,000 mm 0,6 UV-I 271 W/m 15,1 C 21,2 C 3,2 km/h (1 Bft) 93,62 %
07.07.2017 07:44 21,3 C 24,4 C 65 % 1014,3 hPa 0,0 l/m 2,1 km/h (1 Bft) SO 136 2 min 0,000 mm 0,7 UV-I 311 W/m 14,4 C 21,3 C 3,2 km/h (1 Bft) 97,37 %
07.07.2017 07:46 21,3 C 24,4 C 64 % 1014,3 hPa 0,0 l/m 1,6 km/h (1 Bft) SO 136 2 min 0,000 mm 0,7 UV-I 337 W/m 14,2 C 21,3 C 4,8 km/h (1 Bft) 98,00 %
07.07.2017 07:48 21,3 C 24,4 C 64 % 1014,3 hPa 0,0 l/m 0,0 km/h (0 Bft) SO 136 2 min 0,000 mm 0,7 UV-I 277 W/m 14,2 C 21,3 C 0,0 km/h (0 Bft) 98,11 %
07.07.2017 07:50 21,4 C 24,4 C 64 % 1014,3 hPa 0,0 l/m 0,0 km/h (0 Bft) SO 136 2 min 0,000 mm 0,7 UV-I 258 W/m 14,3 C 21,4 C 1,6 km/h (1 Bft) 98,00 %
07.07.2017 07:52 21,4 C 24,4 C 64 % 1014,4 hPa 0,0 l/m 0,3 km/h (0 Bft) SO 136 2 min 0,000 mm 0,7 UV-I 243 W/m 14,3 C 21,4 C 1,6 km/h (1 Bft) 95,12 %
07.07.2017 07:54 21,4 C 24,4 C 63 % 1014,4 hPa 0,0 l/m 0,1 km/h (0 Bft) SO 136 2 min 0,000 mm 0,7 UV-I 233 W/m 14,1 C 21,4 C 1,6 km/h (1 Bft) 97,87 %
07.07.2017 07:56 21,4 C 24,4 C 65 % 1014,4 hPa 0,0 l/m 0,5 km/h (0 Bft) SO 136 2 min 0,000 mm 0,7 UV-I 229 W/m 14,5 C 21,4 C 1,6 km/h (1 Bft) 98,00 %
07.07.2017 07:58 21,4 C 24,4 C 68 % 1014,4 hPa 0,0 l/m 0,9 km/h (0 Bft) SO 136 0 min 0,000 mm 0,7 UV-I 221 W/m 15,2 C 21,4 C 4,8 km/h (1 Bft) 100,00 %
07.07.2017 08:00 21,4 C 24,4 C 67 % 1014,4 hPa 0,0 l/m 0,1 km/h (0 Bft) SO 136 0 min 0,152 mm 0,6 UV-I 203 W/m 15,0 C 21,4 C 1,6 km/h (1 Bft) 95,74 %
07.07.2017 08:02 21,4 C 24,4 C 68 % 1014,5 hPa 0,0 l/m 0,0 km/h (0 Bft) SO 136 0 min 0,000 mm 0,6 UV-I 196 W/m 15,2 C 21,4 C 0,0 km/h (0 Bft) 98,00 %
07.07.2017 08:04 21,4 C 24,4 C 68 % 1014,5 hPa 0,0 l/m 0,4 km/h (0 Bft) SO 136 0 min 0,000 mm 0,6 UV-I 197 W/m 15,2 C 21,4 C 1,6 km/h (1 Bft) 96,00 %
07.07.2017 08:06 21,3 C 24,4 C 69 % 1014,5 hPa 0,0 l/m 0,2 km/h (0 Bft) SO 136 0 min 0,000 mm 0,6 UV-I 199 W/m 15,4 C 21,3 C 1,6 km/h (1 Bft) 97,87 %
07.07.2017 08:08 21,3 C 24,4 C 69 % 1014,5 hPa 0,0 l/m 0,8 km/h (0 Bft) SO 136 0 min 0,000 mm 0,6 UV-I 190 W/m 15,4 C 21,3 C 3,2 km/h (1 Bft) 95,74 %
07.07.2017 08:10 21,2 C 24,4 C 69 % 1014,5 hPa 0,0 l/m 0,0 km/h (0 Bft) SO 136 0 min 0,000 mm 0,5 UV-I 176 W/m 15,3 C 21,2 C 1,6 km/h (1 Bft) 97,87 %
07.07.2017 08:12 21,3 C 24,4 C 70 % 1014,5 hPa 0,0 l/m 1,0 km/h (0 Bft) SO 136 0 min 0,000 mm 0,5 UV-I 153 W/m 15,6 C 21,3 C 3,2 km/h (1 Bft) 94,87 %
07.07.2017 08:14 21,3 C 24,4 C 69 % 1014,5 hPa 0,0 l/m 0,4 km/h (0 Bft) SO 136 0 min 0,000 mm 0,5 UV-I 140 W/m 15,4 C 21,3 C 1,6 km/h (1 Bft) 96,00 %
07.07.2017 08:16 21,3 C 24,4 C 68 % 1014,6 hPa 0,0 l/m 0,2 km/h (0 Bft) SO 136 0 min 0,000 mm 0,5 UV-I 146 W/m 15,1 C 21,3 C 1,6 km/h (1 Bft) 93,62 %
07.07.2017 08:18 21,2 C 24,4 C 69 % 1014,6 hPa 0,0 l/m 0,2 km/h (0 Bft) SO 136 0 min 0,000 mm 0,6 UV-I 159 W/m 15,3 C 21,2 C 1,6 km/h (1 Bft) 97,56 %
07.07.2017 08:20 21,3 C 24,4 C 69 % 1014,8 hPa 0,0 l/m 0,2 km/h (0 Bft) SO 136 0 min 0,000 mm 0,7 UV-I 167 W/m 15,4 C 21,3 C 1,6 km/h (1 Bft) 93,62 %
07.07.2017 08:22 21,3 C 24,4 C 70 % 1014,9 hPa 0,0 l/m 0,2 km/h (0 Bft) SO 136 0 min 0,000 mm 0,7 UV-I 171 W/m 15,6 C 21,3 C 1,6 km/h (1 Bft) 97,87 %
07.07.2017 08:24 21,3 C 24,4 C 70 % 1015,0 hPa 0,0 l/m 0,5 km/h (0 Bft) SO 136 0 min 0,000 mm 0,7 UV-I 175 W/m 15,6 C 21,3 C 3,2 km/h (1 Bft) 98,00 %
07.07.2017 08:26 21,3 C 24,4 C 71 % 1015,0 hPa 0,0 l/m 1,0 km/h (0 Bft) O-SO 122 0 min 0,000 mm 0,8 UV-I 179 W/m 15,8 C 21,3 C 3,2 km/h (1 Bft) 98,11 %
07.07.2017 08:28 21,3 C 24,4 C 70 % 1015,0 hPa 0,0 l/m 1,7 km/h (1 Bft) N-NO 26 0 min 0,000 mm 0,8 UV-I 181 W/m 15,6 C 21,3 C 4,8 km/h (1 Bft) 97,56 %
07.07.2017 08:30 21,3 C 24,4 C 70 % 1015,1 hPa 0,0 l/m 2,7 km/h (1 Bft) N 350 0 min 0,000 mm 0,8 UV-I 181 W/m 15,6 C 21,3 C 4,8 km/h (1 Bft) 94,34 %
07.07.2017 08:32 21,3 C 24,4 C 69 % 1015,3 hPa 0,0 l/m 1,9 km/h (1 Bft) N 355 0 min 0,000 mm 0,8 UV-I 184 W/m 15,4 C 21,3 C 4,8 km/h (1 Bft) 95,12 %
07.07.2017 08:34 21,3 C 24,4 C 70 % 1015,2 hPa 0,0 l/m 2,4 km/h (1 Bft) N 351 0 min 0,000 mm 0,9 UV-I 192 W/m 15,6 C 21,3 C 4,8 km/h (1 Bft) 95,74 %
07.07.2017 08:36 21,3 C 24,4 C 70 % 1015,2 hPa 0,0 l/m 5,2 km/h (1 Bft) NW 304 0 min 0,000 mm 0,8 UV-I 197 W/m 15,6 C 21,3 C 12,9 km/h (3 Bft) 91,43 %
07.07.2017 08:38 21,2 C 24,4 C 70 % 1015,2 hPa 0,0 l/m 2,7 km/h (1 Bft) NW 318 0 min 0,000 mm 0,8 UV-I 194 W/m 15,5 C 21,2 C 16,1 km/h (3 Bft) 98,21 %
07.07.2017 08:40 21,1 C 24,4 C 70 % 1015,2 hPa 0,0 l/m 3,9 km/h (1 Bft) N 10 0 min 0,000 mm 0,8 UV-I 185 W/m 15,4 C 21,1 C 11,3 km/h (2 Bft) 97,87 %
07.07.2017 08:42 21,1 C 24,4 C 70 % 1015,2 hPa 0,0 l/m 2,9 km/h (1 Bft) N-NO 14 0 min 0,000 mm 0,8 UV-I 195 W/m 15,4 C 21,1 C 11,3 km/h (2 Bft) 98,11 %
07.07.2017 08:44 21,1 C 24,4 C 70 % 1015,1 hPa 0,0 l/m 1,3 km/h (1 Bft) N 11 0 min 0,000 mm 0,8 UV-I 195 W/m 15,4 C 21,1 C 4,8 km/h (1 Bft) 97,56 %
07.07.2017 08:46 21,1 C 24,4 C 71 % 1015,1 hPa 0,0 l/m 0,1 km/h (0 Bft) N-NO 12 0 min 0,000 mm 0,7 UV-I 172 W/m 15,6 C 21,1 C 1,6 km/h (1 Bft) 98,00 %
07.07.2017 08:48 21,1 C 24,4 C 70 % 1015,2 hPa 0,0 l/m 1,0 km/h (0 Bft) N-NO 13 0 min 0,000 mm 0,6 UV-I 152 W/m 15,4 C 21,1 C 3,2 km/h (1 Bft) 98,00 %
07.07.2017 08:50 21,1 C 24,4 C 71 % 1015,2 hPa 0,0 l/m 0,3 km/h (0 Bft) N 360 0 min 0,000 mm 0,6 UV-I 144 W/m 15,6 C 21,1 C 1,6 km/h (1 Bft) 100,00 %
07.07.2017 08:52 21,1 C 24,4 C 71 % 1015,1 hPa 0,0 l/m 1,0 km/h (0 Bft) N 360 0 min 0,000 mm 0,6 UV-I 138 W/m 15,6 C 21,1 C 3,2 km/h (1 Bft) 97,87 %
07.07.2017 08:54 21,1 C 24,4 C 72 % 1015,1 hPa 0,0 l/m 1,5 km/h (1 Bft) N 355 0 min 0,000 mm 0,6 UV-I 133 W/m 15,8 C 21,1 C 4,8 km/h (1 Bft) 97,87 %
07.07.2017 08:56 21,1 C 24,4 C 71 % 1015,0 hPa 0,0 l/m 0,3 km/h (0 Bft) N 355 0 min 0,000 mm 0,6 UV-I 136 W/m 15,6 C 21,1 C 1,6 km/h (1 Bft) 96,23 %
07.07.2017 08:58 21,1 C 24,4 C 72 % 1015,0 hPa 0,0 l/m 1,9 km/h (1 Bft) N 355 0 min 0,000 mm 0,7 UV-I 153 W/m 15,8 C 21,1 C 3,2 km/h (1 Bft) 97,56 %
07.07.2017 09:00 21,2 C 24,4 C 71 % 1015,1 hPa 0,0 l/m 1,9 km/h (1 Bft) N 355 0 min 0,102 mm 0,8 UV-I 170 W/m 15,7 C 21,2 C 3,2 km/h (1 Bft) 95,74 %
07.07.2017 09:02 21,2 C 24,4 C 72 % 1015,1 hPa 0,0 l/m 0,8 km/h (0 Bft) N 355 0 min 0,000 mm 0,8 UV-I 174 W/m 15,9 C 21,2 C 3,2 km/h (1 Bft) 98,11 %
07.07.2017 09:04 21,3 C 24,4 C 71 % 1015,1 hPa 0,0 l/m 3,1 km/h (1 Bft) N-NO 26 0 min 0,000 mm 0,8 UV-I 176 W/m 15,8 C 21,3 C 4,8 km/h (1 Bft) 94,00 %
07.07.2017 09:06 21,3 C 24,4 C 70 % 1015,0 hPa 0,0 l/m 3,6 km/h (1 Bft) O 98 0 min 0,000 mm 0,8 UV-I 180 W/m 15,6 C 21,3 C 9,7 km/h (2 Bft) 91,49 %
07.07.2017 09:08 21,3 C 24,4 C 71 % 1014,9 hPa 0,0 l/m 3,8 km/h (1 Bft) O-SO 102 0 min 0,000 mm 0,8 UV-I 178 W/m 15,8 C 21,3 C 6,4 km/h (2 Bft) 97,14 %
07.07.2017 09:10 21,3 C 24,4 C 71 % 1015,1 hPa 0,0 l/m 3,6 km/h (1 Bft) O-SO 103 0 min 0,000 mm 0,8 UV-I 177 W/m 15,8 C 21,3 C 6,4 km/h (2 Bft) 94,00 %
07.07.2017 09:12 21,4 C 24,4 C 72 % 1015,1 hPa 0,0 l/m 4,0 km/h (1 Bft) O-NO 57 0 min 0,000 mm 0,9 UV-I 179 W/m 16,1 C 21,4 C 6,4 km/h (2 Bft) 97,87 %
07.07.2017 09:14 21,4 C 24,4 C 71 % 1015,1 hPa 0,0 l/m 5,1 km/h (1 Bft) O-NO 74 0 min 0,000 mm 0,9 UV-I 178 W/m 15,9 C 21,4 C 6,4 km/h (2 Bft) 94,00 %
07.07.2017 09:16 21,4 C 24,4 C 70 % 1015,0 hPa 0,0 l/m 5,6 km/h (1 Bft) O-NO 71 0 min 0,000 mm 0,9 UV-I 181 W/m 15,7 C 21,4 C 8,0 km/h (2 Bft) 95,12 %
07.07.2017 09:18 21,4 C 24,4 C 71 % 1014,9 hPa 0,0 l/m 4,6 km/h (1 Bft) O-SO 116 0 min 0,000 mm 1,0 UV-I 193 W/m 15,9 C 21,4 C 9,7 km/h (2 Bft) 96,23 %
07.07.2017 09:20 21,6 C 24,4 C 71 % 1014,8 hPa 0,0 l/m 8,1 km/h (2 Bft) O 101 0 min 0,000 mm 1,1 UV-I 211 W/m 16,1 C 21,0 C 11,3 km/h (2 Bft) 97,87 %
07.07.2017 09:22 21,6 C 24,4 C 71 % 1014,8 hPa 0,0 l/m 5,4 km/h (1 Bft) O-SO 123 0 min 0,000 mm 1,2 UV-I 220 W/m 16,1 C 21,6 C 8,0 km/h (2 Bft) 94,74 %
07.07.2017 09:24 21,7 C 24,4 C 71 % 1015,0 hPa 0,0 l/m 3,0 km/h (1 Bft) O-SO 107 0 min 0,000 mm 1,2 UV-I 213 W/m 16,2 C 21,7 C 4,8 km/h (1 Bft) 92,45 %
07.07.2017 09:26 21,7 C 24,4 C 71 % 1015,0 hPa 0,0 l/m 4,2 km/h (1 Bft) O-NO 65 0 min 0,000 mm 1,2 UV-I 208 W/m 16,2 C 21,7 C 8,0 km/h (2 Bft) 96,00 %
07.07.2017 09:28 21,7 C 24,4 C 71 % 1015,1 hPa 0,0 l/m 5,7 km/h (1 Bft) O-SO 110 0 min 0,000 mm 1,3 UV-I 217 W/m 16,2 C 21,7 C 6,4 km/h (2 Bft) 97,87 %
07.07.2017 09:30 21,7 C 24,4 C 71 % 1015,1 hPa 0,0 l/m 3,9 km/h (1 Bft) O-SO 110 0 min 0,000 mm 1,4 UV-I 251 W/m 16,2 C 21,7 C 6,4 km/h (2 Bft) 95,24 %
07.07.2017 09:32 21,8 C 24,4 C 71 % 1015,1 hPa 0,0 l/m 3,6 km/h (1 Bft) O-SO 111 0 min 0,000 mm 1,6 UV-I 302 W/m 16,3 C 21,8 C 4,8 km/h (1 Bft) 97,87 %
07.07.2017 09:34 22,1 C 24,4 C 71 % 1015,2 hPa 0,0 l/m 2,6 km/h (1 Bft) O-SO 111 0 min 0,000 mm 1,7 UV-I 337 W/m 16,6 C 22,1 C 4,8 km/h (1 Bft) 93,62 %
07.07.2017 09:36 22,2 C 24,4 C 70 % 1015,2 hPa 0,0 l/m 0,9 km/h (0 Bft) O-SO 112 0 min 0,000 mm 1,7 UV-I 328 W/m 16,5 C 22,2 C 3,2 km/h (1 Bft) 94,00 %
07.07.2017 09:38 22,2 C 24,4 C 69 % 1015,3 hPa 0,0 l/m 3,8 km/h (1 Bft) SO 141 0 min 0,000 mm 1,7 UV-I 346 W/m 16,2 C 22,2 C 8,0 km/h (2 Bft) 93,62 %
07.07.2017 09:40 22,2 C 24,4 C 69 % 1015,4 hPa 0,0 l/m 3,8 km/h (1 Bft) SO 144 0 min 0,000 mm 1,5 UV-I 356 W/m 16,2 C 22,2 C 6,4 km/h (2 Bft) 92,68 %
07.07.2017 09:42 22,2 C 24,4 C 69 % 1015,5 hPa 0,0 l/m 1,8 km/h (1 Bft) SO 137 0 min 0,000 mm 1,2 UV-I 279 W/m 16,2 C 22,2 C 4,8 km/h (1 Bft) 98,00 %
07.07.2017 09:44 22,1 C 24,4 C 70 % 1016,0 hPa 0,0 l/m 4,1 km/h (1 Bft) W-SW 244 0 min 0,000 mm 0,8 UV-I 172 W/m 16,4 C 22,1 C 8,0 km/h (2 Bft) 96,23 %
07.07.2017 09:46 22,2 C 24,4 C 70 % 1016,2 hPa 0,0 l/m 5,6 km/h (1 Bft) W 272 0 min 0,000 mm 0,6 UV-I 154 W/m 16,5 C 22,2 C 9,7 km/h (2 Bft) 94,74 %
07.07.2017 09:48 22,1 C 24,4 C 70 % 1016,3 hPa 0,0 l/m 5,1 km/h (1 Bft) W-SW 250 0 min 0,000 mm 0,4 UV-I 115 W/m 16,4 C 22,1 C 6,4 km/h (2 Bft) 94,00 %
07.07.2017 09:50 22,1 C 24,4 C 70 % 1016,3 hPa 0,0 l/m 5,1 km/h (1 Bft) SW 229 0 min 0,000 mm 0,0 UV-I 97 W/m 16,4 C 22,1 C 6,4 km/h (2 Bft) 95,12 %
07.07.2017 09:52 22,1 C 24,4 C 70 % 1016,3 hPa 0,0 l/m 6,2 km/h (2 Bft) S-SW 205 0 min 0,000 mm 0,0 UV-I 83 W/m 16,4 C 22,1 C 9,7 km/h (2 Bft) 96,00 %
07.07.2017 09:54 22,0 C 24,4 C 70 % 1015,9 hPa 0,0 l/m 3,4 km/h (1 Bft) S-SO 156 0 min 0,000 mm 0,0 UV-I 73 W/m 16,3 C 22,0 C 6,4 km/h (2 Bft) 98,21 %
07.07.2017 09:56 21,9 C 24,4 C 71 % 1015,1 hPa 0,0 l/m 8,9 km/h (2 Bft) S-SO 165 0 min 0,000 mm 0,0 UV-I 70 W/m 16,4 C 21,1 C 16,1 km/h (3 Bft) 88,46 %
07.07.2017 09:58 21,8 C 24,4 C 72 % 1014,0 hPa 0,0 l/m 21,5 km/h (4 Bft) O-SO 109 0 min 0,000 mm 0,0 UV-I 66 W/m 16,5 C 18,3 C 27,4 km/h (4 Bft) 93,85 %
07.07.2017 10:00 21,7 C 24,4 C 73 % 1014,0 hPa 0,0 l/m 15,6 km/h (3 Bft) O-SO 115 0 min 0,152 mm 0,0 UV-I 67 W/m 16,6 C 19,2 C 22,5 km/h (4 Bft) 92,68 %
07.07.2017 10:02 21,4 C 24,4 C 74 % 1014,3 hPa 0,0 l/m 7,9 km/h (2 Bft) NO 51 0 min 0,000 mm 0,4 UV-I 75 W/m 16,6 C 20,9 C 17,7 km/h (3 Bft) 86,79 %
07.07.2017 10:04 21,2 C 24,4 C 74 % 1014,9 hPa 0,0 l/m 6,5 km/h (2 Bft) N-NW 338 0 min 0,000 mm 0,7 UV-I 87 W/m 16,4 C 21,2 C 12,9 km/h (3 Bft) 96,00 %
07.07.2017 10:06 20,9 C 24,4 C 76 % 1015,2 hPa 0,0 l/m 2,8 km/h (1 Bft) NW 316 0 min 0,000 mm 0,9 UV-I 103 W/m 16,5 C 20,9 C 6,4 km/h (2 Bft) 95,12 %
07.07.2017 10:08 20,8 C 24,4 C 78 % 1015,5 hPa 0,0 l/m 1,9 km/h (1 Bft) NW 319 0 min 0,000 mm 1,1 UV-I 123 W/m 16,8 C 20,8 C 4,8 km/h (1 Bft) 97,22 %
07.07.2017 10:10 20,8 C 24,4 C 78 % 1015,6 hPa 0,0 l/m 1,4 km/h (1 Bft) NW 317 0 min 0,000 mm 1,3 UV-I 153 W/m 16,8 C 20,8 C 3,2 km/h (1 Bft) 98,21 %
07.07.2017 10:12 20,8 C 24,4 C 78 % 1015,5 hPa 0,0 l/m 3,9 km/h (1 Bft) S-SO 164 0 min 0,000 mm 1,6 UV-I 186 W/m 16,8 C 20,8 C 6,4 km/h (2 Bft) 97,56 %
07.07.2017 10:14 20,9 C 24,4 C 76 % 1015,4 hPa 0,0 l/m 3,9 km/h (1 Bft) SO 139 0 min 0,000 mm 1,9 UV-I 236 W/m 16,5 C 20,9 C 6,4 km/h (2 Bft) 96,23 %
07.07.2017 10:16 21,3 C 24,4 C 74 % 1015,5 hPa 0,0 l/m 3,7 km/h (1 Bft) S 178 0 min 0,000 mm 2,8 UV-I 371 W/m 16,5 C 21,3 C 6,4 km/h (2 Bft) 94,34 %
07.07.2017 10:18 21,7 C 24,4 C 77 % 1015,5 hPa 0,0 l/m 4,2 km/h (1 Bft) S-SW 205 2 min 0,000 mm 3,0 UV-I 441 W/m 17,5 C 21,7 C 8,0 km/h (2 Bft) 93,62 %
07.07.2017 10:20 22,1 C 24,4 C 73 % 1015,6 hPa 0,0 l/m 2,4 km/h (1 Bft) S-SW 205 2 min 0,000 mm 3,2 UV-I 642 W/m 17,0 C 22,1 C 4,8 km/h (1 Bft) 93,62 %
07.07.2017 10:22 22,5 C 24,4 C 75 % 1015,6 hPa 0,0 l/m 2,3 km/h (1 Bft) S-SW 205 2 min 0,000 mm 2,3 UV-I 536 W/m 17,8 C 22,5 C 6,4 km/h (2 Bft) 89,47 %
07.07.2017 10:24 22,7 C 24,4 C 70 % 1015,6 hPa 0,0 l/m 2,3 km/h (1 Bft) S-SW 200 0 min 0,000 mm 2,2 UV-I 318 W/m 16,9 C 22,7 C 4,8 km/h (1 Bft) 92,00 %
07.07.2017 10:26 22,8 C 24,4 C 70 % 1015,6 hPa 0,0 l/m 3,1 km/h (1 Bft) S-SW 200 0 min 0,000 mm 2,2 UV-I 304 W/m 17,0 C 22,8 C 4,8 km/h (1 Bft) 95,74 %
07.07.2017 10:28 22,8 C 24,4 C 70 % 1015,7 hPa 0,0 l/m 1,0 km/h (0 Bft) S 191 0 min 0,000 mm 2,6 UV-I 324 W/m 17,0 C 22,8 C 3,2 km/h (1 Bft) 89,36 %
07.07.2017 10:30 22,9 C 24,4 C 67 % 1015,7 hPa 0,0 l/m 2,4 km/h (1 Bft) S-SW 194 0 min 0,000 mm 3,4 UV-I 330 W/m 16,4 C 22,9 C 4,8 km/h (1 Bft) 96,23 %
07.07.2017 10:32 23,1 C 24,4 C 68 % 1015,7 hPa 0,0 l/m 1,5 km/h (1 Bft) S-SW 194 0 min 0,000 mm 3,3 UV-I 330 W/m 16,9 C 23,1 C 4,8 km/h (1 Bft) 97,87 %
07.07.2017 10:34 23,1 C 24,4 C 68 % 1015,7 hPa 0,0 l/m 3,1 km/h (1 Bft) W-SW 240 0 min 0,000 mm 2,9 UV-I 330 W/m 16,9 C 23,1 C 6,4 km/h (2 Bft) 94,74 %
07.07.2017 10:36 23,2 C 24,4 C 67 % 1015,8 hPa 0,0 l/m 3,3 km/h (1 Bft) W 260 0 min 0,000 mm 3,6 UV-I 377 W/m 16,7 C 23,2 C 4,8 km/h (1 Bft) 94,34 %
07.07.2017 10:38 23,2 C 25,0 C 67 % 1015,9 hPa 0,0 l/m 3,1 km/h (1 Bft) W 260 2 min 0,000 mm 4,1 UV-I 519 W/m 16,7 C 23,2 C 4,8 km/h (1 Bft) 97,56 %
07.07.2017 10:40 23,3 C 25,0 C 67 % 1016,0 hPa 0,0 l/m 3,6 km/h (1 Bft) W 281 2 min 0,000 mm 4,3 UV-I 893 W/m 16,8 C 23,3 C 6,4 km/h (2 Bft) 95,74 %
07.07.2017 10:42 23,4 C 24,4 C 65 % 1016,0 hPa 0,0 l/m 3,9 km/h (1 Bft) W 281 2 min 0,000 mm 3,2 UV-I 925 W/m 16,4 C 23,4 C 6,4 km/h (2 Bft) 95,45 %
07.07.2017 10:44 23,4 C 24,4 C 64 % 1016,0 hPa 0,0 l/m 2,6 km/h (1 Bft) S-SW 204 0 min 0,000 mm 3,1 UV-I 409 W/m 16,2 C 23,4 C 4,8 km/h (1 Bft) 97,87 %
07.07.2017 10:46 23,4 C 25,0 C 66 % 1015,9 hPa 0,0 l/m 1,2 km/h (1 Bft) S-SW 200 0 min 0,000 mm 3,9 UV-I 353 W/m 16,7 C 23,4 C 3,2 km/h (1 Bft) 98,00 %
07.07.2017 10:48 23,6 C 25,0 C 62 % 1016,0 hPa 0,0 l/m 1,2 km/h (1 Bft) S-SW 200 2 min 0,000 mm 4,0 UV-I 770 W/m 15,9 C 23,6 C 3,2 km/h (1 Bft) 98,00 %
07.07.2017 10:50 23,9 C 25,0 C 66 % 1016,0 hPa 0,0 l/m 2,9 km/h (1 Bft) S-SW 200 2 min 0,000 mm 4,4 UV-I 909 W/m 17,1 C 23,9 C 4,8 km/h (1 Bft) 97,87 %
07.07.2017 10:52 24,3 C 25,0 C 64 % 1016,0 hPa 0,0 l/m 2,0 km/h (1 Bft) S-SW 200 2 min 0,000 mm 4,4 UV-I 819 W/m 17,0 C 24,3 C 3,2 km/h (1 Bft) 94,87 %
07.07.2017 10:54 24,7 C 25,0 C 62 % 1016,0 hPa 0,0 l/m 2,9 km/h (1 Bft) W 279 2 min 0,000 mm 4,5 UV-I 881 W/m 16,9 C 24,7 C 4,8 km/h (1 Bft) 98,00 %
07.07.2017 10:56 24,9 C 25,0 C 61 % 1015,9 hPa 0,0 l/m 2,3 km/h (1 Bft) S-SO 159 2 min 0,000 mm 4,5 UV-I 947 W/m 16,8 C 24,9 C 6,4 km/h (2 Bft) 96,43 %
07.07.2017 10:58 25,0 C 25,0 C 61 % 1016,0 hPa 0,0 l/m 1,1 km/h (1 Bft) S-SO 158 2 min 0,000 mm 4,7 UV-I 961 W/m 16,9 C 25,0 C 3,2 km/h (1 Bft) 97,37 %
07.07.2017 11:00 25,2 C 25,0 C 60 % 1016,0 hPa 0,0 l/m 0,8 km/h (0 Bft) S-SO 158 2 min 0,331 mm 4,5 UV-I 957 W/m 16,9 C 25,2 C 3,2 km/h (1 Bft) 98,11 %
07.07.2017 11:02 25,4 C 25,0 C 60 % 1016,0 hPa 0,0 l/m 0,6 km/h (0 Bft) S-SO 158 2 min 0,000 mm 3,9 UV-I 765 W/m 17,1 C 25,4 C 1,6 km/h (1 Bft) 100,00 %
07.07.2017 11:04 25,4 C 25,0 C 57 % 1015,9 hPa 0,0 l/m 2,4 km/h (1 Bft) N 360 2 min 0,000 mm 3,0 UV-I 442 W/m 16,2 C 25,4 C 4,8 km/h (1 Bft) 100,00 %
07.07.2017 11:06 25,2 C 25,0 C 55 % 1015,9 hPa 0,0 l/m 2,2 km/h (1 Bft) N-NO 17 0 min 0,000 mm 3,1 UV-I 321 W/m 15,5 C 25,2 C 3,2 km/h (1 Bft) 98,11 %
07.07.2017 11:08 25,0 C 25,0 C 55 % 1016,0 hPa 0,0 l/m 1,4 km/h (1 Bft) N-NO 17 2 min 0,000 mm 4,0 UV-I 594 W/m 15,3 C 25,0 C 3,2 km/h (1 Bft) 95,12 %
07.07.2017 11:10 25,2 C 25,0 C 57 % 1016,0 hPa 0,0 l/m 2,4 km/h (1 Bft) NW 305 2 min 0,000 mm 4,7 UV-I 856 W/m 16,1 C 25,2 C 8,0 km/h (2 Bft) 98,11 %
07.07.2017 11:12 25,5 C 25,0 C 56 % 1016,0 hPa 0,0 l/m 2,7 km/h (1 Bft) N-NW 339 2 min 0,000 mm 4,8 UV-I 832 W/m 16,1 C 25,5 C 6,4 km/h (2 Bft) 100,00 %
07.07.2017 11:14 25,8 C 25,0 C 53 % 1016,0 hPa 0,0 l/m 2,7 km/h (1 Bft) NW 325 2 min 0,000 mm 4,8 UV-I 825 W/m 15,5 C 25,8 C 6,4 km/h (2 Bft) 96,23 %
07.07.2017 11:16 26,1 C 25,0 C 56 % 1016,0 hPa 0,0 l/m 3,0 km/h (1 Bft) W 273 2 min 0,000 mm 4,8 UV-I 812 W/m 16,6 C 26,1 C 6,4 km/h (2 Bft) 97,87 %
07.07.2017 11:18 26,0 C 25,0 C 56 % 1016,0 hPa 0,0 l/m 4,4 km/h (1 Bft) W-SW 239 2 min 0,000 mm 4,8 UV-I 819 W/m 16,5 C 26,0 C 6,4 km/h (2 Bft) 100,00 %
07.07.2017 11:20 26,0 C 25,0 C 55 % 1016,1 hPa 0,0 l/m 2,6 km/h (1 Bft) W-SW 246 2 min 0,000 mm 4,9 UV-I 826 W/m 16,2 C 26,0 C 4,8 km/h (1 Bft) 100,00 %
07.07.2017 11:22 26,1 C 25,0 C 55 % 1016,1 hPa 0,0 l/m 2,2 km/h (1 Bft) W-SW 246 2 min 0,000 mm 5,0 UV-I 844 W/m 16,3 C 26,1 C 3,2 km/h (1 Bft) 96,88 %
07.07.2017 11:24 26,1 C 25,0 C 56 % 1016,1 hPa 0,0 l/m 2,7 km/h (1 Bft) W-SW 246 2 min 0,000 mm 4,9 UV-I 886 W/m 16,6 C 26,1 C 4,8 km/h (1 Bft) 100,00 %
07.07.2017 11:26 26,2 C 25,0 C 55 % 1016,1 hPa 0,0 l/m 0,4 km/h (0 Bft) SW 226 2 min 0,000 mm 5,2 UV-I 951 W/m 16,4 C 26,2 C 1,6 km/h (1 Bft) 97,44 %
07.07.2017 11:28 26,3 C 25,0 C 54 % 1016,1 hPa 0,0 l/m 2,0 km/h (1 Bft) S-SO 163 2 min 0,000 mm 4,5 UV-I 828 W/m 16,2 C 26,3 C 6,4 km/h (2 Bft) 100,00 %
07.07.2017 11:30 26,2 C 25,0 C 54 % 1016,0 hPa 0,0 l/m 3,7 km/h (1 Bft) S-SO 157 2 min 0,000 mm 4,7 UV-I 781 W/m 16,1 C 26,2 C 6,4 km/h (2 Bft) 96,77 %
07.07.2017 11:32 26,1 C 25,0 C 55 % 1015,9 hPa 0,0 l/m 3,5 km/h (1 Bft) S-SO 148 2 min 0,000 mm 5,0 UV-I 859 W/m 16,3 C 26,1 C 6,4 km/h (2 Bft) 100,00 %
07.07.2017 11:34 26,2 C 25,0 C 55 % 1015,9 hPa 0,0 l/m 6,3 km/h (2 Bft) SW 217 2 min 0,000 mm 5,1 UV-I 846 W/m 16,4 C 26,2 C 12,9 km/h (3 Bft) 97,56 %
07.07.2017 11:36 26,4 C 25,0 C 51 % 1015,9 hPa 0,0 l/m 11,1 km/h (2 Bft) S-SW 205 2 min 0,000 mm 5,1 UV-I 840 W/m 15,4 C 25,5 C 17,7 km/h (3 Bft) 100,00 %
07.07.2017 11:38 26,6 C 25,0 C 51 % 1015,9 hPa 0,0 l/m 7,2 km/h (2 Bft) N-NW 341 2 min 0,000 mm 5,1 UV-I 847 W/m 15,6 C 26,4 C 12,9 km/h (3 Bft) 98,08 %
07.07.2017 11:40 26,4 C 25,0 C 52 % 1015,8 hPa 0,0 l/m 8,4 km/h (2 Bft) W-NW 285 2 min 0,000 mm 5,2 UV-I 851 W/m 15,7 C 26,0 C 16,1 km/h (3 Bft) 100,00 %
07.07.2017 11:43 26,3 C 25,0 C 51 % 1015,8 hPa 0,0 l/m 6,5 km/h (2 Bft) W-SW 237 3 min 0,000 mm 5,2 UV-I 842 W/m 15,3 C 26,3 C 12,9 km/h (3 Bft) 98,57 %
07.07.2017 11:44 26,3 C 25,0 C 51 % 1015,8 hPa 0,0 l/m 7,9 km/h (2 Bft) W 259 1 min 0,000 mm 5,1 UV-I 853 W/m 15,3 C 26,0 C 12,9 km/h (3 Bft) 95,83 %
07.07.2017 11:46 26,4 C 25,0 C 49 % 1015,8 hPa 0,0 l/m 6,8 km/h (2 Bft) SW 231 2 min 0,000 mm 5,3 UV-I 897 W/m 14,8 C 26,3 C 16,1 km/h (3 Bft) 90,00 %
07.07.2017 11:48 26,4 C 25,0 C 49 % 1015,8 hPa 0,0 l/m 9,1 km/h (2 Bft) NW 306 2 min 0,000 mm 4,1 UV-I 909 W/m 14,8 C 25,9 C 16,1 km/h (3 Bft) 95,74 %
07.07.2017 11:50 26,2 C 25,0 C 49 % 1015,8 hPa 0,0 l/m 3,5 km/h (1 Bft) W-NW 295 0 min 0,000 mm 4,4 UV-I 330 W/m 14,6 C 26,2 C 8,0 km/h (2 Bft) 96,00 %
07.07.2017 11:52 26,2 C 25,0 C 51 % 1015,8 hPa 0,0 l/m 5,0 km/h (1 Bft) W-SW 238 2 min 0,000 mm 5,5 UV-I 713 W/m 15,2 C 26,2 C 14,5 km/h (3 Bft) 97,37 %
07.07.2017 11:54 26,3 C 25,0 C 51 % 1015,8 hPa 0,0 l/m 6,6 km/h (2 Bft) W-SW 239 2 min 0,000 mm 5,2 UV-I 889 W/m 15,3 C 26,3 C 12,9 km/h (3 Bft) 98,11 %
07.07.2017 11:56 26,4 C 25,0 C 50 % 1015,7 hPa 0,0 l/m 7,8 km/h (2 Bft) S-SO 167 2 min 0,000 mm 5,0 UV-I 837 W/m 15,1 C 26,1 C 12,9 km/h (3 Bft) 95,12 %
07.07.2017 11:58 26,5 C 25,0 C 50 % 1015,8 hPa 0,0 l/m 8,7 km/h (2 Bft) S-SW 203 2 min 0,000 mm 4,8 UV-I 698 W/m 15,2 C 26,0 C 14,5 km/h (3 Bft) 96,43 %
07.07.2017 12:00 26,5 C 25,0 C 49 % 1015,9 hPa 0,0 l/m 11,4 km/h (2 Bft) W-SW 241 2 min 0,000 mm 4,4 UV-I 626 W/m 14,9 C 25,6 C 16,1 km/h (3 Bft) 97,87 %
07.07.2017 12:02 26,4 C 25,0 C 49 % 1015,8 hPa 0,0 l/m 9,5 km/h (2 Bft) SW 227 2 min 0,533 mm 5,2 UV-I 740 W/m 14,8 C 25,8 C 16,1 km/h (3 Bft) 96,30 %
07.07.2017 12:04 26,6 C 25,0 C 51 % 1015,8 hPa 0,0 l/m 5,2 km/h (1 Bft) S-SO 159 2 min 0,000 mm 5,6 UV-I 951 W/m 15,6 C 26,6 C 9,7 km/h (2 Bft) 98,11 %
07.07.2017 12:06 26,9 C 25,0 C 50 % 1015,8 hPa 0,0 l/m 11,9 km/h (2 Bft) S-SW 192 2 min 0,000 mm 5,4 UV-I 973 W/m 15,6 C 26,0 C 20,9 km/h (4 Bft) 94,83 %
07.07.2017 12:08 27,0 C 25,0 C 49 % 1015,9 hPa 0,0 l/m 14,7 km/h (3 Bft) SW 229 0 min 0,000 mm 4,6 UV-I 466 W/m 15,4 C 25,8 C 24,1 km/h (4 Bft) 97,44 %
07.07.2017 12:10 26,9 C 25,0 C 50 % 1015,9 hPa 0,0 l/m 9,3 km/h (2 Bft) SW 229 0 min 0,000 mm 5,1 UV-I 466 W/m 15,6 C 26,4 C 16,1 km/h (3 Bft) 91,49 %
07.07.2017 12:12 27,0 C 25,0 C 50 % 1015,9 hPa 0,0 l/m 4,7 km/h (1 Bft) S-SO 161 2 min 0,000 mm 5,1 UV-I 480 W/m 15,7 C 27,0 C 11,3 km/h (2 Bft) 90,91 %
07.07.2017 12:14 26,8 C 25,0 C 49 % 1015,9 hPa 0,0 l/m 2,4 km/h (1 Bft) SO 141 2 min 0,000 mm 5,1 UV-I 969 W/m 15,2 C 26,8 C 4,8 km/h (1 Bft) 98,04 %
07.07.2017 12:16 26,7 C 25,0 C 51 % 1015,8 hPa 0,0 l/m 3,7 km/h (1 Bft) S-SO 161 2 min 0,000 mm 4,9 UV-I 871 W/m 15,7 C 26,7 C 6,4 km/h (2 Bft) 97,87 %
07.07.2017 12:18 26,7 C 25,0 C 51 % 1015,7 hPa 0,0 l/m 6,1 km/h (2 Bft) S-SW 192 2 min 0,000 mm 4,7 UV-I 693 W/m 15,7 C 26,7 C 11,3 km/h (2 Bft) 92,00 %
07.07.2017 12:20 26,6 C 25,0 C 50 % 1015,7 hPa 0,0 l/m 4,9 km/h (1 Bft) S 191 2 min 0,000 mm 5,1 UV-I 720 W/m 15,3 C 26,6 C 9,7 km/h (2 Bft) 90,00 %
07.07.2017 12:23 26,8 C 25,0 C 51 % 1015,6 hPa 0,0 l/m 5,7 km/h (1 Bft) S-SW 209 3 min 0,000 mm 5,4 UV-I 803 W/m 15,8 C 26,8 C 12,9 km/h (3 Bft) 96,88 %
07.07.2017 12:24 26,9 C 25,0 C 50 % 1015,6 hPa 0,0 l/m 7,3 km/h (2 Bft) SW 228 1 min 0,000 mm 6,0 UV-I 803 W/m 15,6 C 26,7 C 12,9 km/h (3 Bft) 100,00 %
07.07.2017 12:26 27,2 C 25,0 C 49 % 1015,6 hPa 0,0 l/m 7,1 km/h (2 Bft) S-SO 161 2 min 0,000 mm 5,5 UV-I 803 W/m 15,5 C 27,1 C 14,5 km/h (3 Bft) 100,00 %
07.07.2017 12:28 27,2 C 25,0 C 50 % 1015,6 hPa 0,0 l/m 5,6 km/h (1 Bft) SO 132 2 min 0,000 mm 5,1 UV-I 803 W/m 15,9 C 27,2 C 11,3 km/h (2 Bft) 98,11 %
07.07.2017 12:30 27,3 C 25,0 C 49 % 1015,5 hPa 0,0 l/m 6,8 km/h (2 Bft) S-SO 150 2 min 0,000 mm 5,2 UV-I 665 W/m 15,6 C 27,2 C 14,5 km/h (3 Bft) 93,62 %
07.07.2017 12:32 27,3 C 25,0 C 48 % 1015,5 hPa 0,0 l/m 4,6 km/h (1 Bft) SW 233 2 min 0,000 mm 5,1 UV-I 659 W/m 15,3 C 27,3 C 9,7 km/h (2 Bft) 97,87 %
07.07.2017 12:34 27,4 C 25,0 C 48 % 1015,4 hPa 0,0 l/m 1,6 km/h (1 Bft) S 170 2 min 0,000 mm 5,1 UV-I 672 W/m 15,4 C 27,4 C 4,8 km/h (1 Bft) 90,00 %
07.07.2017 12:36 27,5 C 25,0 C 48 % 1015,5 hPa 0,0 l/m 3,3 km/h (1 Bft) S 184 2 min 0,000 mm 4,8 UV-I 736 W/m 15,5 C 27,5 C 9,7 km/h (2 Bft) 100,00 %
07.07.2017 12:38 27,3 C 25,0 C 48 % 1015,5 hPa 0,0 l/m 6,4 km/h (2 Bft) W-SW 253 2 min 0,000 mm 3,6 UV-I 528 W/m 15,3 C 27,3 C 12,9 km/h (3 Bft) 97,56 %
07.07.2017 12:40 27,2 C 25,0 C 48 % 1015,6 hPa 0,0 l/m 7,1 km/h (2 Bft) W 281 0 min 0,000 mm 3,6 UV-I 447 W/m 15,2 C 27,1 C 14,5 km/h (3 Bft) 94,00 %
07.07.2017 12:42 27,3 C 25,0 C 50 % 1015,5 hPa 0,0 l/m 8,8 km/h (2 Bft) S-SW 204 0 min 0,000 mm 3,9 UV-I 443 W/m 15,9 C 26,9 C 19,3 km/h (3 Bft) 95,74 %
07.07.2017 12:44 27,4 C 25,0 C 48 % 1015,5 hPa 0,0 l/m 11,4 km/h (2 Bft) SW 227 0 min 0,000 mm 5,4 UV-I 445 W/m 15,4 C 26,6 C 19,3 km/h (3 Bft) 96,23 %
07.07.2017 12:46 27,6 C 25,0 C 48 % 1015,5 hPa 0,0 l/m 10,2 km/h (2 Bft) W-SW 246 2 min 0,000 mm 5,3 UV-I 692 W/m 15,6 C 27,0 C 16,1 km/h (3 Bft) 97,73 %
07.07.2017 12:48 27,7 C 25,0 C 47 % 1015,5 hPa 0,0 l/m 13,3 km/h (3 Bft) W-SW 242 2 min 0,000 mm 4,6 UV-I 650 W/m 15,3 C 26,8 C 19,3 km/h (3 Bft) 95,24 %
07.07.2017 12:50 27,7 C 25,0 C 47 % 1015,5 hPa 0,0 l/m 9,1 km/h (2 Bft) SW 220 2 min 0,000 mm 6,0 UV-I 582 W/m 15,3 C 27,3 C 14,5 km/h (3 Bft) 97,73 %
07.07.2017 12:52 27,9 C 25,0 C 45 % 1015,5 hPa 0,0 l/m 6,7 km/h (2 Bft) S-SO 159 2 min 0,000 mm 5,3 UV-I 582 W/m 14,8 C 27,9 C 12,9 km/h (3 Bft) 94,34 %
07.07.2017 12:54 28,1 C 25,0 C 48 % 1015,4 hPa 0,0 l/m 7,6 km/h (2 Bft) S-SW 212 2 min 0,000 mm 5,6 UV-I 821 W/m 16,0 C 27,9 C 12,9 km/h (3 Bft) 95,12 %
07.07.2017 12:56 28,3 C 25,0 C 46 % 1015,4 hPa 0,0 l/m 8,2 km/h (2 Bft) W 261 2 min 0,000 mm 4,4 UV-I 644 W/m 15,6 C 28,0 C 12,9 km/h (3 Bft) 96,23 %
07.07.2017 12:58 28,2 C 25,0 C 46 % 1015,5 hPa 0,0 l/m 9,5 km/h (2 Bft) SW 227 2 min 0,000 mm 4,1 UV-I 568 W/m 15,5 C 27,8 C 16,1 km/h (3 Bft) 97,14 %
07.07.2017 13:00 28,0 C 25,0 C 46 % 1015,5 hPa 0,0 l/m 11,0 km/h (2 Bft) W-SW 254 2 min 0,533 mm 3,7 UV-I 552 W/m 15,3 C 27,4 C 14,5 km/h (3 Bft) 98,21 %
07.07.2017 13:02 27,8 C 25,0 C 46 % 1015,5 hPa 0,0 l/m 9,5 km/h (2 Bft) SW 225 2 min 0,000 mm 2,5 UV-I 552 W/m 15,1 C 27,3 C 16,1 km/h (3 Bft) 97,56 %
07.07.2017 13:04 27,6 C 25,0 C 47 % 1015,5 hPa 0,0 l/m 9,9 km/h (2 Bft) S-SW 198 0 min 0,000 mm 1,6 UV-I 262 W/m 15,3 C 27,0 C 16,1 km/h (3 Bft) 96,00 %
07.07.2017 13:06 27,4 C 25,0 C 49 % 1015,6 hPa 0,0 l/m 6,9 km/h (2 Bft) S-SW 202 0 min 0,000 mm 1,2 UV-I 178 W/m 15,7 C 27,3 C 16,1 km/h (3 Bft) 94,34 %
07.07.2017 13:08 27,3 C 25,0 C 49 % 1015,7 hPa 0,0 l/m 10,5 km/h (2 Bft) SW 226 0 min 0,000 mm 1,2 UV-I 168 W/m 15,6 C 26,6 C 17,7 km/h (3 Bft) 97,73 %
07.07.2017 13:10 27,1 C 25,0 C 48 % 1016,0 hPa 0,0 l/m 12,0 km/h (2 Bft) W 269 0 min 0,000 mm 1,1 UV-I 165 W/m 15,1 C 26,2 C 17,7 km/h (3 Bft) 96,23 %
07.07.2017 13:12 27,0 C 25,0 C 48 % 1016,2 hPa 0,0 l/m 6,5 km/h (2 Bft) W 259 0 min 0,000 mm 1,1 UV-I 168 W/m 15,0 C 27,0 C 12,9 km/h (3 Bft) 96,88 %
07.07.2017 13:14 26,9 C 25,0 C 48 % 1016,3 hPa 0,0 l/m 7,5 km/h (2 Bft) W-SW 253 0 min 0,000 mm 1,3 UV-I 188 W/m 14,9 C 26,7 C 12,9 km/h (3 Bft) 92,86 %
07.07.2017 13:16 26,9 C 25,0 C 48 % 1016,4 hPa 0,0 l/m 5,7 km/h (1 Bft) W 276 0 min 0,000 mm 1,5 UV-I 227 W/m 14,9 C 26,9 C 12,9 km/h (3 Bft) 98,00 %
07.07.2017 13:18 26,9 C 25,0 C 48 % 1016,4 hPa 0,0 l/m 7,5 km/h (2 Bft) W-SW 257 0 min 0,000 mm 1,9 UV-I 275 W/m 14,9 C 26,7 C 16,1 km/h (3 Bft) 95,12 %
07.07.2017 13:20 26,9 C 25,0 C 49 % 1016,4 hPa 0,0 l/m 7,9 km/h (2 Bft) W-SW 238 0 min 0,000 mm 2,4 UV-I 326 W/m 15,3 C 26,6 C 12,9 km/h (3 Bft) 96,23 %
07.07.2017 13:22 27,1 C 25,0 C 50 % 1016,3 hPa 0,0 l/m 4,6 km/h (1 Bft) W 281 0 min 0,000 mm 2,9 UV-I 409 W/m 15,8 C 27,1 C 8,0 km/h (2 Bft) 92,68 %
07.07.2017 13:24 27,2 C 25,0 C 49 % 1016,4 hPa 0,0 l/m 7,8 km/h (2 Bft) N-NW 327 0 min 0,000 mm 3,1 UV-I 433 W/m 15,5 C 26,9 C 19,3 km/h (3 Bft) 96,23 %
07.07.2017 13:26 27,3 C 25,0 C 49 % 1016,4 hPa 0,0 l/m 6,3 km/h (2 Bft) N 5 0 min 0,000 mm 3,7 UV-I 427 W/m 15,6 C 27,3 C 12,9 km/h (3 Bft) 97,87 %
07.07.2017 13:28 27,4 C 25,0 C 47 % 1016,4 hPa 0,0 l/m 5,8 km/h (2 Bft) N 5 0 min 0,000 mm 3,0 UV-I 403 W/m 15,1 C 27,4 C 11,3 km/h (2 Bft) 95,74 %
07.07.2017 13:30 27,4 C 25,0 C 48 % 1016,4 hPa 0,0 l/m 9,7 km/h (2 Bft) W-SW 244 0 min 0,000 mm 2,4 UV-I 338 W/m 15,4 C 26,9 C 22,5 km/h (4 Bft) 97,44 %
07.07.2017 13:32 27,3 C 25,0 C 47 % 1016,4 hPa 0,0 l/m 14,8 km/h (3 Bft) SW 227 0 min 0,000 mm 2,2 UV-I 310 W/m 15,0 C 26,1 C 24,1 km/h (4 Bft) 96,00 %
07.07.2017 13:34 27,2 C 25,0 C 48 % 1016,3 hPa 0,0 l/m 10,3 km/h (2 Bft) SW 217 0 min 0,000 mm 2,2 UV-I 319 W/m 15,2 C 26,6 C 20,9 km/h (4 Bft) 92,68 %
07.07.2017 13:36 27,1 C 25,0 C 49 % 1016,4 hPa 0,0 l/m 9,0 km/h (2 Bft) W-SW 244 0 min 0,000 mm 2,7 UV-I 391 W/m 15,4 C 26,6 C 17,7 km/h (3 Bft) 96,43 %
07.07.2017 13:38 27,0 C 25,0 C 48 % 1016,3 hPa 0,0 l/m 11,1 km/h (2 Bft) W-SW 244 0 min 0,000 mm 3,0 UV-I 422 W/m 15,0 C 26,2 C 22,5 km/h (4 Bft) 92,11 %
07.07.2017 13:40 27,2 C 25,0 C 49 % 1016,2 hPa 0,0 l/m 7,7 km/h (2 Bft) W-NW 300 2 min 0,000 mm 3,1 UV-I 510 W/m 15,5 C 27,0 C 17,7 km/h (3 Bft) 93,62 %
07.07.2017 13:42 27,3 C 25,6 C 48 % 1016,1 hPa 0,0 l/m 6,9 km/h (2 Bft) W 266 0 min 0,000 mm 3,1 UV-I 465 W/m 15,3 C 27,2 C 11,3 km/h (2 Bft) 96,00 %
07.07.2017 13:44 27,4 C 25,0 C 47 % 1016,1 hPa 0,0 l/m 7,1 km/h (2 Bft) W-SW 252 0 min 0,000 mm 2,9 UV-I 447 W/m 15,1 C 27,3 C 12,9 km/h (3 Bft) 98,00 %
07.07.2017 13:46 27,5 C 25,6 C 48 % 1016,0 hPa 0,0 l/m 4,7 km/h (1 Bft) W-NW 293 0 min 0,000 mm 2,7 UV-I 424 W/m 15,5 C 27,5 C 8,0 km/h (2 Bft) 92,00 %
07.07.2017 13:48 27,6 C 25,6 C 46 % 1015,8 hPa 0,0 l/m 4,4 km/h (1 Bft) W 263 0 min 0,000 mm 2,3 UV-I 346 W/m 14,9 C 27,6 C 8,0 km/h (2 Bft) 92,68 %
07.07.2017 13:50 27,4 C 25,6 C 47 % 1015,8 hPa 0,0 l/m 4,2 km/h (1 Bft) W-SW 247 0 min 0,000 mm 2,2 UV-I 310 W/m 15,1 C 27,4 C 8,0 km/h (2 Bft) 95,45 %
07.07.2017 13:52 27,4 C 25,6 C 47 % 1015,8 hPa 0,0 l/m 3,2 km/h (1 Bft) W 261 0 min 0,000 mm 2,1 UV-I 300 W/m 15,1 C 27,4 C 6,4 km/h (2 Bft) 91,49 %
07.07.2017 13:54 27,3 C 25,6 C 47 % 1015,9 hPa 0,0 l/m 4,8 km/h (1 Bft) SW 215 0 min 0,000 mm 2,0 UV-I 297 W/m 15,0 C 27,3 C 11,3 km/h (2 Bft) 96,23 %
07.07.2017 13:56 27,2 C 25,6 C 47 % 1015,9 hPa 0,0 l/m 7,1 km/h (2 Bft) SW 234 0 min 0,000 mm 2,3 UV-I 362 W/m 14,9 C 27,1 C 12,9 km/h (3 Bft) 96,00 %
07.07.2017 13:58 27,3 C 25,6 C 48 % 1015,9 hPa 0,0 l/m 5,8 km/h (2 Bft) W-SW 255 0 min 0,000 mm 2,6 UV-I 411 W/m 15,3 C 27,3 C 11,3 km/h (2 Bft) 95,12 %
07.07.2017 14:00 27,4 C 25,6 C 48 % 1015,9 hPa 0,0 l/m 8,2 km/h (2 Bft) W 261 0 min 0,305 mm 2,9 UV-I 451 W/m 15,4 C 27,1 C 12,9 km/h (3 Bft) 97,44 %
07.07.2017 14:02 27,4 C 25,6 C 47 % 1016,0 hPa 0,0 l/m 12,8 km/h (3 Bft) SW 232 0 min 0,000 mm 3,0 UV-I 452 W/m 15,1 C 26,5 C 19,3 km/h (3 Bft) 96,23 %
07.07.2017 14:04 27,6 C 25,6 C 45 % 1016,0 hPa 0,0 l/m 15,2 km/h (3 Bft) W 281 0 min 0,000 mm 3,0 UV-I 463 W/m 14,6 C 26,4 C 22,5 km/h (4 Bft) 96,00 %
07.07.2017 14:06 27,7 C 25,6 C 46 % 1016,1 hPa 0,0 l/m 12,9 km/h (3 Bft) W 265 0 min 0,000 mm 2,8 UV-I 431 W/m 15,0 C 26,8 C 20,9 km/h (4 Bft) 100,00 %
07.07.2017 14:08 27,7 C 25,6 C 46 % 1016,0 hPa 0,0 l/m 11,8 km/h (2 Bft) SW 217 0 min 0,000 mm 2,9 UV-I 419 W/m 15,0 C 26,9 C 22,5 km/h (4 Bft) 96,43 %
07.07.2017 14:10 27,7 C 25,6 C 42 % 1015,9 hPa 0,0 l/m 18,0 km/h (3 Bft) W 259 2 min 0,000 mm 4,2 UV-I 531 W/m 13,6 C 26,3 C 27,4 km/h (4 Bft) 96,00 %
07.07.2017 14:12 27,9 C 25,6 C 46 % 1015,9 hPa 0,0 l/m 10,8 km/h (2 Bft) W 260 2 min 0,000 mm 4,8 UV-I 991 W/m 15,2 C 27,3 C 22,5 km/h (4 Bft) 93,18 %
07.07.2017 14:14 28,2 C 25,6 C 44 % 1015,8 hPa 0,0 l/m 13,7 km/h (3 Bft) W 275 2 min 0,000 mm 3,9 UV-I 1000 W/m 14,8 C 27,3 C 24,1 km/h (4 Bft) 96,15 %
07.07.2017 14:16 28,3 C 25,6 C 43 % 1015,6 hPa 0,0 l/m 14,8 km/h (3 Bft) W-SW 257 0 min 0,000 mm 2,9 UV-I 395 W/m 14,5 C 27,3 C 27,4 km/h (4 Bft) 97,06 %
07.07.2017 14:18 28,1 C 25,6 C 43 % 1015,6 hPa 0,0 l/m 9,6 km/h (2 Bft) SW 232 0 min 0,000 mm 2,3 UV-I 331 W/m 14,3 C 27,6 C 17,7 km/h (3 Bft) 100,00 %
07.07.2017 14:20 27,9 C 25,6 C 41 % 1015,7 hPa 0,0 l/m 16,8 km/h (3 Bft) W 261 0 min 0,000 mm 2,1 UV-I 304 W/m 13,4 C 26,7 C 27,4 km/h (4 Bft) 98,11 %
07.07.2017 14:22 27,6 C 25,6 C 42 % 1015,6 hPa 0,0 l/m 17,6 km/h (3 Bft) S-SW 199 0 min 0,000 mm 2,0 UV-I 296 W/m 13,5 C 26,2 C 25,7 km/h (4 Bft) 97,92 %
07.07.2017 14:24 27,5 C 25,6 C 43 % 1015,4 hPa 0,0 l/m 18,9 km/h (3 Bft) W-SW 256 0 min 0,000 mm 2,1 UV-I 306 W/m 13,8 C 26,0 C 27,4 km/h (4 Bft) 98,00 %
07.07.2017 14:26 27,3 C 25,6 C 43 % 1015,1 hPa 0,0 l/m 11,5 km/h (2 Bft) SW 230 0 min 0,000 mm 2,2 UV-I 323 W/m 13,6 C 26,5 C 19,3 km/h (3 Bft) 97,14 %
07.07.2017 14:28 27,2 C 25,6 C 43 % 1014,9 hPa 0,0 l/m 11,8 km/h (2 Bft) W-SW 254 0 min 0,000 mm 2,5 UV-I 366 W/m 13,5 C 26,3 C 19,3 km/h (3 Bft) 100,00 %
07.07.2017 14:30 27,2 C 25,6 C 42 % 1015,0 hPa 0,0 l/m 11,2 km/h (2 Bft) W-SW 251 0 min 0,000 mm 2,7 UV-I 409 W/m 13,2 C 26,4 C 16,1 km/h (3 Bft) 100,00 %
07.07.2017 14:32 27,2 C 25,6 C 44 % 1015,1 hPa 0,0 l/m 12,7 km/h (3 Bft) W-SW 238 0 min 0,000 mm 2,8 UV-I 423 W/m 13,9 C 26,2 C 19,3 km/h (3 Bft) 97,78 %
07.07.2017 14:34 27,3 C 25,6 C 42 % 1015,0 hPa 0,0 l/m 14,1 km/h (3 Bft) SW 233 0 min 0,000 mm 2,9 UV-I 434 W/m 13,2 C 26,2 C 27,4 km/h (4 Bft) 100,00 %
07.07.2017 14:36 27,4 C 25,6 C 42 % 1015,0 hPa 0,0 l/m 12,9 km/h (3 Bft) SW 225 0 min 0,000 mm 2,9 UV-I 433 W/m 13,3 C 26,4 C 25,7 km/h (4 Bft) 98,18 %
07.07.2017 14:38 27,5 C 25,6 C 42 % 1015,0 hPa 0,0 l/m 14,5 km/h (3 Bft) W-NW 282 2 min 0,000 mm 3,1 UV-I 467 W/m 13,4 C 26,4 C 25,7 km/h (4 Bft) 96,43 %
07.07.2017 14:40 27,6 C 25,6 C 42 % 1015,0 hPa 0,0 l/m 15,0 km/h (3 Bft) SW 214 2 min 0,000 mm 3,2 UV-I 485 W/m 13,5 C 26,5 C 20,9 km/h (4 Bft) 97,87 %
07.07.2017 14:42 27,7 C 25,6 C 42 % 1014,9 hPa 0,0 l/m 14,4 km/h (3 Bft) W-SW 241 2 min 0,000 mm 3,6 UV-I 505 W/m 13,6 C 26,6 C 19,3 km/h (3 Bft) 98,00 %
07.07.2017 14:44 27,8 C 25,6 C 42 % 1014,8 hPa 0,0 l/m 12,8 km/h (3 Bft) W-SW 244 2 min 0,000 mm 4,4 UV-I 605 W/m 13,7 C 26,9 C 20,9 km/h (4 Bft) 100,00 %
07.07.2017 14:46 28,1 C 25,6 C 42 % 1014,8 hPa 0,0 l/m 11,3 km/h (2 Bft) W 264 2 min 0,000 mm 4,1 UV-I 674 W/m 14,0 C 27,4 C 19,3 km/h (3 Bft) 98,53 %
07.07.2017 14:48 28,2 C 25,6 C 41 % 1014,7 hPa 0,0 l/m 11,0 km/h (2 Bft) SW 231 2 min 0,000 mm 3,7 UV-I 547 W/m 13,7 C 27,6 C 17,7 km/h (3 Bft) 100,00 %
07.07.2017 14:50 28,2 C 25,6 C 42 % 1014,7 hPa 0,0 l/m 10,3 km/h (2 Bft) W 269 2 min 0,000 mm 5,9 UV-I 571 W/m 14,0 C 27,7 C 17,7 km/h (3 Bft) 100,00 %
07.07.2017 14:52 28,5 C 25,6 C 43 % 1014,7 hPa 0,0 l/m 12,7 km/h (3 Bft) W-NW 288 2 min 0,000 mm 5,7 UV-I 571 W/m 14,7 C 27,8 C 19,3 km/h (3 Bft) 96,00 %
07.07.2017 14:54 28,8 C 25,6 C 41 % 1014,6 hPa 0,0 l/m 12,7 km/h (3 Bft) SW 234 2 min 0,000 mm 5,2 UV-I 571 W/m 14,2 C 28,1 C 17,7 km/h (3 Bft) 100,00 %
07.07.2017 14:56 28,9 C 25,6 C 42 % 1014,6 hPa 0,0 l/m 9,1 km/h (2 Bft) SW 232 2 min 0,000 mm 4,7 UV-I 598 W/m 14,7 C 28,6 C 16,1 km/h (3 Bft) 97,30 %
07.07.2017 14:58 29,1 C 25,6 C 41 % 1014,5 hPa 0,0 l/m 11,4 km/h (2 Bft) W-SW 257 2 min 0,000 mm 5,5 UV-I 920 W/m 14,5 C 28,6 C 20,9 km/h (4 Bft) 96,43 %
07.07.2017 15:00 29,1 C 25,6 C 41 % 1014,3 hPa 0,0 l/m 14,8 km/h (3 Bft) W-SW 238 2 min 0,000 mm 5,2 UV-I 930 W/m 14,5 C 28,3 C 22,5 km/h (4 Bft) 97,37 %
07.07.2017 15:02 29,0 C 25,6 C 40 % 1014,2 hPa 0,0 l/m 11,0 km/h (2 Bft) SW 223 2 min 0,483 mm 5,6 UV-I 962 W/m 14,0 C 28,5 C 16,1 km/h (3 Bft) 95,45 %
07.07.2017 15:04 28,9 C 25,6 C 41 % 1014,3 hPa 0,0 l/m 15,2 km/h (3 Bft) W-SW 250 2 min 0,000 mm 3,3 UV-I 900 W/m 14,3 C 28,0 C 22,5 km/h (4 Bft) 100,00 %
07.07.2017 15:06 28,8 C 25,6 C 41 % 1014,3 hPa 0,0 l/m 18,9 km/h (3 Bft) SW 225 0 min 0,000 mm 4,0 UV-I 386 W/m 14,2 C 27,6 C 27,4 km/h (4 Bft) 98,11 %
07.07.2017 15:08 28,7 C 25,6 C 41 % 1014,2 hPa 0,0 l/m 20,0 km/h (4 Bft) W-SW 252 0 min 0,000 mm 5,0 UV-I 436 W/m 14,1 C 27,4 C 27,4 km/h (4 Bft) 97,87 %
07.07.2017 15:10 28,9 C 25,6 C 42 % 1014,2 hPa 0,0 l/m 17,3 km/h (3 Bft) SW 236 2 min 0,000 mm 5,1 UV-I 879 W/m 14,7 C 27,9 C 27,4 km/h (4 Bft) 97,73 %
07.07.2017 15:12 29,2 C 25,6 C 42 % 1014,1 hPa 0,0 l/m 11,9 km/h (2 Bft) SW 230 2 min 0,000 mm 5,0 UV-I 843 W/m 14,9 C 28,6 C 24,1 km/h (4 Bft) 100,00 %
07.07.2017 15:14 29,3 C 25,6 C 41 % 1014,2 hPa 0,0 l/m 14,0 km/h (3 Bft) W 268 2 min 0,000 mm 4,9 UV-I 824 W/m 14,7 C 28,6 C 22,5 km/h (4 Bft) 98,51 %
07.07.2017 15:16 29,3 C 25,6 C 40 % 1014,1 hPa 0,0 l/m 11,7 km/h (2 Bft) W-SW 244 2 min 0,000 mm 4,8 UV-I 814 W/m 14,3 C 28,8 C 22,5 km/h (4 Bft) 94,00 %
07.07.2017 15:18 29,3 C 25,6 C 42 % 1014,0 hPa 0,0 l/m 14,1 km/h (3 Bft) S-SW 211 2 min 0,000 mm 4,8 UV-I 815 W/m 15,0 C 28,6 C 19,3 km/h (3 Bft) 97,37 %
07.07.2017 15:20 29,5 C 25,6 C 41 % 1014,0 hPa 0,0 l/m 12,4 km/h (3 Bft) S-SW 196 2 min 0,000 mm 4,8 UV-I 818 W/m 14,8 C 28,9 C 22,5 km/h (4 Bft) 96,23 %
07.07.2017 15:22 29,6 C 25,6 C 41 % 1014,1 hPa 0,0 l/m 14,7 km/h (3 Bft) SW 217 2 min 0,000 mm 4,8 UV-I 851 W/m 14,9 C 28,9 C 20,9 km/h (4 Bft) 100,00 %
07.07.2017 15:24 29,9 C 25,6 C 41 % 1014,0 hPa 0,0 l/m 12,7 km/h (3 Bft) S-SW 194 2 min 0,000 mm 4,8 UV-I 873 W/m 15,2 C 29,4 C 25,7 km/h (4 Bft) 100,00 %
07.07.2017 15:26 30,0 C 25,6 C 39 % 1014,0 hPa 0,0 l/m 16,0 km/h (3 Bft) SW 221 2 min 0,000 mm 4,7 UV-I 861 W/m 14,5 C 29,3 C 25,7 km/h (4 Bft) 100,00 %
07.07.2017 15:28 29,9 C 25,6 C 40 % 1014,0 hPa 0,0 l/m 15,5 km/h (3 Bft) W 269 2 min 0,000 mm 4,4 UV-I 591 W/m 14,8 C 29,2 C 24,1 km/h (4 Bft) 100,00 %
07.07.2017 15:30 29,8 C 25,6 C 39 % 1014,1 hPa 0,0 l/m 17,6 km/h (3 Bft) S-SW 210 2 min 0,000 mm 3,4 UV-I 640 W/m 14,3 C 29,0 C 25,7 km/h (4 Bft) 97,87 %
07.07.2017 15:32 29,4 C 25,6 C 39 % 1014,0 hPa 0,0 l/m 13,1 km/h (3 Bft) W-SW 237 0 min 0,000 mm 2,7 UV-I 257 W/m 14,0 C 28,8 C 24,1 km/h (4 Bft) 96,23 %
07.07.2017 15:34 29,3 C 25,6 C 40 % 1014,0 hPa 0,0 l/m 8,8 km/h (2 Bft) W-SW 253 0 min 0,000 mm 3,1 UV-I 262 W/m 14,3 C 29,0 C 12,9 km/h (3 Bft) 100,00 %
07.07.2017 15:36 29,3 C 25,6 C 40 % 1014,0 hPa 0,0 l/m 14,1 km/h (3 Bft) W-SW 250 0 min 0,000 mm 3,1 UV-I 292 W/m 14,3 C 28,6 C 20,9 km/h (4 Bft) 98,11 %
07.07.2017 15:38 29,3 C 25,6 C 40 % 1014,0 hPa 0,0 l/m 13,5 km/h (3 Bft) SW 217 0 min 0,000 mm 2,8 UV-I 316 W/m 14,3 C 28,6 C 22,5 km/h (4 Bft) 100,00 %
07.07.2017 15:40 29,2 C 25,6 C 40 % 1013,9 hPa 0,0 l/m 10,5 km/h (2 Bft) W-SW 238 0 min 0,000 mm 2,4 UV-I 269 W/m 14,2 C 28,8 C 17,7 km/h (3 Bft) 100,00 %
07.07.2017 15:42 29,2 C 25,6 C 40 % 1014,0 hPa 0,0 l/m 10,9 km/h (2 Bft) S-SW 198 0 min 0,000 mm 2,7 UV-I 262 W/m 14,2 C 28,7 C 19,3 km/h (3 Bft) 96,00 %
07.07.2017 15:44 29,3 C 25,6 C 40 % 1014,0 hPa 0,0 l/m 10,3 km/h (2 Bft) W-SW 248 0 min 0,000 mm 2,8 UV-I 257 W/m 14,3 C 28,9 C 16,1 km/h (3 Bft) 97,73 %
07.07.2017 15:46 29,3 C 25,6 C 40 % 1014,0 hPa 0,0 l/m 12,0 km/h (2 Bft) SW 216 0 min 0,000 mm 2,1 UV-I 223 W/m 14,3 C 28,7 C 20,9 km/h (4 Bft) 96,23 %
07.07.2017 15:48 29,2 C 25,6 C 40 % 1014,0 hPa 0,0 l/m 14,0 km/h (3 Bft) W-SW 244 0 min 0,000 mm 2,0 UV-I 214 W/m 14,2 C 28,5 C 20,9 km/h (4 Bft) 97,56 %
07.07.2017 15:50 29,1 C 25,6 C 40 % 1014,0 hPa 0,0 l/m 9,9 km/h (2 Bft) SW 236 0 min 0,000 mm 2,0 UV-I 240 W/m 14,1 C 28,7 C 16,1 km/h (3 Bft) 95,45 %
07.07.2017 15:52 29,1 C 25,6 C 40 % 1014,0 hPa 0,0 l/m 9,9 km/h (2 Bft) W-SW 240 0 min 0,000 mm 2,0 UV-I 263 W/m 14,1 C 28,7 C 20,9 km/h (4 Bft) 96,00 %
07.07.2017 15:54 29,1 C 25,6 C 40 % 1013,9 hPa 0,0 l/m 7,7 km/h (2 Bft) W-SW 258 0 min 0,000 mm 2,0 UV-I 285 W/m 14,1 C 28,9 C 14,5 km/h (3 Bft) 97,87 %
07.07.2017 15:56 29,1 C 25,6 C 40 % 1014,0 hPa 0,0 l/m 8,5 km/h (2 Bft) W 277 0 min 0,000 mm 3,0 UV-I 287 W/m 14,1 C 28,8 C 14,5 km/h (3 Bft) 97,73 %
07.07.2017 15:58 29,3 C 25,6 C 39 % 1014,0 hPa 0,0 l/m 8,2 km/h (2 Bft) W-NW 285 0 min 0,000 mm 2,5 UV-I 388 W/m 13,9 C 29,1 C 17,7 km/h (3 Bft) 95,74 %
07.07.2017 16:00 29,4 C 25,6 C 39 % 1014,0 hPa 0,0 l/m 10,9 km/h (2 Bft) W-SW 254 2 min 0,508 mm 2,7 UV-I 429 W/m 14,0 C 28,9 C 17,7 km/h (3 Bft) 97,92 %
07.07.2017 16:02 29,6 C 25,6 C 39 % 1014,0 hPa 0,0 l/m 13,8 km/h (3 Bft) W-SW 246 2 min 0,000 mm 2,5 UV-I 561 W/m 14,2 C 29,0 C 17,7 km/h (3 Bft) 95,74 %
07.07.2017 16:04 29,7 C 25,6 C 37 % 1014,0 hPa 0,0 l/m 7,9 km/h (2 Bft) W 274 0 min 0,000 mm 2,4 UV-I 343 W/m 13,4 C 29,5 C 16,1 km/h (3 Bft) 96,00 %
07.07.2017 16:06 29,8 C 25,6 C 39 % 1013,9 hPa 0,0 l/m 12,7 km/h (3 Bft) W-SW 257 0 min 0,000 mm 2,4 UV-I 351 W/m 14,3 C 29,3 C 17,7 km/h (3 Bft) 97,56 %
07.07.2017 16:08 29,8 C 25,6 C 36 % 1013,9 hPa 0,0 l/m 16,9 km/h (3 Bft) W-SW 241 0 min 0,000 mm 2,0 UV-I 328 W/m 13,1 C 29,0 C 22,5 km/h (4 Bft) 93,62 %
07.07.2017 16:10 29,7 C 25,6 C 37 % 1014,0 hPa 0,0 l/m 13,7 km/h (3 Bft) W 273 0 min 0,000 mm 2,0 UV-I 337 W/m 13,4 C 29,1 C 22,5 km/h (4 Bft) 98,21 %
07.07.2017 16:12 29,6 C 25,6 C 38 % 1014,0 hPa 0,0 l/m 8,0 km/h (2 Bft) NW 309 2 min 0,000 mm 2,2 UV-I 392 W/m 13,8 C 29,4 C 16,1 km/h (3 Bft) 95,45 %
07.07.2017 16:14 29,6 C 25,6 C 36 % 1014,1 hPa 0,0 l/m 10,9 km/h (2 Bft) W-SW 246 2 min 0,000 mm 2,4 UV-I 402 W/m 12,9 C 29,2 C 20,9 km/h (4 Bft) 97,37 %
07.07.2017 16:16 29,7 C 25,6 C 37 % 1014,1 hPa 0,0 l/m 8,4 km/h (2 Bft) NW 322 2 min 0,000 mm 3,1 UV-I 431 W/m 13,4 C 29,5 C 14,5 km/h (3 Bft) 98,11 %
07.07.2017 16:18 29,8 C 25,6 C 36 % 1014,2 hPa 0,0 l/m 10,6 km/h (2 Bft) W-SW 241 2 min 0,000 mm 3,0 UV-I 536 W/m 13,1 C 29,4 C 24,1 km/h (4 Bft) 97,73 %
07.07.2017 16:20 30,0 C 25,6 C 36 % 1014,2 hPa 0,0 l/m 8,0 km/h (2 Bft) W-SW 241 2 min 0,000 mm 3,3 UV-I 806 W/m 13,3 C 29,9 C 16,1 km/h (3 Bft) 96,00 %
07.07.2017 16:22 30,1 C 25,6 C 36 % 1014,2 hPa 0,0 l/m 12,7 km/h (3 Bft) W-SW 248 2 min 0,000 mm 3,3 UV-I 816 W/m 13,4 C 29,6 C 27,4 km/h (4 Bft) 96,00 %
07.07.2017 16:24 30,4 C 25,6 C 36 % 1014,2 hPa 0,0 l/m 10,0 km/h (2 Bft) W-SW 248 2 min 0,000 mm 3,4 UV-I 839 W/m 13,6 C 30,1 C 17,7 km/h (3 Bft) 97,73 %
07.07.2017 16:26 30,4 C 25,6 C 33 % 1014,2 hPa 0,0 l/m 13,1 km/h (3 Bft) W 271 2 min 0,000 mm 3,4 UV-I 821 W/m 12,3 C 29,9 C 25,7 km/h (4 Bft) 100,00 %
07.07.2017 16:28 30,3 C 25,6 C 32 % 1014,1 hPa 0,0 l/m 20,4 km/h (4 Bft) S 173 2 min 0,000 mm 3,4 UV-I 807 W/m 11,7 C 29,5 C 35,4 km/h (5 Bft) 96,43 %
07.07.2017 16:30 30,2 C 25,6 C 32 % 1014,1 hPa 0,0 l/m 12,5 km/h (3 Bft) W 267 2 min 0,000 mm 3,3 UV-I 789 W/m 11,7 C 29,7 C 19,3 km/h (3 Bft) 100,00 %
07.07.2017 16:33 30,2 C 25,6 C 33 % 1014,2 hPa 0,0 l/m 13,7 km/h (3 Bft) W-NW 296 3 min 0,000 mm 3,3 UV-I 797 W/m 12,1 C 29,7 C 33,8 km/h (5 Bft) 94,81 %
07.07.2017 16:34 30,2 C 25,6 C 34 % 1014,2 hPa 0,0 l/m 5,0 km/h (1 Bft) N-NW 347 1 min 0,000 mm 3,2 UV-I 806 W/m 12,6 C 30,2 C 8,0 km/h (2 Bft) 96,74 %
07.07.2017 16:36 30,3 C 25,6 C 34 % 1014,3 hPa 0,0 l/m 11,5 km/h (2 Bft) N-NW 340 2 min 0,000 mm 3,0 UV-I 798 W/m 12,7 C 29,9 C 24,1 km/h (4 Bft) 96,61 %
07.07.2017 16:38 30,1 C 25,6 C 34 % 1014,4 hPa 0,0 l/m 12,2 km/h (2 Bft) W 277 2 min 0,000 mm 2,6 UV-I 798 W/m 12,5 C 29,6 C 25,7 km/h (4 Bft) 96,15 %
07.07.2017 16:40 29,7 C 25,6 C 36 % 1014,4 hPa 0,0 l/m 9,3 km/h (2 Bft) NW 318 2 min 0,000 mm 2,2 UV-I 798 W/m 13,0 C 29,4 C 19,3 km/h (3 Bft) 97,92 %
07.07.2017 16:42 29,3 C 25,6 C 37 % 1014,3 hPa 0,0 l/m 12,6 km/h (3 Bft) W-NW 297 0 min 0,000 mm 1,7 UV-I 200 W/m 13,1 C 28,7 C 25,7 km/h (4 Bft) 95,12 %
07.07.2017 16:44 28,8 C 25,6 C 38 % 1014,3 hPa 0,0 l/m 7,2 km/h (2 Bft) NW 310 0 min 0,000 mm 1,8 UV-I 217 W/m 13,0 C 28,7 C 20,9 km/h (4 Bft) 96,43 %
07.07.2017 16:46 28,5 C 25,6 C 39 % 1014,2 hPa 0,0 l/m 4,9 km/h (1 Bft) W 259 2 min 0,000 mm 2,4 UV-I 381 W/m 13,2 C 28,5 C 12,9 km/h (3 Bft) 100,00 %
07.07.2017 16:48 28,4 C 25,6 C 41 % 1014,2 hPa 0,0 l/m 6,2 km/h (2 Bft) W-SW 245 2 min 0,000 mm 2,5 UV-I 619 W/m 13,9 C 28,4 C 14,5 km/h (3 Bft) 91,53 %
07.07.2017 16:50 28,7 C 25,6 C 42 % 1014,1 hPa 0,0 l/m 5,4 km/h (1 Bft) W-SW 247 2 min 0,000 mm 2,4 UV-I 579 W/m 14,5 C 28,7 C 11,3 km/h (2 Bft) 95,74 %
07.07.2017 16:52 28,8 C 25,6 C 41 % 1014,1 hPa 0,0 l/m 8,2 km/h (2 Bft) SW 227 2 min 0,000 mm 2,1 UV-I 487 W/m 14,2 C 28,6 C 14,5 km/h (3 Bft) 96,15 %
07.07.2017 16:54 28,6 C 25,6 C 41 % 1014,1 hPa 0,0 l/m 5,1 km/h (1 Bft) W 271 2 min 0,000 mm 1,9 UV-I 353 W/m 14,0 C 28,6 C 11,3 km/h (2 Bft) 96,77 %
07.07.2017 16:56 28,3 C 25,6 C 42 % 1014,1 hPa 0,0 l/m 3,8 km/h (1 Bft) NW 312 2 min 0,000 mm 1,8 UV-I 427 W/m 14,1 C 28,3 C 8,0 km/h (2 Bft) 92,68 %
07.07.2017 16:58 28,3 C 25,6 C 43 % 1014,0 hPa 0,0 l/m 4,6 km/h (1 Bft) W-SW 238 2 min 0,000 mm 2,4 UV-I 608 W/m 14,5 C 28,3 C 8,0 km/h (2 Bft) 96,23 %
07.07.2017 17:00 28,4 C 25,6 C 44 % 1014,0 hPa 0,0 l/m 6,4 km/h (2 Bft) W-NW 285 2 min 0,000 mm 2,3 UV-I 586 W/m 14,9 C 28,4 C 12,9 km/h (3 Bft) 94,00 %
07.07.2017 17:02 28,4 C 25,6 C 42 % 1013,9 hPa 0,0 l/m 9,7 km/h (2 Bft) W 272 2 min 0,482 mm 2,2 UV-I 554 W/m 14,2 C 28,0 C 17,7 km/h (3 Bft) 97,73 %
07.07.2017 17:04 28,5 C 25,6 C 42 % 1013,8 hPa 0,0 l/m 4,1 km/h (1 Bft) W-NW 301 2 min 0,000 mm 2,2 UV-I 520 W/m 14,3 C 28,5 C 11,3 km/h (2 Bft) 97,87 %
07.07.2017 17:06 28,5 C 25,6 C 42 % 1013,8 hPa 0,0 l/m 7,5 km/h (2 Bft) W 264 2 min 0,000 mm 2,1 UV-I 482 W/m 14,3 C 28,3 C 16,1 km/h (3 Bft) 94,00 %
07.07.2017 17:08 28,3 C 25,6 C 42 % 1013,7 hPa 0,0 l/m 6,5 km/h (2 Bft) W-NW 291 2 min 0,000 mm 2,0 UV-I 465 W/m 14,1 C 28,3 C 17,7 km/h (3 Bft) 100,00 %
07.07.2017 17:10 28,3 C 25,6 C 43 % 1013,7 hPa 0,0 l/m 6,0 km/h (2 Bft) N-NW 327 2 min 0,000 mm 1,9 UV-I 440 W/m 14,5 C 28,3 C 12,9 km/h (3 Bft) 96,72 %
07.07.2017 17:12 28,4 C 26,1 C 44 % 1013,7 hPa 0,0 l/m 3,4 km/h (1 Bft) NW 311 2 min 0,000 mm 1,9 UV-I 423 W/m 14,9 C 28,4 C 8,0 km/h (2 Bft) 96,23 %
07.07.2017 17:14 28,6 C 26,1 C 43 % 1013,6 hPa 0,0 l/m 1,7 km/h (1 Bft) SW 235 2 min 0,000 mm 1,9 UV-I 443 W/m 14,8 C 28,6 C 4,8 km/h (1 Bft) 97,56 %
07.07.2017 17:16 28,6 C 26,1 C 42 % 1013,6 hPa 0,0 l/m 5,3 km/h (1 Bft) W-NW 295 2 min 0,000 mm 1,8 UV-I 424 W/m 14,4 C 28,6 C 9,7 km/h (2 Bft) 92,45 %
07.07.2017 17:18 28,5 C 26,1 C 43 % 1013,6 hPa 0,0 l/m 4,9 km/h (1 Bft) W 270 2 min 0,000 mm 1,5 UV-I 425 W/m 14,7 C 28,5 C 11,3 km/h (2 Bft) 92,31 %
07.07.2017 17:20 28,6 C 26,1 C 42 % 1013,6 hPa 0,0 l/m 11,8 km/h (2 Bft) W 261 2 min 0,000 mm 1,5 UV-I 412 W/m 14,4 C 28,0 C 22,5 km/h (4 Bft) 94,00 %
07.07.2017 17:22 28,6 C 26,1 C 41 % 1013,6 hPa 0,0 l/m 12,0 km/h (2 Bft) W-SW 255 2 min 0,000 mm 1,7 UV-I 465 W/m 14,0 C 27,9 C 17,7 km/h (3 Bft) 92,31 %
07.07.2017 17:24 28,6 C 26,1 C 41 % 1013,5 hPa 0,0 l/m 7,0 km/h (2 Bft) W 279 2 min 0,000 mm 1,7 UV-I 465 W/m 14,0 C 28,5 C 14,5 km/h (3 Bft) 97,30 %
07.07.2017 17:26 28,6 C 26,1 C 42 % 1013,4 hPa 0,0 l/m 5,6 km/h (1 Bft) W 264 2 min 0,000 mm 1,6 UV-I 422 W/m 14,4 C 28,6 C 14,5 km/h (3 Bft) 92,68 %
07.07.2017 17:28 28,6 C 26,1 C 41 % 1013,3 hPa 0,0 l/m 10,0 km/h (2 Bft) W 280 2 min 0,000 mm 1,6 UV-I 412 W/m 14,0 C 28,1 C 14,5 km/h (3 Bft) 95,45 %
07.07.2017 17:30 28,6 C 26,1 C 42 % 1013,3 hPa 0,0 l/m 5,9 km/h (2 Bft) SW 227 2 min 0,000 mm 1,5 UV-I 394 W/m 14,4 C 28,6 C 17,7 km/h (3 Bft) 94,34 %
07.07.2017 17:32 28,7 C 26,1 C 42 % 1013,3 hPa 0,0 l/m 5,0 km/h (1 Bft) W-NW 282 2 min 0,000 mm 1,5 UV-I 382 W/m 14,5 C 28,7 C 11,3 km/h (2 Bft) 98,00 %
07.07.2017 17:34 28,8 C 26,1 C 41 % 1013,2 hPa 0,0 l/m 9,1 km/h (2 Bft) W-SW 245 2 min 0,000 mm 1,4 UV-I 376 W/m 14,2 C 28,5 C 16,1 km/h (3 Bft) 95,74 %
07.07.2017 17:36 28,8 C 26,1 C 41 % 1013,2 hPa 0,0 l/m 7,1 km/h (2 Bft) W-SW 253 2 min 0,000 mm 1,3 UV-I 298 W/m 14,2 C 28,7 C 12,9 km/h (3 Bft) 97,37 %
07.07.2017 17:38 28,8 C 26,1 C 40 % 1013,2 hPa 0,0 l/m 5,8 km/h (2 Bft) W-SW 247 0 min 0,000 mm 1,3 UV-I 280 W/m 13,8 C 28,8 C 9,7 km/h (2 Bft) 98,00 %
07.07.2017 17:40 28,8 C 26,1 C 41 % 1013,2 hPa 0,0 l/m 11,3 km/h (2 Bft) W-SW 250 2 min 0,000 mm 1,3 UV-I 311 W/m 14,2 C 28,2 C 16,1 km/h (3 Bft) 95,74 %
07.07.2017 17:42 28,7 C 26,1 C 41 % 1013,2 hPa 0,0 l/m 5,9 km/h (2 Bft) W-SW 242 2 min 0,000 mm 1,3 UV-I 364 W/m 14,1 C 28,7 C 11,3 km/h (2 Bft) 98,11 %
07.07.2017 17:44 28,7 C 26,1 C 42 % 1013,2 hPa 0,0 l/m 8,1 km/h (2 Bft) W-SW 244 2 min 0,000 mm 1,3 UV-I 379 W/m 14,5 C 28,5 C 12,9 km/h (3 Bft) 97,37 %
07.07.2017 17:46 28,8 C 26,1 C 40 % 1013,2 hPa 0,0 l/m 5,7 km/h (1 Bft) W 261 2 min 0,000 mm 1,3 UV-I 360 W/m 13,8 C 28,8 C 11,3 km/h (2 Bft) 90,91 %
07.07.2017 17:48 28,8 C 26,1 C 41 % 1013,2 hPa 0,0 l/m 7,5 km/h (2 Bft) W-NW 282 2 min 0,000 mm 1,2 UV-I 334 W/m 14,2 C 28,7 C 12,9 km/h (3 Bft) 95,74 %
07.07.2017 17:50 28,9 C 26,1 C 39 % 1013,1 hPa 0,0 l/m 6,8 km/h (2 Bft) W 273 2 min 0,000 mm 1,2 UV-I 338 W/m 13,5 C 28,8 C 14,5 km/h (3 Bft) 95,74 %
07.07.2017 17:52 28,9 C 26,1 C 39 % 1013,1 hPa 0,0 l/m 7,5 km/h (2 Bft) SW 236 2 min 0,000 mm 1,2 UV-I 338 W/m 13,5 C 28,8 C 12,9 km/h (3 Bft) 95,74 %
07.07.2017 17:54 28,9 C 26,1 C 40 % 1013,1 hPa 0,0 l/m 9,5 km/h (2 Bft) W-SW 258 2 min 0,000 mm 1,2 UV-I 351 W/m 13,9 C 28,5 C 14,5 km/h (3 Bft) 94,34 %
07.07.2017 17:56 29,0 C 26,1 C 39 % 1013,1 hPa 0,0 l/m 5,3 km/h (1 Bft) W-SW 255 2 min 0,000 mm 1,2 UV-I 361 W/m 13,6 C 29,0 C 11,3 km/h (2 Bft) 96,00 %
07.07.2017 17:58 29,0 C 26,1 C 40 % 1013,1 hPa 0,0 l/m 4,7 km/h (1 Bft) W 267 2 min 0,000 mm 1,1 UV-I 314 W/m 14,0 C 29,0 C 9,7 km/h (2 Bft) 97,44 %
07.07.2017 18:00 28,9 C 26,1 C 39 % 1013,0 hPa 0,0 l/m 5,1 km/h (1 Bft) W 273 2 min 0,331 mm 1,1 UV-I 302 W/m 13,5 C 28,9 C 12,9 km/h (3 Bft) 96,23 %
07.07.2017 18:02 28,9 C 26,1 C 40 % 1013,0 hPa 0,0 l/m 3,8 km/h (1 Bft) W-SW 240 2 min 0,000 mm 1,1 UV-I 347 W/m 13,9 C 28,9 C 11,3 km/h (2 Bft) 94,74 %
07.07.2017 18:04 29,0 C 26,1 C 39 % 1013,0 hPa 0,0 l/m 8,7 km/h (2 Bft) SW 233 2 min 0,000 mm 1,1 UV-I 365 W/m 13,6 C 28,7 C 14,5 km/h (3 Bft) 92,00 %
07.07.2017 18:06 29,1 C 26,1 C 39 % 1013,0 hPa 0,0 l/m 10,6 km/h (2 Bft) W-SW 254 2 min 0,000 mm 1,1 UV-I 367 W/m 13,7 C 28,6 C 14,5 km/h (3 Bft) 96,00 %
07.07.2017 18:08 29,2 C 26,1 C 38 % 1013,0 hPa 0,0 l/m 12,4 km/h (3 Bft) W-SW 255 2 min 0,000 mm 1,0 UV-I 311 W/m 13,4 C 28,6 C 17,7 km/h (3 Bft) 97,56 %
07.07.2017 18:10 29,1 C 26,1 C 38 % 1012,9 hPa 0,0 l/m 13,9 km/h (3 Bft) W-SW 242 2 min 0,000 mm 1,0 UV-I 287 W/m 13,3 C 28,4 C 19,3 km/h (3 Bft) 98,11 %
07.07.2017 18:12 29,1 C 26,1 C 38 % 1012,9 hPa 0,0 l/m 7,4 km/h (2 Bft) W-SW 256 2 min 0,000 mm 1,0 UV-I 299 W/m 13,3 C 29,0 C 16,1 km/h (3 Bft) 100,00 %
07.07.2017 18:14 29,1 C 26,1 C 38 % 1012,9 hPa 0,0 l/m 6,3 km/h (2 Bft) W 269 2 min 0,000 mm 0,9 UV-I 310 W/m 13,3 C 29,1 C 12,9 km/h (3 Bft) 97,73 %
07.07.2017 18:16 29,1 C 26,1 C 38 % 1012,9 hPa 0,0 l/m 4,2 km/h (1 Bft) SW 236 2 min 0,000 mm 0,9 UV-I 322 W/m 13,3 C 29,1 C 6,4 km/h (2 Bft) 98,21 %
07.07.2017 18:18 29,2 C 26,1 C 38 % 1012,9 hPa 0,0 l/m 4,0 km/h (1 Bft) W-SW 250 2 min 0,000 mm 0,9 UV-I 321 W/m 13,4 C 29,2 C 8,0 km/h (2 Bft) 98,00 %
07.07.2017 18:20 29,3 C 26,1 C 38 % 1012,7 hPa 0,0 l/m 6,3 km/h (2 Bft) W 267 2 min 0,000 mm 0,9 UV-I 305 W/m 13,5 C 29,3 C 11,3 km/h (2 Bft) 97,56 %
07.07.2017 18:22 29,3 C 26,1 C 38 % 1012,7 hPa 0,0 l/m 9,3 km/h (2 Bft) W 262 2 min 0,000 mm 0,9 UV-I 313 W/m 13,5 C 29,0 C 11,3 km/h (2 Bft) 94,34 %
07.07.2017 18:24 29,3 C 26,1 C 39 % 1012,8 hPa 0,0 l/m 8,0 km/h (2 Bft) W 280 2 min 0,000 mm 0,8 UV-I 297 W/m 13,9 C 29,1 C 12,9 km/h (3 Bft) 97,56 %
07.07.2017 18:26 29,3 C 26,1 C 39 % 1012,8 hPa 0,0 l/m 9,0 km/h (2 Bft) S-SW 194 2 min 0,000 mm 0,8 UV-I 295 W/m 13,9 C 29,0 C 14,5 km/h (3 Bft) 97,73 %
07.07.2017 18:28 29,3 C 26,1 C 39 % 1012,8 hPa 0,0 l/m 10,2 km/h (2 Bft) S-SW 211 2 min 0,000 mm 0,8 UV-I 301 W/m 13,9 C 28,9 C 16,1 km/h (3 Bft) 98,11 %
07.07.2017 18:30 29,2 C 26,1 C 39 % 1012,8 hPa 0,0 l/m 8,8 km/h (2 Bft) W-SW 246 0 min 0,000 mm 0,7 UV-I 156 W/m 13,8 C 28,9 C 14,5 km/h (3 Bft) 100,00 %
07.07.2017 18:32 29,1 C 26,1 C 39 % 1012,8 hPa 0,0 l/m 6,2 km/h (2 Bft) W-SW 256 2 min 0,000 mm 0,8 UV-I 301 W/m 13,7 C 29,1 C 11,3 km/h (2 Bft) 98,00 %
07.07.2017 18:34 29,1 C 26,1 C 39 % 1012,8 hPa 0,0 l/m 8,2 km/h (2 Bft) W 277 2 min 0,000 mm 0,8 UV-I 320 W/m 13,7 C 28,9 C 14,5 km/h (3 Bft) 100,00 %
07.07.2017 18:36 29,0 C 26,1 C 40 % 1012,8 hPa 0,0 l/m 8,5 km/h (2 Bft) SW 227 2 min 0,000 mm 0,7 UV-I 314 W/m 14,0 C 28,7 C 11,3 km/h (2 Bft) 100,00 %
07.07.2017 18:38 29,1 C 26,1 C 39 % 1012,7 hPa 0,0 l/m 8,1 km/h (2 Bft) W-SW 247 2 min 0,000 mm 0,7 UV-I 307 W/m 13,7 C 28,9 C 14,5 km/h (3 Bft) 100,00 %
07.07.2017 18:40 29,2 C 26,1 C 40 % 1012,8 hPa 0,0 l/m 7,5 km/h (2 Bft) W-NW 283 2 min 0,000 mm 0,7 UV-I 295 W/m 14,2 C 29,1 C 12,9 km/h (3 Bft) 95,24 %
07.07.2017 18:42 29,3 C 26,1 C 40 % 1012,8 hPa 0,0 l/m 8,2 km/h (2 Bft) SW 221 2 min 0,000 mm 0,7 UV-I 292 W/m 14,3 C 29,1 C 14,5 km/h (3 Bft) 96,00 %
07.07.2017 18:44 29,3 C 26,1 C 39 % 1012,8 hPa 0,0 l/m 7,0 km/h (2 Bft) W-SW 252 2 min 0,000 mm 0,6 UV-I 272 W/m 13,9 C 29,2 C 12,9 km/h (3 Bft) 98,11 %
07.07.2017 18:46 29,2 C 26,1 C 39 % 1012,7 hPa 0,0 l/m 8,4 km/h (2 Bft) W 275 2 min 0,000 mm 0,6 UV-I 260 W/m 13,8 C 29,0 C 12,9 km/h (3 Bft) 97,14 %
07.07.2017 18:48 29,1 C 26,1 C 39 % 1012,7 hPa 0,0 l/m 8,3 km/h (2 Bft) SW 236 2 min 0,000 mm 0,6 UV-I 264 W/m 13,7 C 28,9 C 12,9 km/h (3 Bft) 97,87 %
07.07.2017 18:50 29,0 C 26,1 C 39 % 1012,7 hPa 0,0 l/m 7,7 km/h (2 Bft) W-SW 252 2 min 0,000 mm 0,6 UV-I 262 W/m 13,6 C 28,8 C 12,9 km/h (3 Bft) 98,28 %
07.07.2017 18:52 28,9 C 25,6 C 40 % 1012,7 hPa 0,0 l/m 6,2 km/h (2 Bft) W-SW 241 2 min 0,000 mm 0,5 UV-I 257 W/m 13,9 C 28,9 C 11,3 km/h (2 Bft) 97,14 %
07.07.2017 18:54 29,0 C 26,1 C 40 % 1012,7 hPa 0,0 l/m 8,0 km/h (2 Bft) W-SW 242 2 min 0,000 mm 0,5 UV-I 251 W/m 14,0 C 28,8 C 11,3 km/h (2 Bft) 98,31 %
07.07.2017 18:56 29,0 C 25,6 C 40 % 1012,7 hPa 0,0 l/m 6,0 km/h (2 Bft) W-SW 238 2 min 0,000 mm 0,5 UV-I 250 W/m 14,0 C 29,0 C 9,7 km/h (2 Bft) 97,56 %
07.07.2017 18:58 29,1 C 25,6 C 40 % 1012,7 hPa 0,0 l/m 5,3 km/h (1 Bft) W 271 2 min 0,000 mm 0,5 UV-I 241 W/m 14,1 C 29,1 C 6,4 km/h (2 Bft) 97,87 %
07.07.2017 19:00 29,2 C 25,6 C 40 % 1012,7 hPa 0,0 l/m 3,4 km/h (1 Bft) SW 220 2 min 0,000 mm 0,5 UV-I 230 W/m 14,2 C 29,2 C 8,0 km/h (2 Bft) 100,00 %
07.07.2017 19:02 29,3 C 25,6 C 40 % 1012,6 hPa 0,0 l/m 5,9 km/h (2 Bft) SW 225 2 min 0,279 mm 0,5 UV-I 219 W/m 14,3 C 29,3 C 9,7 km/h (2 Bft) 97,37 %
07.07.2017 19:04 29,2 C 25,6 C 41 % 1012,6 hPa 0,0 l/m 5,8 km/h (2 Bft) SW 227 2 min 0,000 mm 0,0 UV-I 207 W/m 14,6 C 29,2 C 9,7 km/h (2 Bft) 100,00 %
07.07.2017 19:06 29,2 C 25,6 C 41 % 1012,6 hPa 0,0 l/m 8,3 km/h (2 Bft) W-SW 240 2 min 0,000 mm 0,0 UV-I 198 W/m 14,6 C 29,0 C 11,3 km/h (2 Bft) 98,00 %
07.07.2017 19:08 29,2 C 25,6 C 40 % 1012,6 hPa 0,0 l/m 6,2 km/h (2 Bft) SW 234 2 min 0,000 mm 0,0 UV-I 191 W/m 14,2 C 29,2 C 8,0 km/h (2 Bft) 100,00 %
07.07.2017 19:10 29,2 C 25,6 C 41 % 1012,6 hPa 0,0 l/m 4,8 km/h (1 Bft) SW 227 2 min 0,000 mm 0,0 UV-I 186 W/m 14,6 C 29,2 C 8,0 km/h (2 Bft) 95,12 %
07.07.2017 19:12 29,2 C 25,6 C 41 % 1012,5 hPa 0,0 l/m 4,3 km/h (1 Bft) SW 223 2 min 0,000 mm 0,0 UV-I 181 W/m 14,6 C 29,2 C 6,4 km/h (2 Bft) 96,23 %
07.07.2017 19:14 29,1 C 25,6 C 41 % 1012,5 hPa 0,0 l/m 5,4 km/h (1 Bft) SW 223 2 min 0,000 mm 0,0 UV-I 175 W/m 14,5 C 29,1 C 8,0 km/h (2 Bft) 97,62 %
07.07.2017 19:16 29,1 C 25,6 C 41 % 1012,4 hPa 0,0 l/m 5,6 km/h (1 Bft) S-SW 211 2 min 0,000 mm 0,0 UV-I 170 W/m 14,5 C 29,1 C 9,7 km/h (2 Bft) 93,62 %
07.07.2017 19:18 29,1 C 25,6 C 41 % 1012,4 hPa 0,0 l/m 4,1 km/h (1 Bft) W 261 2 min 0,000 mm 0,0 UV-I 165 W/m 14,5 C 29,1 C 9,7 km/h (2 Bft) 97,87 %
07.07.2017 19:20 29,1 C 25,6 C 41 % 1012,4 hPa 0,0 l/m 2,4 km/h (1 Bft) W 261 2 min 0,000 mm 0,0 UV-I 161 W/m 14,5 C 29,1 C 4,8 km/h (1 Bft) 95,74 %
07.07.2017 19:22 29,1 C 25,6 C 41 % 1012,4 hPa 0,0 l/m 4,6 km/h (1 Bft) SW 219 2 min 0,000 mm 0,0 UV-I 156 W/m 14,5 C 29,1 C 6,4 km/h (2 Bft) 95,74 %
07.07.2017 19:24 29,0 C 25,6 C 41 % 1012,4 hPa 0,0 l/m 5,3 km/h (1 Bft) W 269 2 min 0,000 mm 0,0 UV-I 149 W/m 14,4 C 29,0 C 9,7 km/h (2 Bft) 98,00 %
07.07.2017 19:26 28,9 C 25,6 C 41 % 1012,4 hPa 0,0 l/m 4,7 km/h (1 Bft) W 259 2 min 0,000 mm 0,0 UV-I 141 W/m 14,3 C 28,9 C 6,4 km/h (2 Bft) 96,23 %
07.07.2017 19:28 28,9 C 25,6 C 42 % 1012,5 hPa 0,0 l/m 4,4 km/h (1 Bft) W-SW 258 2 min 0,000 mm 0,0 UV-I 136 W/m 14,7 C 28,9 C 6,4 km/h (2 Bft) 97,14 %
07.07.2017 19:30 28,9 C 25,6 C 41 % 1012,6 hPa 0,0 l/m 5,3 km/h (1 Bft) W-SW 238 0 min 0,000 mm 0,0 UV-I 118 W/m 14,3 C 28,9 C 9,7 km/h (2 Bft) 98,00 %
07.07.2017 19:32 28,8 C 25,6 C 41 % 1012,7 hPa 0,0 l/m 7,4 km/h (2 Bft) W-SW 246 0 min 0,000 mm 0,0 UV-I 113 W/m 14,2 C 28,7 C 12,9 km/h (3 Bft) 93,62 %
07.07.2017 19:34 28,8 C 25,6 C 41 % 1012,7 hPa 0,0 l/m 3,8 km/h (1 Bft) W-SW 240 0 min 0,000 mm 0,0 UV-I 111 W/m 14,2 C 28,8 C 4,8 km/h (1 Bft) 96,23 %
07.07.2017 19:36 28,7 C 25,6 C 43 % 1012,7 hPa 0,0 l/m 3,3 km/h (1 Bft) W-SW 240 0 min 0,000 mm 0,0 UV-I 101 W/m 14,9 C 28,7 C 4,8 km/h (1 Bft) 95,00 %
07.07.2017 19:38 28,7 C 25,6 C 43 % 1012,7 hPa 0,0 l/m 1,6 km/h (1 Bft) W-SW 240 2 min 0,000 mm 0,0 UV-I 112 W/m 14,9 C 28,7 C 4,8 km/h (1 Bft) 96,00 %
07.07.2017 19:40 28,7 C 25,6 C 43 % 1012,6 hPa 0,0 l/m 2,7 km/h (1 Bft) W-SW 240 0 min 0,000 mm 0,0 UV-I 104 W/m 14,9 C 28,7 C 4,8 km/h (1 Bft) 92,68 %
07.07.2017 19:42 28,6 C 25,6 C 43 % 1012,7 hPa 0,0 l/m 2,0 km/h (1 Bft) W-SW 240 2 min 0,000 mm 0,0 UV-I 109 W/m 14,8 C 28,6 C 3,2 km/h (1 Bft) 94,64 %
07.07.2017 19:44 28,6 C 25,6 C 43 % 1012,7 hPa 0,0 l/m 2,1 km/h (1 Bft) W-SW 240 2 min 0,000 mm 0,0 UV-I 108 W/m 14,8 C 28,6 C 4,8 km/h (1 Bft) 95,74 %
07.07.2017 19:46 28,5 C 25,6 C 44 % 1012,6 hPa 0,0 l/m 1,2 km/h (1 Bft) W-SW 241 2 min 0,000 mm 0,0 UV-I 105 W/m 15,0 C 28,5 C 3,2 km/h (1 Bft) 94,74 %
07.07.2017 19:48 28,5 C 25,6 C 43 % 1012,5 hPa 0,0 l/m 0,5 km/h (0 Bft) W-SW 240 2 min 0,000 mm 0,0 UV-I 102 W/m 14,7 C 28,5 C 1,6 km/h (1 Bft) 96,43 %
07.07.2017 19:50 28,5 C 25,6 C 44 % 1012,5 hPa 0,0 l/m 0,1 km/h (0 Bft) W-SW 241 2 min 0,000 mm 0,0 UV-I 98 W/m 15,0 C 28,5 C 1,6 km/h (1 Bft) 89,36 %
07.07.2017 19:52 28,4 C 25,6 C 44 % 1012,5 hPa 0,0 l/m 0,3 km/h (0 Bft) W-SW 240 2 min 0,000 mm 0,0 UV-I 93 W/m 14,9 C 28,4 C 1,6 km/h (1 Bft) 95,74 %
07.07.2017 19:54 28,4 C 25,6 C 44 % 1012,5 hPa 0,0 l/m 0,0 km/h (0 Bft) W-SW 240 2 min 0,000 mm 0,0 UV-I 89 W/m 14,9 C 28,4 C 0,0 km/h (0 Bft) 93,62 %
07.07.2017 19:56 28,4 C 25,6 C 44 % 1012,5 hPa 0,0 l/m 0,0 km/h (0 Bft) W-SW 240 0 min 0,000 mm 0,0 UV-I 85 W/m 14,9 C 28,4 C 0,0 km/h (0 Bft) 92,31 %
07.07.2017 19:58 28,4 C 25,6 C 44 % 1012,5 hPa 0,0 l/m 0,0 km/h (0 Bft) W-SW 240 2 min 0,000 mm 0,0 UV-I 83 W/m 14,9 C 28,4 C 0,0 km/h (0 Bft) 95,74 %
07.07.2017 20:00 28,4 C 25,6 C 44 % 1012,5 hPa 0,0 l/m 0,1 km/h (0 Bft) W-SW 240 0 min 0,127 mm 0,0 UV-I 78 W/m 14,9 C 28,4 C 1,6 km/h (1 Bft) 94,34 %
07.07.2017 20:02 28,4 C 25,6 C 44 % 1012,6 hPa 0,0 l/m 0,0 km/h (0 Bft) W-SW 240 0 min 0,000 mm 0,0 UV-I 76 W/m 14,9 C 28,4 C 0,0 km/h (0 Bft) 95,74 %
07.07.2017 20:04 28,4 C 25,6 C 45 % 1012,6 hPa 0,0 l/m 0,1 km/h (0 Bft) W-SW 240 0 min 0,000 mm 0,0 UV-I 74 W/m 15,3 C 28,4 C 1,6 km/h (1 Bft) 92,11 %
07.07.2017 20:06 28,4 C 25,6 C 44 % 1012,6 hPa 0,0 l/m 0,0 km/h (0 Bft) W-SW 241 0 min 0,000 mm 0,0 UV-I 71 W/m 14,9 C 28,4 C 0,0 km/h (0 Bft) 98,11 %
07.07.2017 20:08 28,4 C 25,6 C 44 % 1012,5 hPa 0,0 l/m 0,4 km/h (0 Bft) W-SW 240 2 min 0,000 mm 0,0 UV-I 69 W/m 14,9 C 28,4 C 3,2 km/h (1 Bft) 96,00 %
07.07.2017 20:10 28,2 C 25,6 C 47 % 1012,5 hPa 0,0 l/m 4,2 km/h (1 Bft) N-NO 16 0 min 0,000 mm 0,0 UV-I 63 W/m 15,8 C 28,2 C 8,0 km/h (2 Bft) 94,74 %
07.07.2017 20:12 27,8 C 25,6 C 48 % 1012,5 hPa 0,0 l/m 4,4 km/h (1 Bft) N-NO 24 0 min 0,000 mm 0,0 UV-I 48 W/m 15,8 C 27,8 C 8,0 km/h (2 Bft) 98,00 %
07.07.2017 20:14 27,4 C 25,6 C 49 % 1012,6 hPa 0,0 l/m 5,9 km/h (2 Bft) N-NO 28 0 min 0,000 mm 0,0 UV-I 44 W/m 15,7 C 27,4 C 8,0 km/h (2 Bft) 96,23 %
07.07.2017 20:16 27,0 C 25,6 C 50 % 1012,6 hPa 0,0 l/m 5,5 km/h (1 Bft) N-NO 32 0 min 0,000 mm 0,0 UV-I 44 W/m 15,7 C 27,0 C 8,0 km/h (2 Bft) 100,00 %
07.07.2017 20:18 26,7 C 25,6 C 52 % 1012,7 hPa 0,0 l/m 4,1 km/h (1 Bft) N-NO 32 0 min 0,000 mm 0,0 UV-I 43 W/m 16,0 C 26,7 C 6,4 km/h (2 Bft) 95,74 %
07.07.2017 20:20 26,6 C 25,6 C 52 % 1012,7 hPa 0,0 l/m 3,9 km/h (1 Bft) N-NO 32 0 min 0,000 mm 0,0 UV-I 42 W/m 15,9 C 26,6 C 4,8 km/h (1 Bft) 96,23 %
07.07.2017 20:22 26,4 C 25,6 C 53 % 1012,7 hPa 0,0 l/m 3,1 km/h (1 Bft) N-NO 32 0 min 0,000 mm 0,0 UV-I 40 W/m 16,0 C 26,4 C 4,8 km/h (1 Bft) 95,74 %
07.07.2017 20:24 26,3 C 25,6 C 53 % 1012,7 hPa 0,0 l/m 1,5 km/h (1 Bft) N-NO 32 0 min 0,000 mm 0,0 UV-I 39 W/m 15,9 C 26,3 C 3,2 km/h (1 Bft) 95,45 %
07.07.2017 20:26 26,3 C 25,6 C 52 % 1012,7 hPa 0,0 l/m 1,9 km/h (1 Bft) N-NO 32 0 min 0,000 mm 0,0 UV-I 38 W/m 15,6 C 26,3 C 3,2 km/h (1 Bft) 96,30 %
07.07.2017 20:28 26,3 C 25,6 C 53 % 1012,7 hPa 0,0 l/m 0,9 km/h (0 Bft) N-NO 32 0 min 0,000 mm 0,0 UV-I 34 W/m 15,9 C 26,3 C 3,2 km/h (1 Bft) 96,88 %
07.07.2017 20:30 26,2 C 25,6 C 54 % 1012,8 hPa 0,0 l/m 0,0 km/h (0 Bft) N-NO 32 0 min 0,000 mm 0,0 UV-I 29 W/m 16,1 C 26,2 C 0,0 km/h (0 Bft) 94,00 %
07.07.2017 20:32 26,1 C 25,6 C 54 % 1012,7 hPa 0,0 l/m 0,0 km/h (0 Bft) N-NO 32 0 min 0,000 mm 0,0 UV-I 25 W/m 16,0 C 26,1 C 0,0 km/h (0 Bft) 96,00 %
07.07.2017 20:34 26,1 C 25,6 C 53 % 1012,8 hPa 0,0 l/m 0,0 km/h (0 Bft) N-NO 32 0 min 0,000 mm 0,0 UV-I 21 W/m 15,8 C 26,1 C 0,0 km/h (0 Bft) 94,87 %
07.07.2017 20:36 26,1 C 25,6 C 54 % 1012,8 hPa 0,0 l/m 0,0 km/h (0 Bft) N-NO 32 0 min 0,000 mm 0,0 UV-I 17 W/m 16,0 C 26,1 C 0,0 km/h (0 Bft) 96,00 %
07.07.2017 20:38 26,0 C 25,6 C 54 % 1012,9 hPa 0,0 l/m 0,0 km/h (0 Bft) N-NO 32 0 min 0,000 mm 0,0 UV-I 15 W/m 16,0 C 26,0 C 0,0 km/h (0 Bft) 96,00 %
07.07.2017 20:40 25,9 C 25,6 C 55 % 1012,9 hPa 0,0 l/m 0,0 km/h (0 Bft) N-NO 32 0 min 0,000 mm 0,0 UV-I 12 W/m 16,2 C 25,9 C 0,0 km/h (0 Bft) 91,49 %
07.07.2017 20:42 25,8 C 25,6 C 55 % 1012,9 hPa 0,0 l/m 0,0 km/h (0 Bft) N-NO 32 0 min 0,000 mm 0,0 UV-I 12 W/m 16,1 C 25,8 C 0,0 km/h (0 Bft) 95,74 %
07.07.2017 20:44 25,7 C 25,6 C 56 % 1012,9 hPa 0,0 l/m 0,0 km/h (0 Bft) N-NO 32 0 min 0,000 mm 0,0 UV-I 12 W/m 16,2 C 25,7 C 0,0 km/h (0 Bft) 96,00 %
07.07.2017 20:46 25,5 C 25,6 C 56 % 1013,0 hPa 0,0 l/m 0,0 km/h (0 Bft) N-NO 32 0 min 0,000 mm 0,0 UV-I 11 W/m 16,1 C 25,5 C 0,0 km/h (0 Bft) 94,74 %
07.07.2017 20:48 25,3 C 25,6 C 56 % 1013,1 hPa 0,0 l/m 0,0 km/h (0 Bft) N-NO 32 0 min 0,000 mm 0,0 UV-I 11 W/m 15,9 C 25,3 C 0,0 km/h (0 Bft) 96,00 %
07.07.2017 20:50 25,2 C 25,6 C 57 % 1013,1 hPa 0,0 l/m 0,0 km/h (0 Bft) N-NO 32 0 min 0,000 mm 0,0 UV-I 11 W/m 16,1 C 25,2 C 0,0 km/h (0 Bft) 94,29 %
07.07.2017 20:52 25,2 C 25,6 C 57 % 1013,1 hPa 0,0 l/m 0,0 km/h (0 Bft) N-NO 32 2 min 0,000 mm 0,0 UV-I 9 W/m 16,1 C 25,2 C 0,0 km/h (0 Bft) 95,38 %
07.07.2017 20:54 25,1 C 25,6 C 57 % 1013,1 hPa 0,0 l/m 0,0 km/h (0 Bft) N-NO 32 0 min 0,000 mm 0,0 UV-I 9 W/m 16,0 C 25,1 C 0,0 km/h (0 Bft) 94,29 %
07.07.2017 20:56 25,0 C 25,6 C 58 % 1013,1 hPa 0,0 l/m 0,0 km/h (0 Bft) N-NO 32 0 min 0,000 mm 0,0 UV-I 8 W/m 16,1 C 25,0 C 0,0 km/h (0 Bft) 93,62 %
07.07.2017 20:58 24,9 C 25,6 C 58 % 1013,1 hPa 0,0 l/m 0,0 km/h (0 Bft) N-NO 32 0 min 0,000 mm 0,0 UV-I 7 W/m 16,1 C 24,9 C 0,0 km/h (0 Bft) 95,74 %
07.07.2017 21:00 24,7 C 25,6 C 60 % 1013,1 hPa 0,0 l/m 0,0 km/h (0 Bft) N-NO 32 0 min 0,051 mm 0,0 UV-I 7 W/m 16,4 C 24,7 C 0,0 km/h (0 Bft) 96,00 %
07.07.2017 21:02 24,5 C 25,6 C 61 % 1013,1 hPa 0,0 l/m 1,6 km/h (1 Bft) N-NO 32 0 min 0,000 mm 0,0 UV-I 7 W/m 16,5 C 24,5 C 3,2 km/h (1 Bft) 94,00 %
07.07.2017 21:04 24,2 C 25,6 C 61 % 1013,0 hPa 0,0 l/m 3,6 km/h (1 Bft) N-NO 32 0 min 0,000 mm 0,0 UV-I 6 W/m 16,2 C 24,2 C 4,8 km/h (1 Bft) 97,37 %
07.07.2017 21:06 23,9 C 25,6 C 61 % 1013,0 hPa 0,0 l/m 2,4 km/h (1 Bft) N-NO 32 0 min 0,000 mm 0,0 UV-I 5 W/m 15,9 C 23,9 C 4,8 km/h (1 Bft) 96,61 %
07.07.2017 21:08 23,9 C 25,6 C 61 % 1013,0 hPa 0,0 l/m 1,5 km/h (1 Bft) N-NO 32 0 min 0,000 mm 0,0 UV-I 5 W/m 15,9 C 23,9 C 3,2 km/h (1 Bft) 97,87 %
07.07.2017 21:10 23,9 C 25,6 C 61 % 1013,1 hPa 0,0 l/m 1,0 km/h (0 Bft) N-NO 32 0 min 0,000 mm 0,0 UV-I 5 W/m 15,9 C 23,9 C 1,6 km/h (1 Bft) 100,00 %
07.07.2017 21:12 24,1 C 25,6 C 61 % 1013,2 hPa 0,0 l/m 0,0 km/h (0 Bft) N-NO 32 0 min 0,000 mm 0,0 UV-I 5 W/m 16,1 C 24,1 C 0,0 km/h (0 Bft) 96,23 %
07.07.2017 21:14 24,1 C 25,6 C 61 % 1013,2 hPa 0,0 l/m 0,2 km/h (0 Bft) N-NO 32 0 min 0,000 mm 0,0 UV-I 5 W/m 16,1 C 24,1 C 1,6 km/h (1 Bft) 97,87 %
07.07.2017 21:16 24,2 C 25,0 C 61 % 1013,2 hPa 0,0 l/m 0,0 km/h (0 Bft) N-NO 32 0 min 0,000 mm 0,0 UV-I 5 W/m 16,2 C 24,2 C 0,0 km/h (0 Bft) 95,83 %
07.07.2017 21:18 24,1 C 25,0 C 61 % 1013,3 hPa 0,0 l/m 0,0 km/h (0 Bft) N-NO 32 0 min 0,000 mm 0,0 UV-I 0 W/m 16,1 C 24,1 C 0,0 km/h (0 Bft) 97,87 %
07.07.2017 21:20 23,9 C 25,0 C 62 % 1013,3 hPa 0,0 l/m 0,0 km/h (0 Bft) N-NO 32 0 min 0,000 mm 0,0 UV-I 0 W/m 16,2 C 23,9 C 0,0 km/h (0 Bft) 94,74 %
07.07.2017 21:22 23,8 C 25,0 C 62 % 1013,3 hPa 0,0 l/m 0,0 km/h (0 Bft) N-NO 32 0 min 0,000 mm 0,0 UV-I 0 W/m 16,1 C 23,8 C 0,0 km/h (0 Bft) 93,62 %
07.07.2017 21:24 23,7 C 25,6 C 63 % 1013,2 hPa 0,0 l/m 0,0 km/h (0 Bft) N-NO 32 0 min 0,000 mm 0,0 UV-I 0 W/m 16,2 C 23,7 C 0,0 km/h (0 Bft) 96,23 %
07.07.2017 21:26 23,6 C 25,6 C 64 % 1013,3 hPa 0,0 l/m 1,8 km/h (1 Bft) N-NO 32 0 min 0,000 mm 0,0 UV-I 0 W/m 16,4 C 23,6 C 3,2 km/h (1 Bft) 95,12 %
07.07.2017 21:28 23,5 C 25,6 C 64 % 1013,3 hPa 0,0 l/m 1,9 km/h (1 Bft) N-NO 32 0 min 0,000 mm 0,0 UV-I 0 W/m 16,3 C 23,5 C 3,2 km/h (1 Bft) 97,87 %
07.07.2017 21:30 23,4 C 25,6 C 64 % 1013,3 hPa 0,0 l/m 0,7 km/h (0 Bft) N-NO 32 0 min 0,000 mm 0,0 UV-I 0 W/m 16,2 C 23,4 C 3,2 km/h (1 Bft) 95,74 %
07.07.2017 21:32 23,3 C 25,6 C 65 % 1013,3 hPa 0,0 l/m 0,0 km/h (0 Bft) N-NO 32 0 min 0,000 mm 0,0 UV-I 0 W/m 16,3 C 23,3 C 0,0 km/h (0 Bft) 98,11 %
07.07.2017 21:34 23,2 C 25,6 C 66 % 1013,4 hPa 0,0 l/m 0,4 km/h (0 Bft) N-NO 32 0 min 0,000 mm 0,0 UV-I 0 W/m 16,5 C 23,2 C 3,2 km/h (1 Bft) 93,62 %
07.07.2017 21:36 23,2 C 25,6 C 66 % 1013,4 hPa 0,0 l/m 2,0 km/h (1 Bft) N-NO 32 0 min 0,000 mm 0,0 UV-I 0 W/m 16,5 C 23,2 C 3,2 km/h (1 Bft) 96,00 %
07.07.2017 21:38 23,2 C 25,6 C 66 % 1013,3 hPa 0,0 l/m 2,0 km/h (1 Bft) NO 35 0 min 0,000 mm 0,0 UV-I 0 W/m 16,5 C 23,2 C 3,2 km/h (1 Bft) 97,37 %
07.07.2017 21:40 23,1 C 25,6 C 66 % 1013,4 hPa 0,0 l/m 2,1 km/h (1 Bft) NO 35 0 min 0,000 mm 0,0 UV-I 0 W/m 16,4 C 23,1 C 4,8 km/h (1 Bft) 95,74 %
07.07.2017 21:42 23,1 C 25,6 C 66 % 1013,4 hPa 0,0 l/m 1,0 km/h (0 Bft) O-NO 57 0 min 0,000 mm 0,0 UV-I 0 W/m 16,4 C 23,1 C 3,2 km/h (1 Bft) 96,00 %
07.07.2017 21:44 23,1 C 25,6 C 65 % 1013,4 hPa 0,0 l/m 2,3 km/h (1 Bft) SO 130 0 min 0,000 mm 0,0 UV-I 0 W/m 16,2 C 23,1 C 4,8 km/h (1 Bft) 95,45 %
07.07.2017 21:46 23,1 C 25,6 C 66 % 1013,4 hPa 0,0 l/m 0,9 km/h (0 Bft) SO 130 0 min 0,000 mm 0,0 UV-I 0 W/m 16,4 C 23,1 C 1,6 km/h (1 Bft) 95,24 %
07.07.2017 21:48 22,8 C 25,6 C 66 % 1013,4 hPa 0,0 l/m 1,6 km/h (1 Bft) SO 130 0 min 0,000 mm 0,0 UV-I 0 W/m 16,1 C 22,8 C 3,2 km/h (1 Bft) 94,12 %
07.07.2017 21:50 22,7 C 25,6 C 66 % 1013,5 hPa 0,0 l/m 1,9 km/h (1 Bft) SO 130 0 min 0,000 mm 0,0 UV-I 0 W/m 16,0 C 22,7 C 3,2 km/h (1 Bft) 96,23 %
07.07.2017 21:52 22,6 C 25,6 C 68 % 1013,5 hPa 0,0 l/m 1,5 km/h (1 Bft) SO 130 0 min 0,000 mm 0,0 UV-I 0 W/m 16,4 C 22,6 C 3,2 km/h (1 Bft) 94,44 %
07.07.2017 21:54 22,4 C 25,6 C 69 % 1013,5 hPa 0,0 l/m 0,0 km/h (0 Bft) SO 130 0 min 0,000 mm 0,0 UV-I 0 W/m 16,4 C 22,4 C 0,0 km/h (0 Bft) 94,00 %
07.07.2017 21:56 22,3 C 25,6 C 70 % 1013,5 hPa 0,0 l/m 0,0 km/h (0 Bft) SO 130 0 min 0,000 mm 0,0 UV-I 0 W/m 16,6 C 22,3 C 0,0 km/h (0 Bft) 100,00 %
07.07.2017 21:58 22,3 C 25,6 C 69 % 1013,5 hPa 0,0 l/m 1,4 km/h (1 Bft) SO 130 0 min 0,000 mm 0,0 UV-I 0 W/m 16,3 C 22,3 C 3,2 km/h (1 Bft) 96,43 %
07.07.2017 22:00 22,3 C 25,6 C 69 % 1013,6 hPa 0,0 l/m 0,1 km/h (0 Bft) SO 130 0 min 0,000 mm 0,0 UV-I 0 W/m 16,3 C 22,3 C 1,6 km/h (1 Bft) 94,74 %
07.07.2017 22:02 22,3 C 25,6 C 70 % 1013,6 hPa 0,0 l/m 1,1 km/h (1 Bft) SO 130 0 min 0,025 mm 0,0 UV-I 0 W/m 16,6 C 22,3 C 3,2 km/h (1 Bft) 98,00 %
07.07.2017 22:04 22,4 C 25,6 C 70 % 1013,6 hPa 0,0 l/m 0,6 km/h (0 Bft) SO 130 0 min 0,000 mm 0,0 UV-I 0 W/m 16,7 C 22,4 C 1,6 km/h (1 Bft) 94,00 %
07.07.2017 22:06 22,4 C 25,6 C 69 % 1013,6 hPa 0,0 l/m 1,9 km/h (1 Bft) SO 130 0 min 0,000 mm 0,0 UV-I 0 W/m 16,4 C 22,4 C 3,2 km/h (1 Bft) 100,00 %
07.07.2017 22:08 22,4 C 25,6 C 69 % 1013,6 hPa 0,0 l/m 1,7 km/h (1 Bft) SO 130 0 min 0,000 mm 0,0 UV-I 0 W/m 16,4 C 22,4 C 3,2 km/h (1 Bft) 97,87 %
07.07.2017 22:10 22,4 C 25,0 C 69 % 1013,6 hPa 0,0 l/m 1,9 km/h (1 Bft) SO 130 0 min 0,000 mm 0,0 UV-I 0 W/m 16,4 C 22,4 C 3,2 km/h (1 Bft) 100,00 %
07.07.2017 22:12 22,3 C 25,0 C 69 % 1013,6 hPa 0,0 l/m 1,3 km/h (1 Bft) SO 130 0 min 0,000 mm 0,0 UV-I 0 W/m 16,3 C 22,3 C 1,6 km/h (1 Bft) 98,00 %
07.07.2017 22:14 22,2 C 25,0 C 69 % 1013,6 hPa 0,0 l/m 0,1 km/h (0 Bft) SO 130 0 min 0,000 mm 0,0 UV-I 0 W/m 16,2 C 22,2 C 1,6 km/h (1 Bft) 100,00 %
07.07.2017 22:16 22,1 C 25,0 C 69 % 1013,5 hPa 0,0 l/m 0,1 km/h (0 Bft) SO 130 0 min 0,000 mm 0,0 UV-I 0 W/m 16,1 C 22,1 C 1,6 km/h (1 Bft) 94,74 %
07.07.2017 22:18 22,1 C 25,0 C 70 % 1013,5 hPa 0,0 l/m 0,4 km/h (0 Bft) SO 130 0 min 0,000 mm 0,0 UV-I 0 W/m 16,4 C 22,1 C 1,6 km/h (1 Bft) 97,56 %
07.07.2017 22:20 22,0 C 25,0 C 70 % 1013,5 hPa 0,0 l/m 1,7 km/h (1 Bft) SO 130 0 min 0,000 mm 0,0 UV-I 0 W/m 16,3 C 22,0 C 3,2 km/h (1 Bft) 92,31 %
07.07.2017 22:22 22,1 C 25,0 C 70 % 1013,5 hPa 0,0 l/m 2,0 km/h (1 Bft) SO 130 0 min 0,000 mm 0,0 UV-I 0 W/m 16,4 C 22,1 C 3,2 km/h (1 Bft) 97,87 %
07.07.2017 22:24 22,2 C 25,0 C 70 % 1013,6 hPa 0,0 l/m 2,5 km/h (1 Bft) SO 130 0 min 0,000 mm 0,0 UV-I 0 W/m 16,5 C 22,2 C 4,8 km/h (1 Bft) 98,00 %
07.07.2017 22:26 22,2 C 25,0 C 70 % 1013,6 hPa 0,0 l/m 1,6 km/h (1 Bft) SO 130 0 min 0,000 mm 0,0 UV-I 0 W/m 16,5 C 22,2 C 3,2 km/h (1 Bft) 98,00 %
07.07.2017 22:28 22,2 C 25,0 C 69 % 1013,6 hPa 0,0 l/m 0,6 km/h (0 Bft) SO 130 0 min 0,000 mm 0,0 UV-I 0 W/m 16,2 C 22,2 C 1,6 km/h (1 Bft) 93,62 %
07.07.2017 22:30 22,1 C 25,0 C 70 % 1013,5 hPa 0,0 l/m 0,9 km/h (0 Bft) SO 130 0 min 0,000 mm 0,0 UV-I 0 W/m 16,4 C 22,1 C 1,6 km/h (1 Bft) 97,44 %
07.07.2017 22:32 22,0 C 25,0 C 69 % 1013,4 hPa 0,0 l/m 1,8 km/h (1 Bft) SO 130 0 min 0,000 mm 0,0 UV-I 0 W/m 16,0 C 22,0 C 3,2 km/h (1 Bft) 97,87 %
07.07.2017 22:34 22,0 C 25,0 C 69 % 1013,4 hPa 0,0 l/m 1,5 km/h (1 Bft) SO 130 0 min 0,000 mm 0,0 UV-I 0 W/m 16,0 C 22,0 C 3,2 km/h (1 Bft) 98,11 %
07.07.2017 22:36 22,1 C 25,0 C 68 % 1013,5 hPa 0,0 l/m 1,5 km/h (1 Bft) SO 130 0 min 0,000 mm 0,0 UV-I 0 W/m 15,9 C 22,1 C 3,2 km/h (1 Bft) 97,56 %
07.07.2017 22:38 22,2 C 25,0 C 69 % 1013,4 hPa 0,0 l/m 1,4 km/h (1 Bft) SO 130 0 min 0,000 mm 0,0 UV-I 0 W/m 16,2 C 22,2 C 3,2 km/h (1 Bft) 98,11 %
07.07.2017 22:40 22,3 C 25,0 C 69 % 1013,4 hPa 0,0 l/m 1,3 km/h (1 Bft) SO 130 0 min 0,000 mm 0,0 UV-I 0 W/m 16,3 C 22,3 C 3,2 km/h (1 Bft) 95,74 %
07.07.2017 22:42 22,3 C 25,0 C 69 % 1013,4 hPa 0,0 l/m 0,1 km/h (0 Bft) SO 130 0 min 0,000 mm 0,0 UV-I 0 W/m 16,3 C 22,3 C 1,6 km/h (1 Bft) 98,00 %
07.07.2017 22:44 22,3 C 25,0 C 69 % 1013,4 hPa 0,0 l/m 0,0 km/h (0 Bft) SO 130 0 min 0,000 mm 0,0 UV-I 0 W/m 16,3 C 22,3 C 0,0 km/h (0 Bft) 97,37 %
07.07.2017 22:46 22,2 C 25,0 C 69 % 1013,3 hPa 0,0 l/m 1,5 km/h (1 Bft) SO 130 0 min 0,000 mm 0,0 UV-I 0 W/m 16,2 C 22,2 C 3,2 km/h (1 Bft) 100,00 %
07.07.2017 22:48 22,2 C 25,0 C 69 % 1013,3 hPa 0,0 l/m 1,4 km/h (1 Bft) SO 130 0 min 0,000 mm 0,0 UV-I 0 W/m 16,2 C 22,2 C 3,2 km/h (1 Bft) 98,11 %
07.07.2017 22:50 22,2 C 25,0 C 70 % 1013,3 hPa 0,0 l/m 0,8 km/h (0 Bft) SO 130 0 min 0,000 mm 0,0 UV-I 0 W/m 16,5 C 22,2 C 3,2 km/h (1 Bft) 97,56 %
07.07.2017 22:52 22,2 C 25,0 C 70 % 1013,4 hPa 0,0 l/m 0,4 km/h (0 Bft) SO 130 0 min 0,000 mm 0,0 UV-I 0 W/m 16,5 C 22,2 C 1,6 km/h (1 Bft) 98,11 %
07.07.2017 22:54 22,1 C 25,0 C 70 % 1013,5 hPa 0,0 l/m 0,0 km/h (0 Bft) SO 130 0 min 0,000 mm 0,0 UV-I 0 W/m 16,4 C 22,1 C 0,0 km/h (0 Bft) 97,87 %
07.07.2017 22:56 22,1 C 25,0 C 71 % 1013,4 hPa 0,0 l/m 0,1 km/h (0 Bft) SO 130 0 min 0,000 mm 0,0 UV-I 0 W/m 16,6 C 22,1 C 1,6 km/h (1 Bft) 100,00 %
07.07.2017 22:58 22,1 C 25,0 C 71 % 1013,5 hPa 0,0 l/m 1,9 km/h (1 Bft) SO 130 0 min 0,000 mm 0,0 UV-I 0 W/m 16,6 C 22,1 C 4,8 km/h (1 Bft) 97,87 %
07.07.2017 23:00 22,0 C 25,0 C 71 % 1013,5 hPa 0,0 l/m 2,8 km/h (1 Bft) S-SO 150 0 min 0,000 mm 0,0 UV-I 0 W/m 16,5 C 22,0 C 4,8 km/h (1 Bft) 98,21 %
07.07.2017 23:02 22,1 C 25,0 C 71 % 1013,4 hPa 0,0 l/m 3,5 km/h (1 Bft) S-SO 151 0 min 0,026 mm 0,0 UV-I 0 W/m 16,6 C 22,1 C 4,8 km/h (1 Bft) 97,73 %
07.07.2017 23:04 22,1 C 25,0 C 70 % 1013,5 hPa 0,0 l/m 4,1 km/h (1 Bft) S-SW 200 0 min 0,000 mm 0,0 UV-I 0 W/m 16,4 C 22,1 C 6,4 km/h (2 Bft) 96,00 %
07.07.2017 23:06 22,1 C 25,0 C 70 % 1013,5 hPa 0,0 l/m 5,5 km/h (1 Bft) SW 217 0 min 0,000 mm 0,0 UV-I 0 W/m 16,4 C 22,1 C 8,0 km/h (2 Bft) 97,44 %
07.07.2017 23:08 22,1 C 25,0 C 69 % 1013,6 hPa 0,0 l/m 6,7 km/h (2 Bft) SW 215 0 min 0,000 mm 0,0 UV-I 0 W/m 16,1 C 22,0 C 9,7 km/h (2 Bft) 96,00 %
07.07.2017 23:10 22,2 C 25,0 C 69 % 1013,5 hPa 0,0 l/m 5,7 km/h (1 Bft) SW 223 0 min 0,000 mm 0,0 UV-I 0 W/m 16,2 C 22,2 C 8,0 km/h (2 Bft) 97,96 %
07.07.2017 23:12 22,2 C 25,0 C 69 % 1013,5 hPa 0,0 l/m 6,4 km/h (2 Bft) SW 218 0 min 0,000 mm 0,0 UV-I 0 W/m 16,2 C 22,2 C 8,0 km/h (2 Bft) 96,00 %
07.07.2017 23:14 22,3 C 25,0 C 68 % 1013,6 hPa 0,0 l/m 6,0 km/h (2 Bft) SW 219 0 min 0,000 mm 0,0 UV-I 0 W/m 16,1 C 22,3 C 8,0 km/h (2 Bft) 97,78 %
07.07.2017 23:16 22,3 C 25,0 C 68 % 1013,5 hPa 0,0 l/m 6,3 km/h (2 Bft) SW 217 0 min 0,000 mm 0,0 UV-I 0 W/m 16,1 C 22,3 C 8,0 km/h (2 Bft) 94,00 %
07.07.2017 23:18 22,4 C 25,0 C 68 % 1013,5 hPa 0,0 l/m 5,8 km/h (2 Bft) SW 228 0 min 0,000 mm 0,0 UV-I 0 W/m 16,2 C 22,4 C 8,0 km/h (2 Bft) 97,37 %
07.07.2017 23:20 22,4 C 25,0 C 68 % 1013,5 hPa 0,0 l/m 4,9 km/h (1 Bft) S-SW 208 0 min 0,000 mm 0,0 UV-I 0 W/m 16,2 C 22,4 C 6,4 km/h (2 Bft) 94,34 %
07.07.2017 23:22 22,4 C 25,0 C 68 % 1013,4 hPa 0,0 l/m 5,5 km/h (1 Bft) SW 234 0 min 0,000 mm 0,0 UV-I 0 W/m 16,2 C 22,4 C 6,4 km/h (2 Bft) 93,62 %
07.07.2017 23:24 22,4 C 25,0 C 67 % 1013,4 hPa 0,0 l/m 6,3 km/h (2 Bft) SW 236 0 min 0,000 mm 0,0 UV-I 0 W/m 16,0 C 22,4 C 8,0 km/h (2 Bft) 97,37 %
07.07.2017 23:26 22,5 C 25,0 C 67 % 1013,5 hPa 0,0 l/m 5,4 km/h (1 Bft) SW 234 0 min 0,000 mm 0,0 UV-I 0 W/m 16,1 C 22,5 C 8,0 km/h (2 Bft) 93,62 %
07.07.2017 23:28 22,5 C 25,0 C 67 % 1013,6 hPa 0,0 l/m 5,6 km/h (1 Bft) SW 217 0 min 0,000 mm 0,0 UV-I 0 W/m 16,1 C 22,5 C 8,0 km/h (2 Bft) 97,37 %
07.07.2017 23:30 22,5 C 25,0 C 67 % 1013,6 hPa 0,0 l/m 5,3 km/h (1 Bft) SW 236 0 min 0,000 mm 0,0 UV-I 0 W/m 16,1 C 22,5 C 8,0 km/h (2 Bft) 96,36 %
07.07.2017 23:32 22,4 C 25,0 C 67 % 1013,6 hPa 0,0 l/m 5,2 km/h (1 Bft) W-SW 246 0 min 0,000 mm 0,0 UV-I 0 W/m 16,0 C 22,4 C 6,4 km/h (2 Bft) 96,67 %
07.07.2017 23:34 22,4 C 25,0 C 68 % 1013,6 hPa 0,0 l/m 5,0 km/h (1 Bft) W-SW 246 0 min 0,000 mm 0,0 UV-I 0 W/m 16,2 C 22,4 C 6,4 km/h (2 Bft) 97,01 %
07.07.2017 23:36 22,3 C 25,0 C 68 % 1013,7 hPa 0,0 l/m 6,0 km/h (2 Bft) W-SW 237 0 min 0,000 mm 0,0 UV-I 0 W/m 16,1 C 22,3 C 8,0 km/h (2 Bft) 94,00 %
07.07.2017 23:38 22,3 C 25,0 C 68 % 1013,7 hPa 0,0 l/m 5,5 km/h (1 Bft) W-SW 243 0 min 0,000 mm 0,0 UV-I 0 W/m 16,1 C 22,3 C 8,0 km/h (2 Bft) 91,49 %
07.07.2017 23:40 22,3 C 25,0 C 68 % 1013,7 hPa 0,0 l/m 6,2 km/h (2 Bft) W-SW 242 0 min 0,000 mm 0,0 UV-I 0 W/m 16,1 C 22,3 C 8,0 km/h (2 Bft) 97,87 %
07.07.2017 23:42 22,3 C 25,0 C 68 % 1013,7 hPa 0,0 l/m 5,6 km/h (1 Bft) W-SW 254 0 min 0,000 mm 0,0 UV-I 0 W/m 16,1 C 22,3 C 8,0 km/h (2 Bft) 93,18 %
07.07.2017 23:44 22,3 C 25,0 C 68 % 1013,8 hPa 0,0 l/m 5,0 km/h (1 Bft) W-SW 241 0 min 0,000 mm 0,0 UV-I 0 W/m 16,1 C 22,3 C 6,4 km/h (2 Bft) 98,11 %
07.07.2017 23:46 22,3 C 25,0 C 68 % 1013,8 hPa 0,0 l/m 4,4 km/h (1 Bft) SW 225 0 min 0,000 mm 0,0 UV-I 0 W/m 16,1 C 22,3 C 6,4 km/h (2 Bft) 94,87 %
07.07.2017 23:48 22,2 C 25,0 C 69 % 1013,8 hPa 0,0 l/m 4,0 km/h (1 Bft) SW 230 0 min 0,000 mm 0,0 UV-I 0 W/m 16,2 C 22,2 C 4,8 km/h (1 Bft) 98,08 %
07.07.2017 23:50 22,2 C 25,0 C 69 % 1013,8 hPa 0,0 l/m 3,9 km/h (1 Bft) SW 236 0 min 0,000 mm 0,0 UV-I 0 W/m 16,2 C 22,2 C 6,4 km/h (2 Bft) 95,24 %
07.07.2017 23:52 22,2 C 25,0 C 69 % 1013,7 hPa 0,0 l/m 5,0 km/h (1 Bft) SW 234 0 min 0,000 mm 0,0 UV-I 0 W/m 16,2 C 22,2 C 6,4 km/h (2 Bft) 93,62 %
07.07.2017 23:54 22,1 C 25,0 C 69 % 1013,6 hPa 0,0 l/m 5,1 km/h (1 Bft) W 263 0 min 0,000 mm 0,0 UV-I 0 W/m 16,1 C 22,1 C 6,4 km/h (2 Bft) 98,11 %
07.07.2017 23:56 22,1 C 25,0 C 69 % 1013,7 hPa 0,0 l/m 3,3 km/h (1 Bft) W-SW 246 0 min 0,000 mm 0,0 UV-I 0 W/m 16,1 C 22,1 C 6,4 km/h (2 Bft) 94,74 %
07.07.2017 23:58 22,1 C 25,0 C 69 % 1013,6 hPa 0,0 l/m 5,6 km/h (1 Bft) SW 227 0 min 0,000 mm 0,0 UV-I 0 W/m 16,1 C 22,1 C 8,0 km/h (2 Bft) 96,00 %
_ Min-Zeit 05:02 05:26 16:28 19:16 - 00:22 - - - - - - 16:30 05:02 00:22 10:02
Minimum _ 16,2 C 24,4 C 32 % 1012,4 hPa - 0,0 km/h (0 Bft) - - - - - - 11,7 C 16,2 C 0,0 km/h (0 Bft) 86,79 %
_ Max-Zeit 16:24 17:12 05:14 13:16 00:00 09:58 - - 11:43 12:02 12:24 14:14 10:22 16:34 16:28 00:36
Maximum _ 30,4 C 26,1 C 83 % 1016,4 hPa 0,0 l/m 21,5 km/h
O-SO (4 Bft)
- - 3 min 0,533 mm 6,0 UV-I 1000 W/m 17,8 C 30,2 C 35,4 km/h
W-SW (5 Bft)
100,00 %
Durchschnitt _ 23,3 C 25,1 C 61 % 1014,4 hPa #0,0 l/m 4,2 km/h (1 Bft) W-SW - #8:52 h #4,547 mm 2,5 UV-I 336 W/m 14,8 C 23,2 C 7,5 km/h (2 Bft) 96,67 %